<?xml version="1.0"?>
<gpx
 version="1.1"
 creator="Satmap Active 20"
 xmlns:xsi="http://www.w3.org/2001/XMLSchema-instance"
 xmlns="http://www.topografix.com/GPX/1/1"
 xmlns:satmap="http://www.satmap.com/updates/xmlschemas/GpxExtensions/v2/GpxExtensions_v2.xsd"
 xsi:schemaLocation="http://www.topografix.com/GPX/1/1 http://www.topografix.com/GPX/1/1/gpx.xsd">
<metadata>
<time>2021-04-03T15:00:43Z</time>
<extensions>
<satmap:platform>43</satmap:platform>
<satmap:software version="3.13.037">SM15.exe</satmap:software>
<satmap:username>pieter metz</satmap:username>
<satmap:network_ids>
<satmap:network_id type="wifi">00-23-A7-CA-E3-5C</satmap:network_id>
<satmap:network_id type="bluetooth">80-BB-EB-78-4F-29</satmap:network_id>
</satmap:network_ids>
<satmap:snap_type>simple</satmap:snap_type>
</extensions>
</metadata>
<trk>
<name>2021-04-03_1501</name>
<desc>Track 1</desc>
<number>1</number>
<trkseg>
<trkpt lat="52.043012" lon="05.693442"><ele>29.4</ele><time>2021-04-03T15:00:43Z</time><name>PT1</name></trkpt>
<trkpt lat="52.043020" lon="05.693425"><ele>29.5</ele><time>2021-04-03T15:01:08Z</time><name>PT2</name></trkpt>
<trkpt lat="52.043029" lon="05.693416"><ele>29.2</ele><time>2021-04-03T15:01:09Z</time><name>PT3</name></trkpt>
<trkpt lat="52.043045" lon="05.693386"><ele>29</ele><time>2021-04-03T15:01:10Z</time><name>PT4</name></trkpt>
<trkpt lat="52.043059" lon="05.693350"><ele>29</ele><time>2021-04-03T15:01:11Z</time><name>PT5</name></trkpt>
<trkpt lat="52.043075" lon="05.693322"><ele>29</ele><time>2021-04-03T15:01:12Z</time><name>PT6</name></trkpt>
<trkpt lat="52.043094" lon="05.693306"><ele>28.9</ele><time>2021-04-03T15:01:13Z</time><name>PT7</name></trkpt>
<trkpt lat="52.043102" lon="05.693289"><ele>29</ele><time>2021-04-03T15:01:14Z</time><name>PT8</name></trkpt>
<trkpt lat="52.043122" lon="05.693279"><ele>28.7</ele><time>2021-04-03T15:01:15Z</time><name>PT9</name></trkpt>
<trkpt lat="52.043139" lon="05.693257"><ele>28.7</ele><time>2021-04-03T15:01:16Z</time><name>PT10</name></trkpt>
<trkpt lat="52.043151" lon="05.693232"><ele>28.7</ele><time>2021-04-03T15:01:17Z</time><name>PT11</name></trkpt>
<trkpt lat="52.043168" lon="05.693206"><ele>28.8</ele><time>2021-04-03T15:01:18Z</time><name>PT12</name></trkpt>
<trkpt lat="52.043186" lon="05.693175"><ele>28.9</ele><time>2021-04-03T15:01:19Z</time><name>PT13</name></trkpt>
<trkpt lat="52.043200" lon="05.693152"><ele>29.2</ele><time>2021-04-03T15:01:20Z</time><name>PT14</name></trkpt>
<trkpt lat="52.043209" lon="05.693124"><ele>29.3</ele><time>2021-04-03T15:01:21Z</time><name>PT15</name></trkpt>
<trkpt lat="52.043217" lon="05.693093"><ele>29.3</ele><time>2021-04-03T15:01:22Z</time><name>PT16</name></trkpt>
<trkpt lat="52.043230" lon="05.693063"><ele>29.2</ele><time>2021-04-03T15:01:23Z</time><name>PT17</name></trkpt>
<trkpt lat="52.043236" lon="05.693039"><ele>28.9</ele><time>2021-04-03T15:01:24Z</time><name>PT18</name></trkpt>
<trkpt lat="52.043248" lon="05.693017"><ele>29</ele><time>2021-04-03T15:01:25Z</time><name>PT19</name></trkpt>
<trkpt lat="52.043261" lon="05.692989"><ele>28.8</ele><time>2021-04-03T15:01:26Z</time><name>PT20</name></trkpt>
<trkpt lat="52.043275" lon="05.692965"><ele>28.8</ele><time>2021-04-03T15:01:27Z</time><name>PT21</name></trkpt>
<trkpt lat="52.043286" lon="05.692938"><ele>28.8</ele><time>2021-04-03T15:01:28Z</time><name>PT22</name></trkpt>
<trkpt lat="52.043304" lon="05.692913"><ele>28.7</ele><time>2021-04-03T15:01:29Z</time><name>PT23</name></trkpt>
<trkpt lat="52.043320" lon="05.692888"><ele>28.5</ele><time>2021-04-03T15:01:30Z</time><name>PT24</name></trkpt>
<trkpt lat="52.043331" lon="05.692857"><ele>28.4</ele><time>2021-04-03T15:01:31Z</time><name>PT25</name></trkpt>
<trkpt lat="52.043340" lon="05.692843"><ele>28</ele><time>2021-04-03T15:01:32Z</time><name>PT26</name></trkpt>
<trkpt lat="52.043350" lon="05.692827"><ele>27.7</ele><time>2021-04-03T15:01:33Z</time><name>PT27</name></trkpt>
<trkpt lat="52.043365" lon="05.692814"><ele>27.5</ele><time>2021-04-03T15:01:34Z</time><name>PT28</name></trkpt>
<trkpt lat="52.043380" lon="05.692795"><ele>27.4</ele><time>2021-04-03T15:01:35Z</time><name>PT29</name></trkpt>
<trkpt lat="52.043398" lon="05.692799"><ele>27.3</ele><time>2021-04-03T15:01:36Z</time><name>PT30</name></trkpt>
<trkpt lat="52.043419" lon="05.692794"><ele>27.3</ele><time>2021-04-03T15:01:37Z</time><name>PT31</name></trkpt>
<trkpt lat="52.043439" lon="05.692796"><ele>27.3</ele><time>2021-04-03T15:01:38Z</time><name>PT32</name></trkpt>
<trkpt lat="52.043453" lon="05.692791"><ele>27.1</ele><time>2021-04-03T15:01:39Z</time><name>PT33</name></trkpt>
<trkpt lat="52.043471" lon="05.692784"><ele>27</ele><time>2021-04-03T15:01:40Z</time><name>PT34</name></trkpt>
<trkpt lat="52.043486" lon="05.692785"><ele>27</ele><time>2021-04-03T15:01:41Z</time><name>PT35</name></trkpt>
<trkpt lat="52.043503" lon="05.692794"><ele>27</ele><time>2021-04-03T15:01:42Z</time><name>PT36</name></trkpt>
<trkpt lat="52.043522" lon="05.692797"><ele>26.9</ele><time>2021-04-03T15:01:43Z</time><name>PT37</name></trkpt>
<trkpt lat="52.043546" lon="05.692797"><ele>26.9</ele><time>2021-04-03T15:01:44Z</time><name>PT38</name></trkpt>
<trkpt lat="52.043563" lon="05.692806"><ele>26.8</ele><time>2021-04-03T15:01:45Z</time><name>PT39</name></trkpt>
<trkpt lat="52.043583" lon="05.692800"><ele>26.7</ele><time>2021-04-03T15:01:46Z</time><name>PT40</name></trkpt>
<trkpt lat="52.043587" lon="05.692825"><ele>26.5</ele><time>2021-04-03T15:01:47Z</time><name>PT41</name></trkpt>
<trkpt lat="52.043609" lon="05.692828"><ele>26.1</ele><time>2021-04-03T15:01:48Z</time><name>PT42</name></trkpt>
<trkpt lat="52.043636" lon="05.692849"><ele>25.8</ele><time>2021-04-03T15:01:49Z</time><name>PT43</name></trkpt>
<trkpt lat="52.043650" lon="05.692875"><ele>25.6</ele><time>2021-04-03T15:01:50Z</time><name>PT44</name></trkpt>
<trkpt lat="52.043672" lon="05.692882"><ele>25.2</ele><time>2021-04-03T15:01:51Z</time><name>PT45</name></trkpt>
<trkpt lat="52.043704" lon="05.692894"><ele>25.1</ele><time>2021-04-03T15:01:52Z</time><name>PT46</name></trkpt>
<trkpt lat="52.043737" lon="05.692901"><ele>25</ele><time>2021-04-03T15:01:53Z</time><name>PT47</name></trkpt>
<trkpt lat="52.043757" lon="05.692909"><ele>24.6</ele><time>2021-04-03T15:01:54Z</time><name>PT48</name></trkpt>
<trkpt lat="52.043778" lon="05.692935"><ele>24.4</ele><time>2021-04-03T15:01:55Z</time><name>PT49</name></trkpt>
<trkpt lat="52.043811" lon="05.692946"><ele>24.7</ele><time>2021-04-03T15:01:56Z</time><name>PT50</name></trkpt>
<trkpt lat="52.043841" lon="05.692956"><ele>24.6</ele><time>2021-04-03T15:01:57Z</time><name>PT51</name></trkpt>
<trkpt lat="52.043866" lon="05.692964"><ele>24.6</ele><time>2021-04-03T15:01:58Z</time><name>PT52</name></trkpt>
<trkpt lat="52.043904" lon="05.692978"><ele>24.3</ele><time>2021-04-03T15:01:59Z</time><name>PT53</name></trkpt>
<trkpt lat="52.043936" lon="05.692993"><ele>24</ele><time>2021-04-03T15:02:00Z</time><name>PT54</name></trkpt>
<trkpt lat="52.043969" lon="05.693009"><ele>23.8</ele><time>2021-04-03T15:02:01Z</time><name>PT55</name></trkpt>
<trkpt lat="52.044006" lon="05.693015"><ele>23.5</ele><time>2021-04-03T15:02:02Z</time><name>PT56</name></trkpt>
<trkpt lat="52.044044" lon="05.693013"><ele>23.4</ele><time>2021-04-03T15:02:03Z</time><name>PT57</name></trkpt>
<trkpt lat="52.044073" lon="05.693020"><ele>23.3</ele><time>2021-04-03T15:02:04Z</time><name>PT58</name></trkpt>
<trkpt lat="52.044104" lon="05.693016"><ele>23.2</ele><time>2021-04-03T15:02:05Z</time><name>PT59</name></trkpt>
<trkpt lat="52.044137" lon="05.693031"><ele>22.8</ele><time>2021-04-03T15:02:06Z</time><name>PT60</name></trkpt>
<trkpt lat="52.044175" lon="05.693028"><ele>22.6</ele><time>2021-04-03T15:02:07Z</time><name>PT61</name></trkpt>
<trkpt lat="52.044202" lon="05.693041"><ele>22.3</ele><time>2021-04-03T15:02:08Z</time><name>PT62</name></trkpt>
<trkpt lat="52.044226" lon="05.693055"><ele>22.2</ele><time>2021-04-03T15:02:09Z</time><name>PT63</name></trkpt>
<trkpt lat="52.044263" lon="05.693066"><ele>22.2</ele><time>2021-04-03T15:02:10Z</time><name>PT64</name></trkpt>
<trkpt lat="52.044295" lon="05.693071"><ele>21.9</ele><time>2021-04-03T15:02:11Z</time><name>PT65</name></trkpt>
<trkpt lat="52.044317" lon="05.693078"><ele>21.8</ele><time>2021-04-03T15:02:12Z</time><name>PT66</name></trkpt>
<trkpt lat="52.044346" lon="05.693070"><ele>21.9</ele><time>2021-04-03T15:02:13Z</time><name>PT67</name></trkpt>
<trkpt lat="52.044368" lon="05.693092"><ele>21.6</ele><time>2021-04-03T15:02:14Z</time><name>PT68</name></trkpt>
<trkpt lat="52.044387" lon="05.693105"><ele>21.9</ele><time>2021-04-03T15:02:15Z</time><name>PT69</name></trkpt>
<trkpt lat="52.044419" lon="05.693103"><ele>21.9</ele><time>2021-04-03T15:02:16Z</time><name>PT70</name></trkpt>
<trkpt lat="52.044460" lon="05.693099"><ele>21.8</ele><time>2021-04-03T15:02:17Z</time><name>PT71</name></trkpt>
<trkpt lat="52.044484" lon="05.693113"><ele>21.5</ele><time>2021-04-03T15:02:18Z</time><name>PT72</name></trkpt>
<trkpt lat="52.044518" lon="05.693122"><ele>21.4</ele><time>2021-04-03T15:02:19Z</time><name>PT73</name></trkpt>
<trkpt lat="52.044552" lon="05.693134"><ele>21.3</ele><time>2021-04-03T15:02:20Z</time><name>PT74</name></trkpt>
<trkpt lat="52.044587" lon="05.693152"><ele>21.1</ele><time>2021-04-03T15:02:21Z</time><name>PT75</name></trkpt>
<trkpt lat="52.044621" lon="05.693157"><ele>21.1</ele><time>2021-04-03T15:02:22Z</time><name>PT76</name></trkpt>
<trkpt lat="52.044645" lon="05.693164"><ele>21</ele><time>2021-04-03T15:02:23Z</time><name>PT77</name></trkpt>
<trkpt lat="52.044663" lon="05.693162"><ele>20.9</ele><time>2021-04-03T15:02:24Z</time><name>PT78</name></trkpt>
<trkpt lat="52.044682" lon="05.693169"><ele>20.7</ele><time>2021-04-03T15:02:25Z</time><name>PT79</name></trkpt>
<trkpt lat="52.044697" lon="05.693176"><ele>20.8</ele><time>2021-04-03T15:02:26Z</time><name>PT80</name></trkpt>
<trkpt lat="52.044704" lon="05.693183"><ele>20.9</ele><time>2021-04-03T15:02:27Z</time><name>PT81</name></trkpt>
<trkpt lat="52.044718" lon="05.693183"><ele>20.9</ele><time>2021-04-03T15:02:28Z</time><name>PT82</name></trkpt>
<trkpt lat="52.044736" lon="05.693183"><ele>21</ele><time>2021-04-03T15:02:29Z</time><name>PT83</name></trkpt>
<trkpt lat="52.044744" lon="05.693179"><ele>20.8</ele><time>2021-04-03T15:02:36Z</time><name>PT84</name></trkpt>
<trkpt lat="52.044758" lon="05.693155"><ele>20.7</ele><time>2021-04-03T15:02:37Z</time><name>PT85</name></trkpt>
<trkpt lat="52.044770" lon="05.693136"><ele>20.7</ele><time>2021-04-03T15:02:38Z</time><name>PT86</name></trkpt>
<trkpt lat="52.044786" lon="05.693114"><ele>20.6</ele><time>2021-04-03T15:02:39Z</time><name>PT87</name></trkpt>
<trkpt lat="52.044806" lon="05.693094"><ele>20.4</ele><time>2021-04-03T15:02:40Z</time><name>PT88</name></trkpt>
<trkpt lat="52.044825" lon="05.693081"><ele>20.4</ele><time>2021-04-03T15:02:41Z</time><name>PT89</name></trkpt>
<trkpt lat="52.044871" lon="05.693069"><ele>20.5</ele><time>2021-04-03T15:02:42Z</time><name>PT90</name></trkpt>
<trkpt lat="52.044894" lon="05.693059"><ele>20.4</ele><time>2021-04-03T15:02:43Z</time><name>PT91</name></trkpt>
<trkpt lat="52.044922" lon="05.693050"><ele>20.4</ele><time>2021-04-03T15:02:44Z</time><name>PT92</name></trkpt>
<trkpt lat="52.044949" lon="05.693046"><ele>20.1</ele><time>2021-04-03T15:02:45Z</time><name>PT93</name></trkpt>
<trkpt lat="52.044979" lon="05.693046"><ele>20</ele><time>2021-04-03T15:02:46Z</time><name>PT94</name></trkpt>
<trkpt lat="52.045010" lon="05.693058"><ele>19.8</ele><time>2021-04-03T15:02:47Z</time><name>PT95</name></trkpt>
<trkpt lat="52.045039" lon="05.693060"><ele>19.6</ele><time>2021-04-03T15:02:48Z</time><name>PT96</name></trkpt>
<trkpt lat="52.045061" lon="05.693075"><ele>19.6</ele><time>2021-04-03T15:02:49Z</time><name>PT97</name></trkpt>
<trkpt lat="52.045085" lon="05.693081"><ele>19.4</ele><time>2021-04-03T15:02:50Z</time><name>PT98</name></trkpt>
<trkpt lat="52.045112" lon="05.693096"><ele>19.3</ele><time>2021-04-03T15:02:51Z</time><name>PT99</name></trkpt>
<trkpt lat="52.045129" lon="05.693105"><ele>19.2</ele><time>2021-04-03T15:02:52Z</time><name>PT100</name></trkpt>
<trkpt lat="52.045147" lon="05.693117"><ele>19.2</ele><time>2021-04-03T15:02:53Z</time><name>PT101</name></trkpt>
<trkpt lat="52.045163" lon="05.693127"><ele>19</ele><time>2021-04-03T15:02:54Z</time><name>PT102</name></trkpt>
<trkpt lat="52.045191" lon="05.693140"><ele>18.8</ele><time>2021-04-03T15:02:55Z</time><name>PT103</name></trkpt>
<trkpt lat="52.045215" lon="05.693147"><ele>18.9</ele><time>2021-04-03T15:02:56Z</time><name>PT104</name></trkpt>
<trkpt lat="52.045243" lon="05.693146"><ele>18.9</ele><time>2021-04-03T15:02:57Z</time><name>PT105</name></trkpt>
<trkpt lat="52.045256" lon="05.693142"><ele>18.8</ele><time>2021-04-03T15:02:58Z</time><name>PT106</name></trkpt>
<trkpt lat="52.045295" lon="05.693145"><ele>19.1</ele><time>2021-04-03T15:02:59Z</time><name>PT107</name></trkpt>
<trkpt lat="52.045323" lon="05.693141"><ele>18.9</ele><time>2021-04-03T15:03:00Z</time><name>PT108</name></trkpt>
<trkpt lat="52.045360" lon="05.693143"><ele>18.9</ele><time>2021-04-03T15:03:01Z</time><name>PT109</name></trkpt>
<trkpt lat="52.045389" lon="05.693132"><ele>18.8</ele><time>2021-04-03T15:03:02Z</time><name>PT110</name></trkpt>
<trkpt lat="52.045412" lon="05.693116"><ele>18.8</ele><time>2021-04-03T15:03:03Z</time><name>PT111</name></trkpt>
<trkpt lat="52.045442" lon="05.693108"><ele>18.8</ele><time>2021-04-03T15:03:04Z</time><name>PT112</name></trkpt>
<trkpt lat="52.045468" lon="05.693097"><ele>18.8</ele><time>2021-04-03T15:03:05Z</time><name>PT113</name></trkpt>
<trkpt lat="52.045498" lon="05.693087"><ele>18.7</ele><time>2021-04-03T15:03:07Z</time><name>PT114</name></trkpt>
<trkpt lat="52.045524" lon="05.693075"><ele>18.7</ele><time>2021-04-03T15:03:07Z</time><name>PT115</name></trkpt>
<trkpt lat="52.045544" lon="05.693064"><ele>18.6</ele><time>2021-04-03T15:03:08Z</time><name>PT116</name></trkpt>
<trkpt lat="52.045572" lon="05.693056"><ele>18.4</ele><time>2021-04-03T15:03:09Z</time><name>PT117</name></trkpt>
<trkpt lat="52.045585" lon="05.693045"><ele>18.4</ele><time>2021-04-03T15:03:10Z</time><name>PT118</name></trkpt>
<trkpt lat="52.045622" lon="05.693032"><ele>18.5</ele><time>2021-04-03T15:03:11Z</time><name>PT119</name></trkpt>
<trkpt lat="52.045663" lon="05.693023"><ele>18.5</ele><time>2021-04-03T15:03:13Z</time><name>PT120</name></trkpt>
<trkpt lat="52.045679" lon="05.693012"><ele>18.6</ele><time>2021-04-03T15:03:13Z</time><name>PT121</name></trkpt>
<trkpt lat="52.045701" lon="05.692998"><ele>18.7</ele><time>2021-04-03T15:03:14Z</time><name>PT122</name></trkpt>
<trkpt lat="52.045731" lon="05.692992"><ele>18.6</ele><time>2021-04-03T15:03:15Z</time><name>PT123</name></trkpt>
<trkpt lat="52.045748" lon="05.692985"><ele>18.5</ele><time>2021-04-03T15:03:16Z</time><name>PT124</name></trkpt>
<trkpt lat="52.045772" lon="05.692979"><ele>18.4</ele><time>2021-04-03T15:03:17Z</time><name>PT125</name></trkpt>
<trkpt lat="52.045800" lon="05.692960"><ele>18.1</ele><time>2021-04-03T15:03:18Z</time><name>PT126</name></trkpt>
<trkpt lat="52.045825" lon="05.692951"><ele>17.8</ele><time>2021-04-03T15:03:19Z</time><name>PT127</name></trkpt>
<trkpt lat="52.045851" lon="05.692945"><ele>17.6</ele><time>2021-04-03T15:03:20Z</time><name>PT128</name></trkpt>
<trkpt lat="52.045869" lon="05.692937"><ele>17.4</ele><time>2021-04-03T15:03:21Z</time><name>PT129</name></trkpt>
<trkpt lat="52.045890" lon="05.692929"><ele>17.4</ele><time>2021-04-03T15:03:22Z</time><name>PT130</name></trkpt>
<trkpt lat="52.045908" lon="05.692909"><ele>17.5</ele><time>2021-04-03T15:03:23Z</time><name>PT131</name></trkpt>
<trkpt lat="52.045931" lon="05.692886"><ele>17.6</ele><time>2021-04-03T15:03:24Z</time><name>PT132</name></trkpt>
<trkpt lat="52.045959" lon="05.692858"><ele>17.7</ele><time>2021-04-03T15:03:25Z</time><name>PT133</name></trkpt>
<trkpt lat="52.045976" lon="05.692828"><ele>17.8</ele><time>2021-04-03T15:03:26Z</time><name>PT134</name></trkpt>
<trkpt lat="52.045992" lon="05.692817"><ele>17.9</ele><time>2021-04-03T15:03:27Z</time><name>PT135</name></trkpt>
<trkpt lat="52.045993" lon="05.692802"><ele>18.1</ele><time>2021-04-03T15:03:28Z</time><name>PT136</name></trkpt>
<trkpt lat="52.046003" lon="05.692782"><ele>18.2</ele><time>2021-04-03T15:03:29Z</time><name>PT137</name></trkpt>
<trkpt lat="52.046011" lon="05.692760"><ele>18.1</ele><time>2021-04-03T15:03:30Z</time><name>PT138</name></trkpt>
<trkpt lat="52.046017" lon="05.692732"><ele>18.1</ele><time>2021-04-03T15:03:31Z</time><name>PT139</name></trkpt>
<trkpt lat="52.046025" lon="05.692708"><ele>18</ele><time>2021-04-03T15:03:32Z</time><name>PT140</name></trkpt>
<trkpt lat="52.046031" lon="05.692687"><ele>17.8</ele><time>2021-04-03T15:03:33Z</time><name>PT141</name></trkpt>
<trkpt lat="52.046042" lon="05.692656"><ele>18</ele><time>2021-04-03T15:03:34Z</time><name>PT142</name></trkpt>
<trkpt lat="52.046053" lon="05.692637"><ele>18</ele><time>2021-04-03T15:03:35Z</time><name>PT143</name></trkpt>
<trkpt lat="52.046053" lon="05.692631"><ele>18.1</ele><time>2021-04-03T15:03:36Z</time><name>PT144</name></trkpt>
<trkpt lat="52.046061" lon="05.692614"><ele>18.1</ele><time>2021-04-03T15:03:37Z</time><name>PT145</name></trkpt>
<trkpt lat="52.046065" lon="05.692584"><ele>18.1</ele><time>2021-04-03T15:03:38Z</time><name>PT146</name></trkpt>
<trkpt lat="52.046066" lon="05.692564"><ele>18.1</ele><time>2021-04-03T15:03:39Z</time><name>PT147</name></trkpt>
<trkpt lat="52.046067" lon="05.692533"><ele>18.2</ele><time>2021-04-03T15:03:40Z</time><name>PT148</name></trkpt>
<trkpt lat="52.046067" lon="05.692515"><ele>18.3</ele><time>2021-04-03T15:03:41Z</time><name>PT149</name></trkpt>
<trkpt lat="52.046075" lon="05.692492"><ele>18.3</ele><time>2021-04-03T15:03:42Z</time><name>PT150</name></trkpt>
<trkpt lat="52.046069" lon="05.692458"><ele>18.3</ele><time>2021-04-03T15:03:43Z</time><name>PT151</name></trkpt>
<trkpt lat="52.046068" lon="05.692428"><ele>18.4</ele><time>2021-04-03T15:03:44Z</time><name>PT152</name></trkpt>
<trkpt lat="52.046051" lon="05.692406"><ele>18.5</ele><time>2021-04-03T15:03:45Z</time><name>PT153</name></trkpt>
<trkpt lat="52.046037" lon="05.692374"><ele>18.5</ele><time>2021-04-03T15:03:46Z</time><name>PT154</name></trkpt>
<trkpt lat="52.046030" lon="05.692348"><ele>18.4</ele><time>2021-04-03T15:03:47Z</time><name>PT155</name></trkpt>
<trkpt lat="52.046027" lon="05.692320"><ele>18.2</ele><time>2021-04-03T15:03:48Z</time><name>PT156</name></trkpt>
<trkpt lat="52.046016" lon="05.692274"><ele>18.2</ele><time>2021-04-03T15:03:49Z</time><name>PT157</name></trkpt>
<trkpt lat="52.046002" lon="05.692230"><ele>18.3</ele><time>2021-04-03T15:03:50Z</time><name>PT158</name></trkpt>
<trkpt lat="52.045987" lon="05.692200"><ele>18.4</ele><time>2021-04-03T15:03:51Z</time><name>PT159</name></trkpt>
<trkpt lat="52.045987" lon="05.692173"><ele>18.4</ele><time>2021-04-03T15:03:52Z</time><name>PT160</name></trkpt>
<trkpt lat="52.045980" lon="05.692140"><ele>18.7</ele><time>2021-04-03T15:03:53Z</time><name>PT161</name></trkpt>
<trkpt lat="52.045978" lon="05.692117"><ele>18.7</ele><time>2021-04-03T15:03:54Z</time><name>PT162</name></trkpt>
<trkpt lat="52.045971" lon="05.692097"><ele>18.6</ele><time>2021-04-03T15:03:55Z</time><name>PT163</name></trkpt>
<trkpt lat="52.045970" lon="05.692082"><ele>18.7</ele><time>2021-04-03T15:03:56Z</time><name>PT164</name></trkpt>
<trkpt lat="52.045968" lon="05.692075"><ele>18.5</ele><time>2021-04-03T15:03:57Z</time><name>PT165</name></trkpt>
<trkpt lat="52.045973" lon="05.692072"><ele>18.6</ele><time>2021-04-03T15:03:58Z</time><name>PT166</name></trkpt>
<trkpt lat="52.045972" lon="05.692058"><ele>18.6</ele><time>2021-04-03T15:03:59Z</time><name>PT167</name></trkpt>
<trkpt lat="52.045966" lon="05.692039"><ele>18.7</ele><time>2021-04-03T15:04:00Z</time><name>PT168</name></trkpt>
<trkpt lat="52.045964" lon="05.692014"><ele>18.7</ele><time>2021-04-03T15:04:01Z</time><name>PT169</name></trkpt>
<trkpt lat="52.045962" lon="05.691981"><ele>18.7</ele><time>2021-04-03T15:04:19Z</time><name>PT170</name></trkpt>
<trkpt lat="52.045967" lon="05.691969"><ele>18.7</ele><time>2021-04-03T15:04:20Z</time><name>PT171</name></trkpt>
<trkpt lat="52.045973" lon="05.691954"><ele>18.7</ele><time>2021-04-03T15:04:21Z</time><name>PT172</name></trkpt>
<trkpt lat="52.045976" lon="05.691943"><ele>18.6</ele><time>2021-04-03T15:04:22Z</time><name>PT173</name></trkpt>
<trkpt lat="52.045979" lon="05.691936"><ele>18.6</ele><time>2021-04-03T15:04:23Z</time><name>PT174</name></trkpt>
<trkpt lat="52.045982" lon="05.691922"><ele>18.5</ele><time>2021-04-03T15:04:24Z</time><name>PT175</name></trkpt>
<trkpt lat="52.045985" lon="05.691910"><ele>18.6</ele><time>2021-04-03T15:04:25Z</time><name>PT176</name></trkpt>
<trkpt lat="52.045983" lon="05.691894"><ele>18.6</ele><time>2021-04-03T15:04:26Z</time><name>PT177</name></trkpt>
<trkpt lat="52.045980" lon="05.691878"><ele>18.5</ele><time>2021-04-03T15:04:27Z</time><name>PT178</name></trkpt>
<trkpt lat="52.045976" lon="05.691867"><ele>18.7</ele><time>2021-04-03T15:04:28Z</time><name>PT179</name></trkpt>
<trkpt lat="52.045977" lon="05.691849"><ele>18.6</ele><time>2021-04-03T15:04:33Z</time><name>PT180</name></trkpt>
<trkpt lat="52.045984" lon="05.691835"><ele>18.7</ele><time>2021-04-03T15:04:34Z</time><name>PT181</name></trkpt>
<trkpt lat="52.045985" lon="05.691824"><ele>18.5</ele><time>2021-04-03T15:04:35Z</time><name>PT182</name></trkpt>
<trkpt lat="52.045954" lon="05.691786"><ele>18.5</ele><time>2021-04-03T15:04:36Z</time><name>PT183</name></trkpt>
<trkpt lat="52.045943" lon="05.691767"><ele>18.7</ele><time>2021-04-03T15:04:37Z</time><name>PT184</name></trkpt>
<trkpt lat="52.045932" lon="05.691754"><ele>18.7</ele><time>2021-04-03T15:04:38Z</time><name>PT185</name></trkpt>
<trkpt lat="52.045933" lon="05.691746"><ele>18.4</ele><time>2021-04-03T15:04:39Z</time><name>PT186</name></trkpt>
<trkpt lat="52.045929" lon="05.691737"><ele>18.4</ele><time>2021-04-03T15:04:40Z</time><name>PT187</name></trkpt>
<trkpt lat="52.045909" lon="05.691716"><ele>18.4</ele><time>2021-04-03T15:04:41Z</time><name>PT188</name></trkpt>
<trkpt lat="52.045899" lon="05.691689"><ele>18.4</ele><time>2021-04-03T15:04:42Z</time><name>PT189</name></trkpt>
<trkpt lat="52.045887" lon="05.691662"><ele>18.4</ele><time>2021-04-03T15:04:43Z</time><name>PT190</name></trkpt>
<trkpt lat="52.045879" lon="05.691640"><ele>18.3</ele><time>2021-04-03T15:04:44Z</time><name>PT191</name></trkpt>
<trkpt lat="52.045872" lon="05.691621"><ele>18.3</ele><time>2021-04-03T15:04:45Z</time><name>PT192</name></trkpt>
<trkpt lat="52.045854" lon="05.691598"><ele>18.4</ele><time>2021-04-03T15:04:46Z</time><name>PT193</name></trkpt>
<trkpt lat="52.045842" lon="05.691575"><ele>18.5</ele><time>2021-04-03T15:04:47Z</time><name>PT194</name></trkpt>
<trkpt lat="52.045827" lon="05.691550"><ele>18.8</ele><time>2021-04-03T15:04:48Z</time><name>PT195</name></trkpt>
<trkpt lat="52.045812" lon="05.691524"><ele>18.8</ele><time>2021-04-03T15:04:49Z</time><name>PT196</name></trkpt>
<trkpt lat="52.045798" lon="05.691502"><ele>18.8</ele><time>2021-04-03T15:04:50Z</time><name>PT197</name></trkpt>
<trkpt lat="52.045776" lon="05.691492"><ele>19</ele><time>2021-04-03T15:04:51Z</time><name>PT198</name></trkpt>
<trkpt lat="52.045762" lon="05.691480"><ele>18.8</ele><time>2021-04-03T15:04:52Z</time><name>PT199</name></trkpt>
<trkpt lat="52.045741" lon="05.691461"><ele>18.8</ele><time>2021-04-03T15:04:53Z</time><name>PT200</name></trkpt>
<trkpt lat="52.045717" lon="05.691424"><ele>18.9</ele><time>2021-04-03T15:04:54Z</time><name>PT201</name></trkpt>
<trkpt lat="52.045707" lon="05.691405"><ele>19.1</ele><time>2021-04-03T15:04:55Z</time><name>PT202</name></trkpt>
<trkpt lat="52.045700" lon="05.691382"><ele>19.2</ele><time>2021-04-03T15:04:56Z</time><name>PT203</name></trkpt>
<trkpt lat="52.045691" lon="05.691362"><ele>19.5</ele><time>2021-04-03T15:04:57Z</time><name>PT204</name></trkpt>
<trkpt lat="52.045679" lon="05.691344"><ele>19.6</ele><time>2021-04-03T15:04:58Z</time><name>PT205</name></trkpt>
<trkpt lat="52.045673" lon="05.691333"><ele>19.5</ele><time>2021-04-03T15:04:59Z</time><name>PT206</name></trkpt>
<trkpt lat="52.045678" lon="05.691311"><ele>19.4</ele><time>2021-04-03T15:05:00Z</time><name>PT207</name></trkpt>
<trkpt lat="52.045679" lon="05.691292"><ele>19.2</ele><time>2021-04-03T15:05:01Z</time><name>PT208</name></trkpt>
<trkpt lat="52.045681" lon="05.691276"><ele>19.3</ele><time>2021-04-03T15:05:02Z</time><name>PT209</name></trkpt>
<trkpt lat="52.045683" lon="05.691261"><ele>19.3</ele><time>2021-04-03T15:05:03Z</time><name>PT210</name></trkpt>
<trkpt lat="52.045685" lon="05.691238"><ele>19.5</ele><time>2021-04-03T15:05:04Z</time><name>PT211</name></trkpt>
<trkpt lat="52.045681" lon="05.691216"><ele>19.3</ele><time>2021-04-03T15:05:05Z</time><name>PT212</name></trkpt>
<trkpt lat="52.045685" lon="05.691196"><ele>19</ele><time>2021-04-03T15:05:06Z</time><name>PT213</name></trkpt>
<trkpt lat="52.045694" lon="05.691168"><ele>18.8</ele><time>2021-04-03T15:05:07Z</time><name>PT214</name></trkpt>
<trkpt lat="52.045701" lon="05.691150"><ele>18.6</ele><time>2021-04-03T15:05:08Z</time><name>PT215</name></trkpt>
<trkpt lat="52.045718" lon="05.691132"><ele>18.7</ele><time>2021-04-03T15:05:09Z</time><name>PT216</name></trkpt>
<trkpt lat="52.045734" lon="05.691108"><ele>18.7</ele><time>2021-04-03T15:05:10Z</time><name>PT217</name></trkpt>
<trkpt lat="52.045740" lon="05.691073"><ele>18.6</ele><time>2021-04-03T15:05:11Z</time><name>PT218</name></trkpt>
<trkpt lat="52.045752" lon="05.691042"><ele>18.7</ele><time>2021-04-03T15:05:12Z</time><name>PT219</name></trkpt>
<trkpt lat="52.045764" lon="05.691012"><ele>18.7</ele><time>2021-04-03T15:05:13Z</time><name>PT220</name></trkpt>
<trkpt lat="52.045750" lon="05.690958"><ele>18.7</ele><time>2021-04-03T15:05:14Z</time><name>PT221</name></trkpt>
<trkpt lat="52.045757" lon="05.690932"><ele>18.7</ele><time>2021-04-03T15:05:15Z</time><name>PT222</name></trkpt>
<trkpt lat="52.045766" lon="05.690909"><ele>18.7</ele><time>2021-04-03T15:05:16Z</time><name>PT223</name></trkpt>
<trkpt lat="52.045785" lon="05.690870"><ele>18.4</ele><time>2021-04-03T15:05:17Z</time><name>PT224</name></trkpt>
<trkpt lat="52.045787" lon="05.690840"><ele>18.2</ele><time>2021-04-03T15:05:18Z</time><name>PT225</name></trkpt>
<trkpt lat="52.045798" lon="05.690818"><ele>18.2</ele><time>2021-04-03T15:05:19Z</time><name>PT226</name></trkpt>
<trkpt lat="52.045810" lon="05.690793"><ele>18.2</ele><time>2021-04-03T15:05:20Z</time><name>PT227</name></trkpt>
<trkpt lat="52.045818" lon="05.690785"><ele>18.4</ele><time>2021-04-03T15:05:21Z</time><name>PT228</name></trkpt>
<trkpt lat="52.045822" lon="05.690763"><ele>18.6</ele><time>2021-04-03T15:05:22Z</time><name>PT229</name></trkpt>
<trkpt lat="52.045818" lon="05.690733"><ele>18.5</ele><time>2021-04-03T15:05:23Z</time><name>PT230</name></trkpt>
<trkpt lat="52.045830" lon="05.690722"><ele>18.7</ele><time>2021-04-03T15:05:25Z</time><name>PT231</name></trkpt>
<trkpt lat="52.045834" lon="05.690705"><ele>18.7</ele><time>2021-04-03T15:05:25Z</time><name>PT232</name></trkpt>
<trkpt lat="52.045838" lon="05.690679"><ele>18.3</ele><time>2021-04-03T15:05:26Z</time><name>PT233</name></trkpt>
<trkpt lat="52.045851" lon="05.690671"><ele>18.1</ele><time>2021-04-03T15:05:27Z</time><name>PT234</name></trkpt>
<trkpt lat="52.045855" lon="05.690642"><ele>17.8</ele><time>2021-04-03T15:05:28Z</time><name>PT235</name></trkpt>
<trkpt lat="52.045864" lon="05.690615"><ele>17.7</ele><time>2021-04-03T15:05:29Z</time><name>PT236</name></trkpt>
<trkpt lat="52.045874" lon="05.690595"><ele>17.7</ele><time>2021-04-03T15:05:31Z</time><name>PT237</name></trkpt>
<trkpt lat="52.045893" lon="05.690561"><ele>17.8</ele><time>2021-04-03T15:05:31Z</time><name>PT238</name></trkpt>
<trkpt lat="52.045905" lon="05.690531"><ele>17.7</ele><time>2021-04-03T15:05:32Z</time><name>PT239</name></trkpt>
<trkpt lat="52.045906" lon="05.690502"><ele>17.5</ele><time>2021-04-03T15:05:33Z</time><name>PT240</name></trkpt>
<trkpt lat="52.045916" lon="05.690471"><ele>17.7</ele><time>2021-04-03T15:05:34Z</time><name>PT241</name></trkpt>
<trkpt lat="52.045920" lon="05.690442"><ele>17.7</ele><time>2021-04-03T15:05:35Z</time><name>PT242</name></trkpt>
<trkpt lat="52.045927" lon="05.690391"><ele>17.7</ele><time>2021-04-03T15:05:36Z</time><name>PT243</name></trkpt>
<trkpt lat="52.045928" lon="05.690356"><ele>17.8</ele><time>2021-04-03T15:05:37Z</time><name>PT244</name></trkpt>
<trkpt lat="52.045931" lon="05.690319"><ele>17.6</ele><time>2021-04-03T15:05:38Z</time><name>PT245</name></trkpt>
<trkpt lat="52.045938" lon="05.690276"><ele>17.5</ele><time>2021-04-03T15:05:39Z</time><name>PT246</name></trkpt>
<trkpt lat="52.045954" lon="05.690230"><ele>17.5</ele><time>2021-04-03T15:05:40Z</time><name>PT247</name></trkpt>
<trkpt lat="52.045967" lon="05.690195"><ele>17.3</ele><time>2021-04-03T15:05:41Z</time><name>PT248</name></trkpt>
<trkpt lat="52.045972" lon="05.690164"><ele>17.1</ele><time>2021-04-03T15:05:42Z</time><name>PT249</name></trkpt>
<trkpt lat="52.045988" lon="05.690137"><ele>17.2</ele><time>2021-04-03T15:05:43Z</time><name>PT250</name></trkpt>
<trkpt lat="52.046004" lon="05.690113"><ele>16.9</ele><time>2021-04-03T15:05:44Z</time><name>PT251</name></trkpt>
<trkpt lat="52.046009" lon="05.690085"><ele>16.7</ele><time>2021-04-03T15:05:45Z</time><name>PT252</name></trkpt>
<trkpt lat="52.046025" lon="05.690049"><ele>16.5</ele><time>2021-04-03T15:05:46Z</time><name>PT253</name></trkpt>
<trkpt lat="52.046040" lon="05.690019"><ele>16.2</ele><time>2021-04-03T15:05:47Z</time><name>PT254</name></trkpt>
<trkpt lat="52.046057" lon="05.689995"><ele>15.9</ele><time>2021-04-03T15:05:48Z</time><name>PT255</name></trkpt>
<trkpt lat="52.046067" lon="05.689968"><ele>15.9</ele><time>2021-04-03T15:05:49Z</time><name>PT256</name></trkpt>
<trkpt lat="52.046077" lon="05.689942"><ele>15.9</ele><time>2021-04-03T15:05:50Z</time><name>PT257</name></trkpt>
<trkpt lat="52.046082" lon="05.689915"><ele>15.8</ele><time>2021-04-03T15:05:51Z</time><name>PT258</name></trkpt>
<trkpt lat="52.046090" lon="05.689884"><ele>15.8</ele><time>2021-04-03T15:05:52Z</time><name>PT259</name></trkpt>
<trkpt lat="52.046103" lon="05.689852"><ele>15.8</ele><time>2021-04-03T15:05:53Z</time><name>PT260</name></trkpt>
<trkpt lat="52.046113" lon="05.689830"><ele>15.6</ele><time>2021-04-03T15:05:54Z</time><name>PT261</name></trkpt>
<trkpt lat="52.046130" lon="05.689798"><ele>15.7</ele><time>2021-04-03T15:05:55Z</time><name>PT262</name></trkpt>
<trkpt lat="52.046129" lon="05.689770"><ele>15.8</ele><time>2021-04-03T15:05:56Z</time><name>PT263</name></trkpt>
<trkpt lat="52.046140" lon="05.689758"><ele>15.7</ele><time>2021-04-03T15:05:57Z</time><name>PT264</name></trkpt>
<trkpt lat="52.046146" lon="05.689745"><ele>15.9</ele><time>2021-04-03T15:05:58Z</time><name>PT265</name></trkpt>
<trkpt lat="52.046151" lon="05.689742"><ele>15.9</ele><time>2021-04-03T15:05:59Z</time><name>PT266</name></trkpt>
<trkpt lat="52.046156" lon="05.689737"><ele>15.9</ele><time>2021-04-03T15:06:00Z</time><name>PT267</name></trkpt>
<trkpt lat="52.046163" lon="05.689737"><ele>15.9</ele><time>2021-04-03T15:06:01Z</time><name>PT268</name></trkpt>
<trkpt lat="52.046178" lon="05.689740"><ele>16</ele><time>2021-04-03T15:06:02Z</time><name>PT269</name></trkpt>
<trkpt lat="52.046193" lon="05.689745"><ele>16.1</ele><time>2021-04-03T15:06:03Z</time><name>PT270</name></trkpt>
<trkpt lat="52.046211" lon="05.689737"><ele>16</ele><time>2021-04-03T15:06:04Z</time><name>PT271</name></trkpt>
<trkpt lat="52.046223" lon="05.689755"><ele>15.8</ele><time>2021-04-03T15:06:05Z</time><name>PT272</name></trkpt>
<trkpt lat="52.046227" lon="05.689770"><ele>15.8</ele><time>2021-04-03T15:06:06Z</time><name>PT273</name></trkpt>
<trkpt lat="52.046243" lon="05.689771"><ele>15.6</ele><time>2021-04-03T15:06:07Z</time><name>PT274</name></trkpt>
<trkpt lat="52.046261" lon="05.689783"><ele>15.5</ele><time>2021-04-03T15:06:08Z</time><name>PT275</name></trkpt>
<trkpt lat="52.046268" lon="05.689800"><ele>15.7</ele><time>2021-04-03T15:06:09Z</time><name>PT276</name></trkpt>
<trkpt lat="52.046276" lon="05.689824"><ele>15.8</ele><time>2021-04-03T15:06:10Z</time><name>PT277</name></trkpt>
<trkpt lat="52.046291" lon="05.689847"><ele>15.9</ele><time>2021-04-03T15:06:11Z</time><name>PT278</name></trkpt>
<trkpt lat="52.046291" lon="05.689881"><ele>16</ele><time>2021-04-03T15:06:12Z</time><name>PT279</name></trkpt>
<trkpt lat="52.046301" lon="05.689914"><ele>16</ele><time>2021-04-03T15:06:13Z</time><name>PT280</name></trkpt>
<trkpt lat="52.046309" lon="05.689934"><ele>16</ele><time>2021-04-03T15:06:14Z</time><name>PT281</name></trkpt>
<trkpt lat="52.046320" lon="05.689965"><ele>15.9</ele><time>2021-04-03T15:06:15Z</time><name>PT282</name></trkpt>
<trkpt lat="52.046347" lon="05.689986"><ele>15.9</ele><time>2021-04-03T15:06:16Z</time><name>PT283</name></trkpt>
<trkpt lat="52.046359" lon="05.690019"><ele>15.7</ele><time>2021-04-03T15:06:17Z</time><name>PT284</name></trkpt>
<trkpt lat="52.046375" lon="05.690053"><ele>15.7</ele><time>2021-04-03T15:06:18Z</time><name>PT285</name></trkpt>
<trkpt lat="52.046392" lon="05.690081"><ele>15.8</ele><time>2021-04-03T15:06:19Z</time><name>PT286</name></trkpt>
<trkpt lat="52.046399" lon="05.690113"><ele>15.8</ele><time>2021-04-03T15:06:20Z</time><name>PT287</name></trkpt>
<trkpt lat="52.046408" lon="05.690152"><ele>15.9</ele><time>2021-04-03T15:06:21Z</time><name>PT288</name></trkpt>
<trkpt lat="52.046421" lon="05.690185"><ele>15.9</ele><time>2021-04-03T15:06:22Z</time><name>PT289</name></trkpt>
<trkpt lat="52.046424" lon="05.690229"><ele>15.9</ele><time>2021-04-03T15:06:23Z</time><name>PT290</name></trkpt>
<trkpt lat="52.046430" lon="05.690269"><ele>16.1</ele><time>2021-04-03T15:06:24Z</time><name>PT291</name></trkpt>
<trkpt lat="52.046442" lon="05.690311"><ele>16.1</ele><time>2021-04-03T15:06:25Z</time><name>PT292</name></trkpt>
<trkpt lat="52.046448" lon="05.690347"><ele>16.2</ele><time>2021-04-03T15:06:26Z</time><name>PT293</name></trkpt>
<trkpt lat="52.046460" lon="05.690385"><ele>16.2</ele><time>2021-04-03T15:06:27Z</time><name>PT294</name></trkpt>
<trkpt lat="52.046462" lon="05.690425"><ele>16.3</ele><time>2021-04-03T15:06:28Z</time><name>PT295</name></trkpt>
<trkpt lat="52.046470" lon="05.690466"><ele>16.3</ele><time>2021-04-03T15:06:29Z</time><name>PT296</name></trkpt>
<trkpt lat="52.046471" lon="05.690511"><ele>16.1</ele><time>2021-04-03T15:06:30Z</time><name>PT297</name></trkpt>
<trkpt lat="52.046472" lon="05.690555"><ele>16.1</ele><time>2021-04-03T15:06:31Z</time><name>PT298</name></trkpt>
<trkpt lat="52.046470" lon="05.690589"><ele>15.9</ele><time>2021-04-03T15:06:32Z</time><name>PT299</name></trkpt>
<trkpt lat="52.046472" lon="05.690648"><ele>15.7</ele><time>2021-04-03T15:06:33Z</time><name>PT300</name></trkpt>
<trkpt lat="52.046476" lon="05.690704"><ele>15.7</ele><time>2021-04-03T15:06:34Z</time><name>PT301</name></trkpt>
<trkpt lat="52.046478" lon="05.690759"><ele>15.8</ele><time>2021-04-03T15:06:35Z</time><name>PT302</name></trkpt>
<trkpt lat="52.046472" lon="05.690799"><ele>15.9</ele><time>2021-04-03T15:06:36Z</time><name>PT303</name></trkpt>
<trkpt lat="52.046475" lon="05.690840"><ele>16</ele><time>2021-04-03T15:06:37Z</time><name>PT304</name></trkpt>
<trkpt lat="52.046485" lon="05.690887"><ele>16.1</ele><time>2021-04-03T15:06:38Z</time><name>PT305</name></trkpt>
<trkpt lat="52.046480" lon="05.690932"><ele>16</ele><time>2021-04-03T15:06:39Z</time><name>PT306</name></trkpt>
<trkpt lat="52.046478" lon="05.690970"><ele>16</ele><time>2021-04-03T15:06:40Z</time><name>PT307</name></trkpt>
<trkpt lat="52.046493" lon="05.691014"><ele>16</ele><time>2021-04-03T15:06:41Z</time><name>PT308</name></trkpt>
<trkpt lat="52.046506" lon="05.691056"><ele>16</ele><time>2021-04-03T15:06:42Z</time><name>PT309</name></trkpt>
<trkpt lat="52.046503" lon="05.691112"><ele>16.1</ele><time>2021-04-03T15:06:43Z</time><name>PT310</name></trkpt>
<trkpt lat="52.046511" lon="05.691155"><ele>16</ele><time>2021-04-03T15:06:44Z</time><name>PT311</name></trkpt>
<trkpt lat="52.046514" lon="05.691202"><ele>16</ele><time>2021-04-03T15:06:45Z</time><name>PT312</name></trkpt>
<trkpt lat="52.046515" lon="05.691248"><ele>16</ele><time>2021-04-03T15:06:46Z</time><name>PT313</name></trkpt>
<trkpt lat="52.046522" lon="05.691292"><ele>15.9</ele><time>2021-04-03T15:06:47Z</time><name>PT314</name></trkpt>
<trkpt lat="52.046514" lon="05.691333"><ele>15.9</ele><time>2021-04-03T15:06:48Z</time><name>PT315</name></trkpt>
<trkpt lat="52.046519" lon="05.691372"><ele>16.1</ele><time>2021-04-03T15:06:49Z</time><name>PT316</name></trkpt>
<trkpt lat="52.046522" lon="05.691406"><ele>16</ele><time>2021-04-03T15:06:50Z</time><name>PT317</name></trkpt>
<trkpt lat="52.046528" lon="05.691428"><ele>16</ele><time>2021-04-03T15:06:51Z</time><name>PT318</name></trkpt>
<trkpt lat="52.046540" lon="05.691437"><ele>15.9</ele><time>2021-04-03T15:06:52Z</time><name>PT319</name></trkpt>
<trkpt lat="52.046550" lon="05.691475"><ele>15.8</ele><time>2021-04-03T15:06:53Z</time><name>PT320</name></trkpt>
<trkpt lat="52.046567" lon="05.691496"><ele>15.6</ele><time>2021-04-03T15:06:54Z</time><name>PT321</name></trkpt>
<trkpt lat="52.046585" lon="05.691528"><ele>15.7</ele><time>2021-04-03T15:06:55Z</time><name>PT322</name></trkpt>
<trkpt lat="52.046605" lon="05.691559"><ele>15.7</ele><time>2021-04-03T15:06:56Z</time><name>PT323</name></trkpt>
<trkpt lat="52.046622" lon="05.691572"><ele>15.6</ele><time>2021-04-03T15:06:57Z</time><name>PT324</name></trkpt>
<trkpt lat="52.046649" lon="05.691603"><ele>15.9</ele><time>2021-04-03T15:06:58Z</time><name>PT325</name></trkpt>
<trkpt lat="52.046663" lon="05.691618"><ele>15.9</ele><time>2021-04-03T15:06:59Z</time><name>PT326</name></trkpt>
<trkpt lat="52.046685" lon="05.691646"><ele>15.9</ele><time>2021-04-03T15:07:00Z</time><name>PT327</name></trkpt>
<trkpt lat="52.046700" lon="05.691661"><ele>15.9</ele><time>2021-04-03T15:07:01Z</time><name>PT328</name></trkpt>
<trkpt lat="52.046723" lon="05.691672"><ele>15.9</ele><time>2021-04-03T15:07:02Z</time><name>PT329</name></trkpt>
<trkpt lat="52.046740" lon="05.691704"><ele>15.6</ele><time>2021-04-03T15:07:03Z</time><name>PT330</name></trkpt>
<trkpt lat="52.046763" lon="05.691738"><ele>15.5</ele><time>2021-04-03T15:07:04Z</time><name>PT331</name></trkpt>
<trkpt lat="52.046785" lon="05.691766"><ele>15.8</ele><time>2021-04-03T15:07:05Z</time><name>PT332</name></trkpt>
<trkpt lat="52.046804" lon="05.691820"><ele>16</ele><time>2021-04-03T15:07:06Z</time><name>PT333</name></trkpt>
<trkpt lat="52.046826" lon="05.691842"><ele>16.3</ele><time>2021-04-03T15:07:07Z</time><name>PT334</name></trkpt>
<trkpt lat="52.046845" lon="05.691865"><ele>16.4</ele><time>2021-04-03T15:07:08Z</time><name>PT335</name></trkpt>
<trkpt lat="52.046858" lon="05.691886"><ele>16.5</ele><time>2021-04-03T15:07:09Z</time><name>PT336</name></trkpt>
<trkpt lat="52.046870" lon="05.691909"><ele>16.6</ele><time>2021-04-03T15:07:10Z</time><name>PT337</name></trkpt>
<trkpt lat="52.046884" lon="05.691934"><ele>16.7</ele><time>2021-04-03T15:07:11Z</time><name>PT338</name></trkpt>
<trkpt lat="52.046903" lon="05.691944"><ele>16.5</ele><time>2021-04-03T15:07:12Z</time><name>PT339</name></trkpt>
<trkpt lat="52.046921" lon="05.691956"><ele>16.7</ele><time>2021-04-03T15:07:13Z</time><name>PT340</name></trkpt>
<trkpt lat="52.046939" lon="05.691966"><ele>16.4</ele><time>2021-04-03T15:07:14Z</time><name>PT341</name></trkpt>
<trkpt lat="52.046958" lon="05.691970"><ele>16.3</ele><time>2021-04-03T15:07:15Z</time><name>PT342</name></trkpt>
<trkpt lat="52.046970" lon="05.691984"><ele>16.3</ele><time>2021-04-03T15:07:16Z</time><name>PT343</name></trkpt>
<trkpt lat="52.046989" lon="05.692008"><ele>16.4</ele><time>2021-04-03T15:07:17Z</time><name>PT344</name></trkpt>
<trkpt lat="52.047004" lon="05.692022"><ele>16.4</ele><time>2021-04-03T15:07:18Z</time><name>PT345</name></trkpt>
<trkpt lat="52.047021" lon="05.692035"><ele>16.4</ele><time>2021-04-03T15:07:19Z</time><name>PT346</name></trkpt>
<trkpt lat="52.047036" lon="05.692044"><ele>16.8</ele><time>2021-04-03T15:07:20Z</time><name>PT347</name></trkpt>
<trkpt lat="52.047058" lon="05.692057"><ele>17</ele><time>2021-04-03T15:07:21Z</time><name>PT348</name></trkpt>
<trkpt lat="52.047076" lon="05.692054"><ele>17.3</ele><time>2021-04-03T15:07:22Z</time><name>PT349</name></trkpt>
<trkpt lat="52.047090" lon="05.692060"><ele>17.3</ele><time>2021-04-03T15:07:23Z</time><name>PT350</name></trkpt>
<trkpt lat="52.047102" lon="05.692067"><ele>17.3</ele><time>2021-04-03T15:07:24Z</time><name>PT351</name></trkpt>
<trkpt lat="52.047123" lon="05.692067"><ele>17.5</ele><time>2021-04-03T15:07:25Z</time><name>PT352</name></trkpt>
<trkpt lat="52.047141" lon="05.692068"><ele>17.4</ele><time>2021-04-03T15:07:26Z</time><name>PT353</name></trkpt>
<trkpt lat="52.047153" lon="05.692074"><ele>17.6</ele><time>2021-04-03T15:07:27Z</time><name>PT354</name></trkpt>
<trkpt lat="52.047172" lon="05.692076"><ele>17.6</ele><time>2021-04-03T15:07:28Z</time><name>PT355</name></trkpt>
<trkpt lat="52.047191" lon="05.692087"><ele>17.6</ele><time>2021-04-03T15:07:29Z</time><name>PT356</name></trkpt>
<trkpt lat="52.047206" lon="05.692098"><ele>17.8</ele><time>2021-04-03T15:07:30Z</time><name>PT357</name></trkpt>
<trkpt lat="52.047216" lon="05.692132"><ele>17.8</ele><time>2021-04-03T15:07:31Z</time><name>PT358</name></trkpt>
<trkpt lat="52.047231" lon="05.692157"><ele>17.7</ele><time>2021-04-03T15:07:32Z</time><name>PT359</name></trkpt>
<trkpt lat="52.047242" lon="05.692178"><ele>17.8</ele><time>2021-04-03T15:07:33Z</time><name>PT360</name></trkpt>
<trkpt lat="52.047257" lon="05.692191"><ele>17.7</ele><time>2021-04-03T15:07:34Z</time><name>PT361</name></trkpt>
<trkpt lat="52.047274" lon="05.692202"><ele>17.6</ele><time>2021-04-03T15:07:35Z</time><name>PT362</name></trkpt>
<trkpt lat="52.047289" lon="05.692210"><ele>17.7</ele><time>2021-04-03T15:07:36Z</time><name>PT363</name></trkpt>
<trkpt lat="52.047305" lon="05.692211"><ele>17.8</ele><time>2021-04-03T15:07:37Z</time><name>PT364</name></trkpt>
<trkpt lat="52.047324" lon="05.692211"><ele>17.8</ele><time>2021-04-03T15:07:38Z</time><name>PT365</name></trkpt>
<trkpt lat="52.047337" lon="05.692216"><ele>17.8</ele><time>2021-04-03T15:07:39Z</time><name>PT366</name></trkpt>
<trkpt lat="52.047341" lon="05.692225"><ele>18.1</ele><time>2021-04-03T15:07:40Z</time><name>PT367</name></trkpt>
<trkpt lat="52.047352" lon="05.692239"><ele>18.2</ele><time>2021-04-03T15:07:41Z</time><name>PT368</name></trkpt>
<trkpt lat="52.047358" lon="05.692251"><ele>18.2</ele><time>2021-04-03T15:07:42Z</time><name>PT369</name></trkpt>
<trkpt lat="52.047374" lon="05.692265"><ele>18.2</ele><time>2021-04-03T15:07:43Z</time><name>PT370</name></trkpt>
<trkpt lat="52.047389" lon="05.692270"><ele>18.1</ele><time>2021-04-03T15:07:44Z</time><name>PT371</name></trkpt>
<trkpt lat="52.047391" lon="05.692283"><ele>17.9</ele><time>2021-04-03T15:07:45Z</time><name>PT372</name></trkpt>
<trkpt lat="52.047401" lon="05.692294"><ele>17.8</ele><time>2021-04-03T15:07:46Z</time><name>PT373</name></trkpt>
<trkpt lat="52.047411" lon="05.692300"><ele>17.8</ele><time>2021-04-03T15:07:47Z</time><name>PT374</name></trkpt>
<trkpt lat="52.047423" lon="05.692308"><ele>18.1</ele><time>2021-04-03T15:07:48Z</time><name>PT375</name></trkpt>
<trkpt lat="52.047431" lon="05.692314"><ele>18.2</ele><time>2021-04-03T15:07:49Z</time><name>PT376</name></trkpt>
<trkpt lat="52.047447" lon="05.692321"><ele>18.5</ele><time>2021-04-03T15:07:50Z</time><name>PT377</name></trkpt>
<trkpt lat="52.047458" lon="05.692326"><ele>18.6</ele><time>2021-04-03T15:07:51Z</time><name>PT378</name></trkpt>
<trkpt lat="52.047473" lon="05.692337"><ele>18.5</ele><time>2021-04-03T15:07:52Z</time><name>PT379</name></trkpt>
<trkpt lat="52.047481" lon="05.692351"><ele>18.4</ele><time>2021-04-03T15:07:53Z</time><name>PT380</name></trkpt>
<trkpt lat="52.047502" lon="05.692357"><ele>18.4</ele><time>2021-04-03T15:07:54Z</time><name>PT381</name></trkpt>
<trkpt lat="52.047516" lon="05.692356"><ele>18.4</ele><time>2021-04-03T15:07:55Z</time><name>PT382</name></trkpt>
<trkpt lat="52.047534" lon="05.692365"><ele>18.7</ele><time>2021-04-03T15:07:56Z</time><name>PT383</name></trkpt>
<trkpt lat="52.047553" lon="05.692388"><ele>19</ele><time>2021-04-03T15:07:57Z</time><name>PT384</name></trkpt>
<trkpt lat="52.047573" lon="05.692402"><ele>19</ele><time>2021-04-03T15:07:58Z</time><name>PT385</name></trkpt>
<trkpt lat="52.047583" lon="05.692411"><ele>19.2</ele><time>2021-04-03T15:07:59Z</time><name>PT386</name></trkpt>
<trkpt lat="52.047594" lon="05.692428"><ele>19.2</ele><time>2021-04-03T15:08:00Z</time><name>PT387</name></trkpt>
<trkpt lat="52.047613" lon="05.692437"><ele>19</ele><time>2021-04-03T15:08:01Z</time><name>PT388</name></trkpt>
<trkpt lat="52.047632" lon="05.692456"><ele>19</ele><time>2021-04-03T15:08:02Z</time><name>PT389</name></trkpt>
<trkpt lat="52.047652" lon="05.692480"><ele>18.8</ele><time>2021-04-03T15:08:03Z</time><name>PT390</name></trkpt>
<trkpt lat="52.047665" lon="05.692502"><ele>18.7</ele><time>2021-04-03T15:08:04Z</time><name>PT391</name></trkpt>
<trkpt lat="52.047681" lon="05.692514"><ele>18.8</ele><time>2021-04-03T15:08:05Z</time><name>PT392</name></trkpt>
<trkpt lat="52.047692" lon="05.692536"><ele>18.9</ele><time>2021-04-03T15:08:06Z</time><name>PT393</name></trkpt>
<trkpt lat="52.047710" lon="05.692549"><ele>18.9</ele><time>2021-04-03T15:08:07Z</time><name>PT394</name></trkpt>
<trkpt lat="52.047724" lon="05.692569"><ele>19</ele><time>2021-04-03T15:08:08Z</time><name>PT395</name></trkpt>
<trkpt lat="52.047729" lon="05.692585"><ele>19</ele><time>2021-04-03T15:08:09Z</time><name>PT396</name></trkpt>
<trkpt lat="52.047739" lon="05.692613"><ele>18.9</ele><time>2021-04-03T15:08:10Z</time><name>PT397</name></trkpt>
<trkpt lat="52.047742" lon="05.692650"><ele>19.1</ele><time>2021-04-03T15:08:11Z</time><name>PT398</name></trkpt>
<trkpt lat="52.047737" lon="05.692681"><ele>19.2</ele><time>2021-04-03T15:08:12Z</time><name>PT399</name></trkpt>
<trkpt lat="52.047731" lon="05.692719"><ele>19.2</ele><time>2021-04-03T15:08:13Z</time><name>PT400</name></trkpt>
<trkpt lat="52.047734" lon="05.692745"><ele>19.2</ele><time>2021-04-03T15:08:14Z</time><name>PT401</name></trkpt>
<trkpt lat="52.047726" lon="05.692767"><ele>19.2</ele><time>2021-04-03T15:08:15Z</time><name>PT402</name></trkpt>
<trkpt lat="52.047719" lon="05.692791"><ele>19.3</ele><time>2021-04-03T15:08:16Z</time><name>PT403</name></trkpt>
<trkpt lat="52.047718" lon="05.692823"><ele>19.3</ele><time>2021-04-03T15:08:17Z</time><name>PT404</name></trkpt>
<trkpt lat="52.047721" lon="05.692854"><ele>19.2</ele><time>2021-04-03T15:08:18Z</time><name>PT405</name></trkpt>
<trkpt lat="52.047726" lon="05.692882"><ele>19.4</ele><time>2021-04-03T15:08:19Z</time><name>PT406</name></trkpt>
<trkpt lat="52.047724" lon="05.692906"><ele>19.4</ele><time>2021-04-03T15:08:20Z</time><name>PT407</name></trkpt>
<trkpt lat="52.047725" lon="05.692948"><ele>19.4</ele><time>2021-04-03T15:08:21Z</time><name>PT408</name></trkpt>
<trkpt lat="52.047727" lon="05.692991"><ele>19.2</ele><time>2021-04-03T15:08:22Z</time><name>PT409</name></trkpt>
<trkpt lat="52.047729" lon="05.693016"><ele>19.1</ele><time>2021-04-03T15:08:23Z</time><name>PT410</name></trkpt>
<trkpt lat="52.047733" lon="05.693062"><ele>19</ele><time>2021-04-03T15:08:24Z</time><name>PT411</name></trkpt>
<trkpt lat="52.047737" lon="05.693094"><ele>19</ele><time>2021-04-03T15:08:25Z</time><name>PT412</name></trkpt>
<trkpt lat="52.047738" lon="05.693123"><ele>18.9</ele><time>2021-04-03T15:08:26Z</time><name>PT413</name></trkpt>
<trkpt lat="52.047746" lon="05.693138"><ele>19.2</ele><time>2021-04-03T15:08:27Z</time><name>PT414</name></trkpt>
<trkpt lat="52.047752" lon="05.693172"><ele>19.2</ele><time>2021-04-03T15:08:28Z</time><name>PT415</name></trkpt>
<trkpt lat="52.047756" lon="05.693187"><ele>19.4</ele><time>2021-04-03T15:08:29Z</time><name>PT416</name></trkpt>
<trkpt lat="52.047765" lon="05.693215"><ele>19.7</ele><time>2021-04-03T15:08:30Z</time><name>PT417</name></trkpt>
<trkpt lat="52.047769" lon="05.693249"><ele>19.8</ele><time>2021-04-03T15:08:31Z</time><name>PT418</name></trkpt>
<trkpt lat="52.047770" lon="05.693289"><ele>20</ele><time>2021-04-03T15:08:32Z</time><name>PT419</name></trkpt>
<trkpt lat="52.047778" lon="05.693330"><ele>19.8</ele><time>2021-04-03T15:08:33Z</time><name>PT420</name></trkpt>
<trkpt lat="52.047777" lon="05.693378"><ele>19.7</ele><time>2021-04-03T15:08:34Z</time><name>PT421</name></trkpt>
<trkpt lat="52.047785" lon="05.693419"><ele>19.7</ele><time>2021-04-03T15:08:35Z</time><name>PT422</name></trkpt>
<trkpt lat="52.047795" lon="05.693459"><ele>19.5</ele><time>2021-04-03T15:08:36Z</time><name>PT423</name></trkpt>
<trkpt lat="52.047811" lon="05.693499"><ele>19.5</ele><time>2021-04-03T15:08:37Z</time><name>PT424</name></trkpt>
<trkpt lat="52.047822" lon="05.693538"><ele>19.5</ele><time>2021-04-03T15:08:38Z</time><name>PT425</name></trkpt>
<trkpt lat="52.047835" lon="05.693572"><ele>19.6</ele><time>2021-04-03T15:08:39Z</time><name>PT426</name></trkpt>
<trkpt lat="52.047847" lon="05.693618"><ele>19.6</ele><time>2021-04-03T15:08:40Z</time><name>PT427</name></trkpt>
<trkpt lat="52.047857" lon="05.693652"><ele>19.7</ele><time>2021-04-03T15:08:41Z</time><name>PT428</name></trkpt>
<trkpt lat="52.047866" lon="05.693671"><ele>19.8</ele><time>2021-04-03T15:08:42Z</time><name>PT429</name></trkpt>
<trkpt lat="52.047882" lon="05.693702"><ele>19.9</ele><time>2021-04-03T15:08:43Z</time><name>PT430</name></trkpt>
<trkpt lat="52.047896" lon="05.693730"><ele>19.9</ele><time>2021-04-03T15:08:44Z</time><name>PT431</name></trkpt>
<trkpt lat="52.047904" lon="05.693752"><ele>20.1</ele><time>2021-04-03T15:08:45Z</time><name>PT432</name></trkpt>
<trkpt lat="52.047918" lon="05.693762"><ele>20.2</ele><time>2021-04-03T15:08:46Z</time><name>PT433</name></trkpt>
<trkpt lat="52.047937" lon="05.693785"><ele>20.2</ele><time>2021-04-03T15:08:47Z</time><name>PT434</name></trkpt>
<trkpt lat="52.047955" lon="05.693807"><ele>20.2</ele><time>2021-04-03T15:08:48Z</time><name>PT435</name></trkpt>
<trkpt lat="52.047976" lon="05.693819"><ele>20.2</ele><time>2021-04-03T15:08:49Z</time><name>PT436</name></trkpt>
<trkpt lat="52.047991" lon="05.693841"><ele>20</ele><time>2021-04-03T15:08:50Z</time><name>PT437</name></trkpt>
<trkpt lat="52.048008" lon="05.693862"><ele>20.1</ele><time>2021-04-03T15:08:51Z</time><name>PT438</name></trkpt>
<trkpt lat="52.048013" lon="05.693888"><ele>20.1</ele><time>2021-04-03T15:08:52Z</time><name>PT439</name></trkpt>
<trkpt lat="52.048029" lon="05.693914"><ele>20.2</ele><time>2021-04-03T15:08:53Z</time><name>PT440</name></trkpt>
<trkpt lat="52.048053" lon="05.693930"><ele>20.4</ele><time>2021-04-03T15:08:54Z</time><name>PT441</name></trkpt>
<trkpt lat="52.048073" lon="05.693947"><ele>20.6</ele><time>2021-04-03T15:08:55Z</time><name>PT442</name></trkpt>
<trkpt lat="52.048087" lon="05.693966"><ele>20.5</ele><time>2021-04-03T15:08:56Z</time><name>PT443</name></trkpt>
<trkpt lat="52.048110" lon="05.693975"><ele>20.5</ele><time>2021-04-03T15:08:57Z</time><name>PT444</name></trkpt>
<trkpt lat="52.048130" lon="05.693998"><ele>20.5</ele><time>2021-04-03T15:08:58Z</time><name>PT445</name></trkpt>
<trkpt lat="52.048150" lon="05.694020"><ele>20.5</ele><time>2021-04-03T15:08:59Z</time><name>PT446</name></trkpt>
<trkpt lat="52.048165" lon="05.694034"><ele>20.4</ele><time>2021-04-03T15:09:00Z</time><name>PT447</name></trkpt>
<trkpt lat="52.048183" lon="05.694043"><ele>20.5</ele><time>2021-04-03T15:09:01Z</time><name>PT448</name></trkpt>
<trkpt lat="52.048210" lon="05.694045"><ele>20.6</ele><time>2021-04-03T15:09:02Z</time><name>PT449</name></trkpt>
<trkpt lat="52.048234" lon="05.694049"><ele>20.5</ele><time>2021-04-03T15:09:03Z</time><name>PT450</name></trkpt>
<trkpt lat="52.048257" lon="05.694071"><ele>20.8</ele><time>2021-04-03T15:09:04Z</time><name>PT451</name></trkpt>
<trkpt lat="52.048280" lon="05.694084"><ele>21</ele><time>2021-04-03T15:09:05Z</time><name>PT452</name></trkpt>
<trkpt lat="52.048300" lon="05.694094"><ele>21</ele><time>2021-04-03T15:09:06Z</time><name>PT453</name></trkpt>
<trkpt lat="52.048322" lon="05.694108"><ele>21</ele><time>2021-04-03T15:09:07Z</time><name>PT454</name></trkpt>
<trkpt lat="52.048345" lon="05.694116"><ele>21</ele><time>2021-04-03T15:09:08Z</time><name>PT455</name></trkpt>
<trkpt lat="52.048366" lon="05.694114"><ele>21</ele><time>2021-04-03T15:09:09Z</time><name>PT456</name></trkpt>
<trkpt lat="52.048392" lon="05.694115"><ele>21.2</ele><time>2021-04-03T15:09:10Z</time><name>PT457</name></trkpt>
<trkpt lat="52.048416" lon="05.694120"><ele>21.1</ele><time>2021-04-03T15:09:11Z</time><name>PT458</name></trkpt>
<trkpt lat="52.048435" lon="05.694130"><ele>21.1</ele><time>2021-04-03T15:09:12Z</time><name>PT459</name></trkpt>
<trkpt lat="52.048451" lon="05.694133"><ele>21</ele><time>2021-04-03T15:09:13Z</time><name>PT460</name></trkpt>
<trkpt lat="52.048474" lon="05.694137"><ele>21</ele><time>2021-04-03T15:09:14Z</time><name>PT461</name></trkpt>
<trkpt lat="52.048493" lon="05.694132"><ele>21</ele><time>2021-04-03T15:09:15Z</time><name>PT462</name></trkpt>
<trkpt lat="52.048510" lon="05.694131"><ele>21.2</ele><time>2021-04-03T15:09:16Z</time><name>PT463</name></trkpt>
<trkpt lat="52.048511" lon="05.694138"><ele>21.5</ele><time>2021-04-03T15:09:17Z</time><name>PT464</name></trkpt>
<trkpt lat="52.048521" lon="05.694125"><ele>21.9</ele><time>2021-04-03T15:09:18Z</time><name>PT465</name></trkpt>
<trkpt lat="52.048526" lon="05.694114"><ele>22.1</ele><time>2021-04-03T15:09:19Z</time><name>PT466</name></trkpt>
<trkpt lat="52.048541" lon="05.694106"><ele>22.2</ele><time>2021-04-03T15:09:20Z</time><name>PT467</name></trkpt>
<trkpt lat="52.048556" lon="05.694101"><ele>22.2</ele><time>2021-04-03T15:09:21Z</time><name>PT468</name></trkpt>
<trkpt lat="52.048567" lon="05.694095"><ele>22.1</ele><time>2021-04-03T15:09:22Z</time><name>PT469</name></trkpt>
<trkpt lat="52.048583" lon="05.694084"><ele>22.1</ele><time>2021-04-03T15:09:23Z</time><name>PT470</name></trkpt>
<trkpt lat="52.048601" lon="05.694080"><ele>22.3</ele><time>2021-04-03T15:09:24Z</time><name>PT471</name></trkpt>
<trkpt lat="52.048614" lon="05.694064"><ele>22.4</ele><time>2021-04-03T15:09:25Z</time><name>PT472</name></trkpt>
<trkpt lat="52.048629" lon="05.694065"><ele>22.5</ele><time>2021-04-03T15:09:26Z</time><name>PT473</name></trkpt>
<trkpt lat="52.048638" lon="05.694057"><ele>22.5</ele><time>2021-04-03T15:09:27Z</time><name>PT474</name></trkpt>
<trkpt lat="52.048660" lon="05.694044"><ele>22.7</ele><time>2021-04-03T15:09:28Z</time><name>PT475</name></trkpt>
<trkpt lat="52.048677" lon="05.694040"><ele>22.7</ele><time>2021-04-03T15:09:29Z</time><name>PT476</name></trkpt>
<trkpt lat="52.048691" lon="05.694034"><ele>22.8</ele><time>2021-04-03T15:09:30Z</time><name>PT477</name></trkpt>
<trkpt lat="52.048705" lon="05.694026"><ele>23</ele><time>2021-04-03T15:09:31Z</time><name>PT478</name></trkpt>
<trkpt lat="52.048718" lon="05.694028"><ele>22.9</ele><time>2021-04-03T15:09:32Z</time><name>PT479</name></trkpt>
<trkpt lat="52.048721" lon="05.694031"><ele>23</ele><time>2021-04-03T15:09:33Z</time><name>PT480</name></trkpt>
<trkpt lat="52.048730" lon="05.694022"><ele>23</ele><time>2021-04-03T15:09:34Z</time><name>PT481</name></trkpt>
<trkpt lat="52.048748" lon="05.694022"><ele>23</ele><time>2021-04-03T15:09:35Z</time><name>PT482</name></trkpt>
<trkpt lat="52.048758" lon="05.694028"><ele>23</ele><time>2021-04-03T15:09:36Z</time><name>PT483</name></trkpt>
<trkpt lat="52.048772" lon="05.694020"><ele>23</ele><time>2021-04-03T15:09:37Z</time><name>PT484</name></trkpt>
<trkpt lat="52.048793" lon="05.694016"><ele>22.9</ele><time>2021-04-03T15:09:38Z</time><name>PT485</name></trkpt>
<trkpt lat="52.048810" lon="05.694005"><ele>22.9</ele><time>2021-04-03T15:09:39Z</time><name>PT486</name></trkpt>
<trkpt lat="52.048822" lon="05.693993"><ele>22.8</ele><time>2021-04-03T15:09:40Z</time><name>PT487</name></trkpt>
<trkpt lat="52.048835" lon="05.693982"><ele>22.8</ele><time>2021-04-03T15:09:41Z</time><name>PT488</name></trkpt>
<trkpt lat="52.048844" lon="05.693973"><ele>22.8</ele><time>2021-04-03T15:09:42Z</time><name>PT489</name></trkpt>
<trkpt lat="52.048853" lon="05.693953"><ele>22.8</ele><time>2021-04-03T15:09:43Z</time><name>PT490</name></trkpt>
<trkpt lat="52.048868" lon="05.693941"><ele>22.8</ele><time>2021-04-03T15:09:44Z</time><name>PT491</name></trkpt>
<trkpt lat="52.048880" lon="05.693917"><ele>22.6</ele><time>2021-04-03T15:09:45Z</time><name>PT492</name></trkpt>
<trkpt lat="52.048898" lon="05.693901"><ele>22.6</ele><time>2021-04-03T15:09:46Z</time><name>PT493</name></trkpt>
<trkpt lat="52.048919" lon="05.693880"><ele>22.6</ele><time>2021-04-03T15:09:47Z</time><name>PT494</name></trkpt>
<trkpt lat="52.048934" lon="05.693866"><ele>22.6</ele><time>2021-04-03T15:09:48Z</time><name>PT495</name></trkpt>
<trkpt lat="52.048940" lon="05.693844"><ele>22.7</ele><time>2021-04-03T15:09:49Z</time><name>PT496</name></trkpt>
<trkpt lat="52.048942" lon="05.693818"><ele>22.7</ele><time>2021-04-03T15:09:50Z</time><name>PT497</name></trkpt>
<trkpt lat="52.048962" lon="05.693791"><ele>22.6</ele><time>2021-04-03T15:09:51Z</time><name>PT498</name></trkpt>
<trkpt lat="52.048991" lon="05.693768"><ele>22.4</ele><time>2021-04-03T15:09:52Z</time><name>PT499</name></trkpt>
<trkpt lat="52.049010" lon="05.693751"><ele>22.4</ele><time>2021-04-03T15:09:53Z</time><name>PT500</name></trkpt>
<trkpt lat="52.049028" lon="05.693732"><ele>22.5</ele><time>2021-04-03T15:09:54Z</time><name>PT501</name></trkpt>
<trkpt lat="52.049049" lon="05.693719"><ele>22.4</ele><time>2021-04-03T15:09:55Z</time><name>PT502</name></trkpt>
<trkpt lat="52.049068" lon="05.693696"><ele>22.3</ele><time>2021-04-03T15:09:56Z</time><name>PT503</name></trkpt>
<trkpt lat="52.049092" lon="05.693672"><ele>21.8</ele><time>2021-04-03T15:09:57Z</time><name>PT504</name></trkpt>
<trkpt lat="52.049105" lon="05.693636"><ele>21.8</ele><time>2021-04-03T15:09:58Z</time><name>PT505</name></trkpt>
<trkpt lat="52.049122" lon="05.693617"><ele>21.5</ele><time>2021-04-03T15:09:59Z</time><name>PT506</name></trkpt>
<trkpt lat="52.049147" lon="05.693595"><ele>21.7</ele><time>2021-04-03T15:10:00Z</time><name>PT507</name></trkpt>
<trkpt lat="52.049168" lon="05.693572"><ele>21.8</ele><time>2021-04-03T15:10:01Z</time><name>PT508</name></trkpt>
<trkpt lat="52.049190" lon="05.693535"><ele>21.8</ele><time>2021-04-03T15:10:02Z</time><name>PT509</name></trkpt>
<trkpt lat="52.049210" lon="05.693503"><ele>21.7</ele><time>2021-04-03T15:10:03Z</time><name>PT510</name></trkpt>
<trkpt lat="52.049221" lon="05.693479"><ele>21.6</ele><time>2021-04-03T15:10:04Z</time><name>PT511</name></trkpt>
<trkpt lat="52.049236" lon="05.693445"><ele>21.6</ele><time>2021-04-03T15:10:05Z</time><name>PT512</name></trkpt>
<trkpt lat="52.049250" lon="05.693412"><ele>21.5</ele><time>2021-04-03T15:10:06Z</time><name>PT513</name></trkpt>
<trkpt lat="52.049271" lon="05.693380"><ele>21.3</ele><time>2021-04-03T15:10:07Z</time><name>PT514</name></trkpt>
<trkpt lat="52.049286" lon="05.693354"><ele>21.3</ele><time>2021-04-03T15:10:08Z</time><name>PT515</name></trkpt>
<trkpt lat="52.049293" lon="05.693312"><ele>21.3</ele><time>2021-04-03T15:10:09Z</time><name>PT516</name></trkpt>
<trkpt lat="52.049311" lon="05.693284"><ele>21.2</ele><time>2021-04-03T15:10:10Z</time><name>PT517</name></trkpt>
<trkpt lat="52.049333" lon="05.693264"><ele>21.2</ele><time>2021-04-03T15:10:11Z</time><name>PT518</name></trkpt>
<trkpt lat="52.049345" lon="05.693228"><ele>21.1</ele><time>2021-04-03T15:10:12Z</time><name>PT519</name></trkpt>
<trkpt lat="52.049358" lon="05.693193"><ele>21.1</ele><time>2021-04-03T15:10:13Z</time><name>PT520</name></trkpt>
<trkpt lat="52.049375" lon="05.693159"><ele>21.3</ele><time>2021-04-03T15:10:14Z</time><name>PT521</name></trkpt>
<trkpt lat="52.049383" lon="05.693120"><ele>21.3</ele><time>2021-04-03T15:10:15Z</time><name>PT522</name></trkpt>
<trkpt lat="52.049403" lon="05.693083"><ele>21.4</ele><time>2021-04-03T15:10:16Z</time><name>PT523</name></trkpt>
<trkpt lat="52.049415" lon="05.693045"><ele>21.3</ele><time>2021-04-03T15:10:17Z</time><name>PT524</name></trkpt>
<trkpt lat="52.049426" lon="05.693021"><ele>21.2</ele><time>2021-04-03T15:10:18Z</time><name>PT525</name></trkpt>
<trkpt lat="52.049433" lon="05.692993"><ele>21</ele><time>2021-04-03T15:10:19Z</time><name>PT526</name></trkpt>
<trkpt lat="52.049450" lon="05.692964"><ele>21</ele><time>2021-04-03T15:10:20Z</time><name>PT527</name></trkpt>
<trkpt lat="52.049461" lon="05.692931"><ele>21</ele><time>2021-04-03T15:10:21Z</time><name>PT528</name></trkpt>
<trkpt lat="52.049472" lon="05.692896"><ele>21</ele><time>2021-04-03T15:10:22Z</time><name>PT529</name></trkpt>
<trkpt lat="52.049475" lon="05.692860"><ele>21.1</ele><time>2021-04-03T15:10:23Z</time><name>PT530</name></trkpt>
<trkpt lat="52.049485" lon="05.692832"><ele>21.4</ele><time>2021-04-03T15:10:24Z</time><name>PT531</name></trkpt>
<trkpt lat="52.049493" lon="05.692795"><ele>21.5</ele><time>2021-04-03T15:10:25Z</time><name>PT532</name></trkpt>
<trkpt lat="52.049497" lon="05.692762"><ele>21.4</ele><time>2021-04-03T15:10:26Z</time><name>PT533</name></trkpt>
<trkpt lat="52.049507" lon="05.692728"><ele>21.5</ele><time>2021-04-03T15:10:27Z</time><name>PT534</name></trkpt>
<trkpt lat="52.049512" lon="05.692694"><ele>21.5</ele><time>2021-04-03T15:10:28Z</time><name>PT535</name></trkpt>
<trkpt lat="52.049524" lon="05.692665"><ele>21.5</ele><time>2021-04-03T15:10:29Z</time><name>PT536</name></trkpt>
<trkpt lat="52.049527" lon="05.692629"><ele>21.6</ele><time>2021-04-03T15:10:30Z</time><name>PT537</name></trkpt>
<trkpt lat="52.049529" lon="05.692593"><ele>21.6</ele><time>2021-04-03T15:10:31Z</time><name>PT538</name></trkpt>
<trkpt lat="52.049538" lon="05.692564"><ele>21.5</ele><time>2021-04-03T15:10:32Z</time><name>PT539</name></trkpt>
<trkpt lat="52.049542" lon="05.692532"><ele>21.2</ele><time>2021-04-03T15:10:33Z</time><name>PT540</name></trkpt>
<trkpt lat="52.049550" lon="05.692500"><ele>21.3</ele><time>2021-04-03T15:10:34Z</time><name>PT541</name></trkpt>
<trkpt lat="52.049555" lon="05.692476"><ele>21.2</ele><time>2021-04-03T15:10:35Z</time><name>PT542</name></trkpt>
<trkpt lat="52.049558" lon="05.692443"><ele>21.3</ele><time>2021-04-03T15:10:36Z</time><name>PT543</name></trkpt>
<trkpt lat="52.049560" lon="05.692409"><ele>21.3</ele><time>2021-04-03T15:10:37Z</time><name>PT544</name></trkpt>
<trkpt lat="52.049561" lon="05.692369"><ele>21.2</ele><time>2021-04-03T15:10:38Z</time><name>PT545</name></trkpt>
<trkpt lat="52.049564" lon="05.692328"><ele>21</ele><time>2021-04-03T15:10:39Z</time><name>PT546</name></trkpt>
<trkpt lat="52.049557" lon="05.692288"><ele>20.9</ele><time>2021-04-03T15:10:40Z</time><name>PT547</name></trkpt>
<trkpt lat="52.049547" lon="05.692252"><ele>20.8</ele><time>2021-04-03T15:10:41Z</time><name>PT548</name></trkpt>
<trkpt lat="52.049541" lon="05.692213"><ele>20.6</ele><time>2021-04-03T15:10:42Z</time><name>PT549</name></trkpt>
<trkpt lat="52.049543" lon="05.692175"><ele>20.5</ele><time>2021-04-03T15:10:43Z</time><name>PT550</name></trkpt>
<trkpt lat="52.049551" lon="05.692142"><ele>20.4</ele><time>2021-04-03T15:10:44Z</time><name>PT551</name></trkpt>
<trkpt lat="52.049550" lon="05.692100"><ele>20.1</ele><time>2021-04-03T15:10:45Z</time><name>PT552</name></trkpt>
<trkpt lat="52.049553" lon="05.692066"><ele>19.9</ele><time>2021-04-03T15:10:46Z</time><name>PT553</name></trkpt>
<trkpt lat="52.049564" lon="05.692042"><ele>19.6</ele><time>2021-04-03T15:10:47Z</time><name>PT554</name></trkpt>
<trkpt lat="52.049565" lon="05.691996"><ele>19.6</ele><time>2021-04-03T15:10:48Z</time><name>PT555</name></trkpt>
<trkpt lat="52.049557" lon="05.691951"><ele>19.5</ele><time>2021-04-03T15:10:49Z</time><name>PT556</name></trkpt>
<trkpt lat="52.049560" lon="05.691907"><ele>19.4</ele><time>2021-04-03T15:10:50Z</time><name>PT557</name></trkpt>
<trkpt lat="52.049556" lon="05.691873"><ele>19.3</ele><time>2021-04-03T15:10:51Z</time><name>PT558</name></trkpt>
<trkpt lat="52.049547" lon="05.691829"><ele>19.2</ele><time>2021-04-03T15:10:52Z</time><name>PT559</name></trkpt>
<trkpt lat="52.049551" lon="05.691797"><ele>18.9</ele><time>2021-04-03T15:10:53Z</time><name>PT560</name></trkpt>
<trkpt lat="52.049553" lon="05.691760"><ele>18.7</ele><time>2021-04-03T15:10:54Z</time><name>PT561</name></trkpt>
<trkpt lat="52.049559" lon="05.691720"><ele>18.7</ele><time>2021-04-03T15:10:55Z</time><name>PT562</name></trkpt>
<trkpt lat="52.049565" lon="05.691689"><ele>18.3</ele><time>2021-04-03T15:10:56Z</time><name>PT563</name></trkpt>
<trkpt lat="52.049567" lon="05.691671"><ele>18.4</ele><time>2021-04-03T15:10:57Z</time><name>PT564</name></trkpt>
<trkpt lat="52.049561" lon="05.691629"><ele>18.2</ele><time>2021-04-03T15:10:58Z</time><name>PT565</name></trkpt>
<trkpt lat="52.049554" lon="05.691582"><ele>17.8</ele><time>2021-04-03T15:10:59Z</time><name>PT566</name></trkpt>
<trkpt lat="52.049552" lon="05.691534"><ele>17.6</ele><time>2021-04-03T15:11:00Z</time><name>PT567</name></trkpt>
<trkpt lat="52.049541" lon="05.691492"><ele>17.5</ele><time>2021-04-03T15:11:01Z</time><name>PT568</name></trkpt>
<trkpt lat="52.049532" lon="05.691450"><ele>17.3</ele><time>2021-04-03T15:11:02Z</time><name>PT569</name></trkpt>
<trkpt lat="52.049526" lon="05.691417"><ele>17.3</ele><time>2021-04-03T15:11:03Z</time><name>PT570</name></trkpt>
<trkpt lat="52.049510" lon="05.691377"><ele>17.3</ele><time>2021-04-03T15:11:04Z</time><name>PT571</name></trkpt>
<trkpt lat="52.049513" lon="05.691332"><ele>16.9</ele><time>2021-04-03T15:11:05Z</time><name>PT572</name></trkpt>
<trkpt lat="52.049520" lon="05.691285"><ele>16.4</ele><time>2021-04-03T15:11:06Z</time><name>PT573</name></trkpt>
<trkpt lat="52.049511" lon="05.691233"><ele>16.4</ele><time>2021-04-03T15:11:07Z</time><name>PT574</name></trkpt>
<trkpt lat="52.049504" lon="05.691189"><ele>16.2</ele><time>2021-04-03T15:11:08Z</time><name>PT575</name></trkpt>
<trkpt lat="52.049497" lon="05.691155"><ele>16.4</ele><time>2021-04-03T15:11:09Z</time><name>PT576</name></trkpt>
<trkpt lat="52.049492" lon="05.691115"><ele>16.4</ele><time>2021-04-03T15:11:10Z</time><name>PT577</name></trkpt>
<trkpt lat="52.049491" lon="05.691082"><ele>16.4</ele><time>2021-04-03T15:11:11Z</time><name>PT578</name></trkpt>
<trkpt lat="52.049493" lon="05.691051"><ele>16.3</ele><time>2021-04-03T15:11:12Z</time><name>PT579</name></trkpt>
<trkpt lat="52.049488" lon="05.691006"><ele>16.3</ele><time>2021-04-03T15:11:13Z</time><name>PT580</name></trkpt>
<trkpt lat="52.049487" lon="05.690968"><ele>16.3</ele><time>2021-04-03T15:11:14Z</time><name>PT581</name></trkpt>
<trkpt lat="52.049476" lon="05.690923"><ele>16.4</ele><time>2021-04-03T15:11:15Z</time><name>PT582</name></trkpt>
<trkpt lat="52.049468" lon="05.690884"><ele>16.3</ele><time>2021-04-03T15:11:16Z</time><name>PT583</name></trkpt>
<trkpt lat="52.049470" lon="05.690860"><ele>16.4</ele><time>2021-04-03T15:11:17Z</time><name>PT584</name></trkpt>
<trkpt lat="52.049466" lon="05.690833"><ele>16.6</ele><time>2021-04-03T15:11:18Z</time><name>PT585</name></trkpt>
<trkpt lat="52.049465" lon="05.690796"><ele>16.7</ele><time>2021-04-03T15:11:19Z</time><name>PT586</name></trkpt>
<trkpt lat="52.049466" lon="05.690763"><ele>16.4</ele><time>2021-04-03T15:11:20Z</time><name>PT587</name></trkpt>
<trkpt lat="52.049471" lon="05.690731"><ele>16.1</ele><time>2021-04-03T15:11:21Z</time><name>PT588</name></trkpt>
<trkpt lat="52.049480" lon="05.690719"><ele>15.9</ele><time>2021-04-03T15:11:22Z</time><name>PT589</name></trkpt>
<trkpt lat="52.049485" lon="05.690688"><ele>15.7</ele><time>2021-04-03T15:11:23Z</time><name>PT590</name></trkpt>
<trkpt lat="52.049496" lon="05.690673"><ele>16</ele><time>2021-04-03T15:11:24Z</time><name>PT591</name></trkpt>
<trkpt lat="52.049501" lon="05.690652"><ele>16.2</ele><time>2021-04-03T15:11:25Z</time><name>PT592</name></trkpt>
<trkpt lat="52.049496" lon="05.690639"><ele>16.6</ele><time>2021-04-03T15:11:26Z</time><name>PT593</name></trkpt>
<trkpt lat="52.049495" lon="05.690625"><ele>16.9</ele><time>2021-04-03T15:11:27Z</time><name>PT594</name></trkpt>
<trkpt lat="52.049496" lon="05.690607"><ele>16.9</ele><time>2021-04-03T15:11:28Z</time><name>PT595</name></trkpt>
<trkpt lat="52.049497" lon="05.690583"><ele>16.9</ele><time>2021-04-03T15:11:29Z</time><name>PT596</name></trkpt>
<trkpt lat="52.049498" lon="05.690572"><ele>16.8</ele><time>2021-04-03T15:11:30Z</time><name>PT597</name></trkpt>
<trkpt lat="52.049506" lon="05.690537"><ele>17.1</ele><time>2021-04-03T15:11:47Z</time><name>PT598</name></trkpt>
<trkpt lat="52.049516" lon="05.690492"><ele>17.2</ele><time>2021-04-03T15:11:48Z</time><name>PT599</name></trkpt>
<trkpt lat="52.049525" lon="05.690457"><ele>17</ele><time>2021-04-03T15:11:49Z</time><name>PT600</name></trkpt>
<trkpt lat="52.049544" lon="05.690406"><ele>17</ele><time>2021-04-03T15:11:50Z</time><name>PT601</name></trkpt>
<trkpt lat="52.049559" lon="05.690368"><ele>17.1</ele><time>2021-04-03T15:11:51Z</time><name>PT602</name></trkpt>
<trkpt lat="52.049575" lon="05.690310"><ele>17.1</ele><time>2021-04-03T15:11:52Z</time><name>PT603</name></trkpt>
<trkpt lat="52.049586" lon="05.690261"><ele>17.2</ele><time>2021-04-03T15:11:53Z</time><name>PT604</name></trkpt>
<trkpt lat="52.049602" lon="05.690228"><ele>17.4</ele><time>2021-04-03T15:11:54Z</time><name>PT605</name></trkpt>
<trkpt lat="52.049617" lon="05.690192"><ele>17.5</ele><time>2021-04-03T15:11:55Z</time><name>PT606</name></trkpt>
<trkpt lat="52.049628" lon="05.690171"><ele>17.5</ele><time>2021-04-03T15:11:56Z</time><name>PT607</name></trkpt>
<trkpt lat="52.049640" lon="05.690157"><ele>17.8</ele><time>2021-04-03T15:11:57Z</time><name>PT608</name></trkpt>
<trkpt lat="52.049651" lon="05.690156"><ele>17.8</ele><time>2021-04-03T15:11:58Z</time><name>PT609</name></trkpt>
<trkpt lat="52.049662" lon="05.690162"><ele>17.8</ele><time>2021-04-03T15:11:59Z</time><name>PT610</name></trkpt>
<trkpt lat="52.049684" lon="05.690148"><ele>17.7</ele><time>2021-04-03T15:12:00Z</time><name>PT611</name></trkpt>
<trkpt lat="52.049695" lon="05.690139"><ele>17.5</ele><time>2021-04-03T15:12:01Z</time><name>PT612</name></trkpt>
<trkpt lat="52.049711" lon="05.690147"><ele>17.3</ele><time>2021-04-03T15:12:02Z</time><name>PT613</name></trkpt>
<trkpt lat="52.049730" lon="05.690145"><ele>17.6</ele><time>2021-04-03T15:12:03Z</time><name>PT614</name></trkpt>
<trkpt lat="52.049750" lon="05.690140"><ele>17.7</ele><time>2021-04-03T15:12:04Z</time><name>PT615</name></trkpt>
<trkpt lat="52.049763" lon="05.690138"><ele>18.1</ele><time>2021-04-03T15:12:05Z</time><name>PT616</name></trkpt>
<trkpt lat="52.049777" lon="05.690139"><ele>18.4</ele><time>2021-04-03T15:12:06Z</time><name>PT617</name></trkpt>
<trkpt lat="52.049788" lon="05.690147"><ele>18.3</ele><time>2021-04-03T15:12:07Z</time><name>PT618</name></trkpt>
<trkpt lat="52.049804" lon="05.690147"><ele>18.5</ele><time>2021-04-03T15:12:08Z</time><name>PT619</name></trkpt>
<trkpt lat="52.049822" lon="05.690138"><ele>18.7</ele><time>2021-04-03T15:12:09Z</time><name>PT620</name></trkpt>
<trkpt lat="52.049845" lon="05.690128"><ele>18.7</ele><time>2021-04-03T15:12:10Z</time><name>PT621</name></trkpt>
<trkpt lat="52.049862" lon="05.690123"><ele>18.8</ele><time>2021-04-03T15:12:11Z</time><name>PT622</name></trkpt>
<trkpt lat="52.049876" lon="05.690114"><ele>18.8</ele><time>2021-04-03T15:12:12Z</time><name>PT623</name></trkpt>
<trkpt lat="52.049888" lon="05.690107"><ele>18.7</ele><time>2021-04-03T15:12:13Z</time><name>PT624</name></trkpt>
<trkpt lat="52.049897" lon="05.690105"><ele>18.7</ele><time>2021-04-03T15:12:14Z</time><name>PT625</name></trkpt>
<trkpt lat="52.049915" lon="05.690100"><ele>18.6</ele><time>2021-04-03T15:12:15Z</time><name>PT626</name></trkpt>
<trkpt lat="52.049926" lon="05.690083"><ele>18.4</ele><time>2021-04-03T15:12:16Z</time><name>PT627</name></trkpt>
<trkpt lat="52.049918" lon="05.690074"><ele>18.4</ele><time>2021-04-03T15:12:17Z</time><name>PT628</name></trkpt>
<trkpt lat="52.049925" lon="05.690047"><ele>18.3</ele><time>2021-04-03T15:12:18Z</time><name>PT629</name></trkpt>
<trkpt lat="52.049934" lon="05.690036"><ele>18.3</ele><time>2021-04-03T15:12:19Z</time><name>PT630</name></trkpt>
<trkpt lat="52.049947" lon="05.690030"><ele>18.6</ele><time>2021-04-03T15:12:20Z</time><name>PT631</name></trkpt>
<trkpt lat="52.049954" lon="05.690023"><ele>18.7</ele><time>2021-04-03T15:12:21Z</time><name>PT632</name></trkpt>
<trkpt lat="52.049970" lon="05.690008"><ele>18.9</ele><time>2021-04-03T15:12:22Z</time><name>PT633</name></trkpt>
<trkpt lat="52.049988" lon="05.689998"><ele>18.9</ele><time>2021-04-03T15:12:23Z</time><name>PT634</name></trkpt>
<trkpt lat="52.050004" lon="05.689986"><ele>19.1</ele><time>2021-04-03T15:12:24Z</time><name>PT635</name></trkpt>
<trkpt lat="52.050026" lon="05.689969"><ele>19.1</ele><time>2021-04-03T15:12:25Z</time><name>PT636</name></trkpt>
<trkpt lat="52.050041" lon="05.689952"><ele>19.2</ele><time>2021-04-03T15:12:26Z</time><name>PT637</name></trkpt>
<trkpt lat="52.050059" lon="05.689943"><ele>19.2</ele><time>2021-04-03T15:12:27Z</time><name>PT638</name></trkpt>
<trkpt lat="52.050070" lon="05.689932"><ele>19.2</ele><time>2021-04-03T15:12:28Z</time><name>PT639</name></trkpt>
<trkpt lat="52.050087" lon="05.689929"><ele>19.2</ele><time>2021-04-03T15:12:29Z</time><name>PT640</name></trkpt>
<trkpt lat="52.050103" lon="05.689939"><ele>19.2</ele><time>2021-04-03T15:12:30Z</time><name>PT641</name></trkpt>
<trkpt lat="52.050131" lon="05.689945"><ele>19.3</ele><time>2021-04-03T15:12:31Z</time><name>PT642</name></trkpt>
<trkpt lat="52.050153" lon="05.689945"><ele>19.4</ele><time>2021-04-03T15:12:32Z</time><name>PT643</name></trkpt>
<trkpt lat="52.050177" lon="05.689940"><ele>19.5</ele><time>2021-04-03T15:12:33Z</time><name>PT644</name></trkpt>
<trkpt lat="52.050194" lon="05.689926"><ele>19.5</ele><time>2021-04-03T15:12:34Z</time><name>PT645</name></trkpt>
<trkpt lat="52.050207" lon="05.689927"><ele>19.5</ele><time>2021-04-03T15:12:35Z</time><name>PT646</name></trkpt>
<trkpt lat="52.050223" lon="05.689920"><ele>19.5</ele><time>2021-04-03T15:12:36Z</time><name>PT647</name></trkpt>
<trkpt lat="52.050230" lon="05.689922"><ele>19.5</ele><time>2021-04-03T15:12:37Z</time><name>PT648</name></trkpt>
<trkpt lat="52.050236" lon="05.689932"><ele>19.5</ele><time>2021-04-03T15:12:38Z</time><name>PT649</name></trkpt>
<trkpt lat="52.050250" lon="05.689933"><ele>19.5</ele><time>2021-04-03T15:12:39Z</time><name>PT650</name></trkpt>
<trkpt lat="52.050259" lon="05.689934"><ele>19.6</ele><time>2021-04-03T15:12:40Z</time><name>PT651</name></trkpt>
<trkpt lat="52.050270" lon="05.689948"><ele>19.6</ele><time>2021-04-03T15:12:41Z</time><name>PT652</name></trkpt>
<trkpt lat="52.050289" lon="05.689957"><ele>19.6</ele><time>2021-04-03T15:12:42Z</time><name>PT653</name></trkpt>
<trkpt lat="52.050308" lon="05.689967"><ele>19.6</ele><time>2021-04-03T15:12:43Z</time><name>PT654</name></trkpt>
<trkpt lat="52.050327" lon="05.689974"><ele>19.8</ele><time>2021-04-03T15:12:44Z</time><name>PT655</name></trkpt>
<trkpt lat="52.050338" lon="05.689987"><ele>19.8</ele><time>2021-04-03T15:12:45Z</time><name>PT656</name></trkpt>
<trkpt lat="52.050352" lon="05.689990"><ele>19.7</ele><time>2021-04-03T15:12:46Z</time><name>PT657</name></trkpt>
<trkpt lat="52.050364" lon="05.690006"><ele>19.8</ele><time>2021-04-03T15:12:47Z</time><name>PT658</name></trkpt>
<trkpt lat="52.050376" lon="05.690011"><ele>19.7</ele><time>2021-04-03T15:12:48Z</time><name>PT659</name></trkpt>
<trkpt lat="52.050392" lon="05.690021"><ele>19.7</ele><time>2021-04-03T15:12:49Z</time><name>PT660</name></trkpt>
<trkpt lat="52.050407" lon="05.690039"><ele>19.8</ele><time>2021-04-03T15:12:50Z</time><name>PT661</name></trkpt>
<trkpt lat="52.050421" lon="05.690059"><ele>19.9</ele><time>2021-04-03T15:12:51Z</time><name>PT662</name></trkpt>
<trkpt lat="52.050433" lon="05.690063"><ele>19.8</ele><time>2021-04-03T15:12:52Z</time><name>PT663</name></trkpt>
<trkpt lat="52.050454" lon="05.690075"><ele>20</ele><time>2021-04-03T15:12:53Z</time><name>PT664</name></trkpt>
<trkpt lat="52.050465" lon="05.690080"><ele>20.1</ele><time>2021-04-03T15:12:54Z</time><name>PT665</name></trkpt>
<trkpt lat="52.050481" lon="05.690077"><ele>20.1</ele><time>2021-04-03T15:12:55Z</time><name>PT666</name></trkpt>
<trkpt lat="52.050507" lon="05.690073"><ele>20.1</ele><time>2021-04-03T15:12:56Z</time><name>PT667</name></trkpt>
<trkpt lat="52.050530" lon="05.690078"><ele>20.1</ele><time>2021-04-03T15:12:57Z</time><name>PT668</name></trkpt>
<trkpt lat="52.050545" lon="05.690078"><ele>20.1</ele><time>2021-04-03T15:12:58Z</time><name>PT669</name></trkpt>
<trkpt lat="52.050565" lon="05.690076"><ele>20.1</ele><time>2021-04-03T15:12:59Z</time><name>PT670</name></trkpt>
<trkpt lat="52.050585" lon="05.690077"><ele>20.1</ele><time>2021-04-03T15:13:00Z</time><name>PT671</name></trkpt>
<trkpt lat="52.050607" lon="05.690077"><ele>19.9</ele><time>2021-04-03T15:13:01Z</time><name>PT672</name></trkpt>
<trkpt lat="52.050628" lon="05.690075"><ele>19.8</ele><time>2021-04-03T15:13:02Z</time><name>PT673</name></trkpt>
<trkpt lat="52.050645" lon="05.690071"><ele>19.8</ele><time>2021-04-03T15:13:03Z</time><name>PT674</name></trkpt>
<trkpt lat="52.050669" lon="05.690070"><ele>19.8</ele><time>2021-04-03T15:13:04Z</time><name>PT675</name></trkpt>
<trkpt lat="52.050689" lon="05.690057"><ele>20.1</ele><time>2021-04-03T15:13:05Z</time><name>PT676</name></trkpt>
<trkpt lat="52.050704" lon="05.690035"><ele>20.3</ele><time>2021-04-03T15:13:06Z</time><name>PT677</name></trkpt>
<trkpt lat="52.050723" lon="05.690032"><ele>20.4</ele><time>2021-04-03T15:13:07Z</time><name>PT678</name></trkpt>
<trkpt lat="52.050737" lon="05.690022"><ele>20.5</ele><time>2021-04-03T15:13:08Z</time><name>PT679</name></trkpt>
<trkpt lat="52.050755" lon="05.690004"><ele>20.6</ele><time>2021-04-03T15:13:09Z</time><name>PT680</name></trkpt>
<trkpt lat="52.050769" lon="05.689995"><ele>20.5</ele><time>2021-04-03T15:13:10Z</time><name>PT681</name></trkpt>
<trkpt lat="52.050782" lon="05.690006"><ele>20.4</ele><time>2021-04-03T15:13:11Z</time><name>PT682</name></trkpt>
<trkpt lat="52.050803" lon="05.690012"><ele>20.2</ele><time>2021-04-03T15:13:12Z</time><name>PT683</name></trkpt>
<trkpt lat="52.050818" lon="05.690021"><ele>20.3</ele><time>2021-04-03T15:13:13Z</time><name>PT684</name></trkpt>
<trkpt lat="52.050832" lon="05.690017"><ele>20.4</ele><time>2021-04-03T15:13:14Z</time><name>PT685</name></trkpt>
<trkpt lat="52.050843" lon="05.690022"><ele>20.3</ele><time>2021-04-03T15:13:15Z</time><name>PT686</name></trkpt>
<trkpt lat="52.050855" lon="05.690033"><ele>20.5</ele><time>2021-04-03T15:13:16Z</time><name>PT687</name></trkpt>
<trkpt lat="52.050865" lon="05.690046"><ele>20.6</ele><time>2021-04-03T15:13:17Z</time><name>PT688</name></trkpt>
<trkpt lat="52.050874" lon="05.690065"><ele>20.9</ele><time>2021-04-03T15:13:18Z</time><name>PT689</name></trkpt>
<trkpt lat="52.050876" lon="05.690077"><ele>21</ele><time>2021-04-03T15:13:19Z</time><name>PT690</name></trkpt>
<trkpt lat="52.050888" lon="05.690093"><ele>21.3</ele><time>2021-04-03T15:13:20Z</time><name>PT691</name></trkpt>
<trkpt lat="52.050898" lon="05.690103"><ele>21.6</ele><time>2021-04-03T15:13:21Z</time><name>PT692</name></trkpt>
<trkpt lat="52.050909" lon="05.690110"><ele>21.7</ele><time>2021-04-03T15:13:22Z</time><name>PT693</name></trkpt>
<trkpt lat="52.050929" lon="05.690131"><ele>22.9</ele><time>2021-04-03T15:13:32Z</time><name>PT694</name></trkpt>
<trkpt lat="52.050950" lon="05.690152"><ele>22.9</ele><time>2021-04-03T15:13:33Z</time><name>PT695</name></trkpt>
<trkpt lat="52.050959" lon="05.690168"><ele>22.8</ele><time>2021-04-03T15:13:35Z</time><name>PT696</name></trkpt>
<trkpt lat="52.050979" lon="05.690199"><ele>22.9</ele><time>2021-04-03T15:13:36Z</time><name>PT697</name></trkpt>
<trkpt lat="52.050991" lon="05.690233"><ele>22.8</ele><time>2021-04-03T15:13:37Z</time><name>PT698</name></trkpt>
<trkpt lat="52.051002" lon="05.690264"><ele>22.8</ele><time>2021-04-03T15:13:38Z</time><name>PT699</name></trkpt>
<trkpt lat="52.051007" lon="05.690299"><ele>22.8</ele><time>2021-04-03T15:13:39Z</time><name>PT700</name></trkpt>
<trkpt lat="52.051009" lon="05.690324"><ele>22.7</ele><time>2021-04-03T15:13:40Z</time><name>PT701</name></trkpt>
<trkpt lat="52.051021" lon="05.690353"><ele>22.6</ele><time>2021-04-03T15:13:41Z</time><name>PT702</name></trkpt>
<trkpt lat="52.051029" lon="05.690379"><ele>22.8</ele><time>2021-04-03T15:13:42Z</time><name>PT703</name></trkpt>
<trkpt lat="52.051039" lon="05.690402"><ele>22.8</ele><time>2021-04-03T15:13:43Z</time><name>PT704</name></trkpt>
<trkpt lat="52.051040" lon="05.690425"><ele>22.8</ele><time>2021-04-03T15:13:44Z</time><name>PT705</name></trkpt>
<trkpt lat="52.051051" lon="05.690449"><ele>22.9</ele><time>2021-04-03T15:13:45Z</time><name>PT706</name></trkpt>
<trkpt lat="52.051063" lon="05.690479"><ele>22.8</ele><time>2021-04-03T15:13:46Z</time><name>PT707</name></trkpt>
<trkpt lat="52.051078" lon="05.690497"><ele>22.8</ele><time>2021-04-03T15:13:47Z</time><name>PT708</name></trkpt>
<trkpt lat="52.051087" lon="05.690515"><ele>22.7</ele><time>2021-04-03T15:13:48Z</time><name>PT709</name></trkpt>
<trkpt lat="52.051101" lon="05.690551"><ele>22.6</ele><time>2021-04-03T15:13:49Z</time><name>PT710</name></trkpt>
<trkpt lat="52.051112" lon="05.690572"><ele>22.4</ele><time>2021-04-03T15:13:50Z</time><name>PT711</name></trkpt>
<trkpt lat="52.051112" lon="05.690594"><ele>22.2</ele><time>2021-04-03T15:13:51Z</time><name>PT712</name></trkpt>
<trkpt lat="52.051125" lon="05.690631"><ele>22.1</ele><time>2021-04-03T15:13:52Z</time><name>PT713</name></trkpt>
<trkpt lat="52.051131" lon="05.690667"><ele>22.3</ele><time>2021-04-03T15:13:53Z</time><name>PT714</name></trkpt>
<trkpt lat="52.051140" lon="05.690699"><ele>22.4</ele><time>2021-04-03T15:13:54Z</time><name>PT715</name></trkpt>
<trkpt lat="52.051150" lon="05.690734"><ele>22.6</ele><time>2021-04-03T15:13:55Z</time><name>PT716</name></trkpt>
<trkpt lat="52.051156" lon="05.690768"><ele>22.6</ele><time>2021-04-03T15:13:56Z</time><name>PT717</name></trkpt>
<trkpt lat="52.051163" lon="05.690801"><ele>22.6</ele><time>2021-04-03T15:13:57Z</time><name>PT718</name></trkpt>
<trkpt lat="52.051181" lon="05.690821"><ele>22.5</ele><time>2021-04-03T15:13:58Z</time><name>PT719</name></trkpt>
<trkpt lat="52.051195" lon="05.690858"><ele>22.4</ele><time>2021-04-03T15:13:59Z</time><name>PT720</name></trkpt>
<trkpt lat="52.051205" lon="05.690894"><ele>22</ele><time>2021-04-03T15:14:00Z</time><name>PT721</name></trkpt>
<trkpt lat="52.051223" lon="05.690923"><ele>22</ele><time>2021-04-03T15:14:01Z</time><name>PT722</name></trkpt>
<trkpt lat="52.051244" lon="05.690951"><ele>22</ele><time>2021-04-03T15:14:02Z</time><name>PT723</name></trkpt>
<trkpt lat="52.051252" lon="05.691001"><ele>21.9</ele><time>2021-04-03T15:14:03Z</time><name>PT724</name></trkpt>
<trkpt lat="52.051258" lon="05.691029"><ele>22</ele><time>2021-04-03T15:14:04Z</time><name>PT725</name></trkpt>
<trkpt lat="52.051268" lon="05.691056"><ele>21.9</ele><time>2021-04-03T15:14:05Z</time><name>PT726</name></trkpt>
<trkpt lat="52.051273" lon="05.691079"><ele>21.9</ele><time>2021-04-03T15:14:06Z</time><name>PT727</name></trkpt>
<trkpt lat="52.051281" lon="05.691107"><ele>21.7</ele><time>2021-04-03T15:14:07Z</time><name>PT728</name></trkpt>
<trkpt lat="52.051293" lon="05.691136"><ele>21.6</ele><time>2021-04-03T15:14:08Z</time><name>PT729</name></trkpt>
<trkpt lat="52.051304" lon="05.691170"><ele>21.8</ele><time>2021-04-03T15:14:09Z</time><name>PT730</name></trkpt>
<trkpt lat="52.051315" lon="05.691211"><ele>21.7</ele><time>2021-04-03T15:14:10Z</time><name>PT731</name></trkpt>
<trkpt lat="52.051326" lon="05.691245"><ele>21.6</ele><time>2021-04-03T15:14:11Z</time><name>PT732</name></trkpt>
<trkpt lat="52.051333" lon="05.691288"><ele>21.9</ele><time>2021-04-03T15:14:12Z</time><name>PT733</name></trkpt>
<trkpt lat="52.051340" lon="05.691323"><ele>21.9</ele><time>2021-04-03T15:14:13Z</time><name>PT734</name></trkpt>
<trkpt lat="52.051341" lon="05.691357"><ele>21.8</ele><time>2021-04-03T15:14:14Z</time><name>PT735</name></trkpt>
<trkpt lat="52.051345" lon="05.691392"><ele>21.7</ele><time>2021-04-03T15:14:15Z</time><name>PT736</name></trkpt>
<trkpt lat="52.051353" lon="05.691423"><ele>21.7</ele><time>2021-04-03T15:14:16Z</time><name>PT737</name></trkpt>
<trkpt lat="52.051362" lon="05.691461"><ele>21.7</ele><time>2021-04-03T15:14:17Z</time><name>PT738</name></trkpt>
<trkpt lat="52.051370" lon="05.691502"><ele>21.7</ele><time>2021-04-03T15:14:18Z</time><name>PT739</name></trkpt>
<trkpt lat="52.051380" lon="05.691538"><ele>21.7</ele><time>2021-04-03T15:14:19Z</time><name>PT740</name></trkpt>
<trkpt lat="52.051393" lon="05.691589"><ele>21.5</ele><time>2021-04-03T15:14:20Z</time><name>PT741</name></trkpt>
<trkpt lat="52.051402" lon="05.691638"><ele>21.1</ele><time>2021-04-03T15:14:21Z</time><name>PT742</name></trkpt>
<trkpt lat="52.051409" lon="05.691690"><ele>21</ele><time>2021-04-03T15:14:22Z</time><name>PT743</name></trkpt>
<trkpt lat="52.051423" lon="05.691744"><ele>20.9</ele><time>2021-04-03T15:14:23Z</time><name>PT744</name></trkpt>
<trkpt lat="52.051429" lon="05.691791"><ele>21</ele><time>2021-04-03T15:14:24Z</time><name>PT745</name></trkpt>
<trkpt lat="52.051439" lon="05.691835"><ele>21.1</ele><time>2021-04-03T15:14:25Z</time><name>PT746</name></trkpt>
<trkpt lat="52.051446" lon="05.691872"><ele>21.2</ele><time>2021-04-03T15:14:26Z</time><name>PT747</name></trkpt>
<trkpt lat="52.051455" lon="05.691911"><ele>21.3</ele><time>2021-04-03T15:14:27Z</time><name>PT748</name></trkpt>
<trkpt lat="52.051471" lon="05.691941"><ele>21.4</ele><time>2021-04-03T15:14:28Z</time><name>PT749</name></trkpt>
<trkpt lat="52.051474" lon="05.691978"><ele>21.5</ele><time>2021-04-03T15:14:29Z</time><name>PT750</name></trkpt>
<trkpt lat="52.051481" lon="05.692016"><ele>21.6</ele><time>2021-04-03T15:14:30Z</time><name>PT751</name></trkpt>
<trkpt lat="52.051488" lon="05.692052"><ele>21.6</ele><time>2021-04-03T15:14:31Z</time><name>PT752</name></trkpt>
<trkpt lat="52.051494" lon="05.692079"><ele>21.6</ele><time>2021-04-03T15:14:32Z</time><name>PT753</name></trkpt>
<trkpt lat="52.051495" lon="05.692107"><ele>21.6</ele><time>2021-04-03T15:14:33Z</time><name>PT754</name></trkpt>
<trkpt lat="52.051500" lon="05.692139"><ele>21.7</ele><time>2021-04-03T15:14:34Z</time><name>PT755</name></trkpt>
<trkpt lat="52.051507" lon="05.692162"><ele>21.7</ele><time>2021-04-03T15:14:35Z</time><name>PT756</name></trkpt>
<trkpt lat="52.051514" lon="05.692199"><ele>21.9</ele><time>2021-04-03T15:14:36Z</time><name>PT757</name></trkpt>
<trkpt lat="52.051514" lon="05.692235"><ele>21.9</ele><time>2021-04-03T15:14:37Z</time><name>PT758</name></trkpt>
<trkpt lat="52.051519" lon="05.692261"><ele>21.8</ele><time>2021-04-03T15:14:38Z</time><name>PT759</name></trkpt>
<trkpt lat="52.051524" lon="05.692290"><ele>21.8</ele><time>2021-04-03T15:14:39Z</time><name>PT760</name></trkpt>
<trkpt lat="52.051524" lon="05.692324"><ele>21.6</ele><time>2021-04-03T15:14:40Z</time><name>PT761</name></trkpt>
<trkpt lat="52.051528" lon="05.692356"><ele>21.5</ele><time>2021-04-03T15:14:41Z</time><name>PT762</name></trkpt>
<trkpt lat="52.051533" lon="05.692389"><ele>21.5</ele><time>2021-04-03T15:14:42Z</time><name>PT763</name></trkpt>
<trkpt lat="52.051543" lon="05.692413"><ele>21.5</ele><time>2021-04-03T15:14:43Z</time><name>PT764</name></trkpt>
<trkpt lat="52.051545" lon="05.692440"><ele>21.3</ele><time>2021-04-03T15:14:44Z</time><name>PT765</name></trkpt>
<trkpt lat="52.051542" lon="05.692471"><ele>21.5</ele><time>2021-04-03T15:14:45Z</time><name>PT766</name></trkpt>
<trkpt lat="52.051549" lon="05.692502"><ele>21.2</ele><time>2021-04-03T15:14:46Z</time><name>PT767</name></trkpt>
<trkpt lat="52.051556" lon="05.692537"><ele>21</ele><time>2021-04-03T15:14:47Z</time><name>PT768</name></trkpt>
<trkpt lat="52.051565" lon="05.692577"><ele>21.1</ele><time>2021-04-03T15:14:48Z</time><name>PT769</name></trkpt>
<trkpt lat="52.051579" lon="05.692611"><ele>21</ele><time>2021-04-03T15:14:49Z</time><name>PT770</name></trkpt>
<trkpt lat="52.051589" lon="05.692648"><ele>21</ele><time>2021-04-03T15:14:50Z</time><name>PT771</name></trkpt>
<trkpt lat="52.051595" lon="05.692673"><ele>20.9</ele><time>2021-04-03T15:14:51Z</time><name>PT772</name></trkpt>
<trkpt lat="52.051592" lon="05.692704"><ele>20.8</ele><time>2021-04-03T15:14:52Z</time><name>PT773</name></trkpt>
<trkpt lat="52.051598" lon="05.692751"><ele>20.5</ele><time>2021-04-03T15:14:53Z</time><name>PT774</name></trkpt>
<trkpt lat="52.051591" lon="05.692790"><ele>20.4</ele><time>2021-04-03T15:14:54Z</time><name>PT775</name></trkpt>
<trkpt lat="52.051592" lon="05.692830"><ele>20.4</ele><time>2021-04-03T15:14:55Z</time><name>PT776</name></trkpt>
<trkpt lat="52.051587" lon="05.692874"><ele>20.2</ele><time>2021-04-03T15:14:56Z</time><name>PT777</name></trkpt>
<trkpt lat="52.051588" lon="05.692905"><ele>20.1</ele><time>2021-04-03T15:14:57Z</time><name>PT778</name></trkpt>
<trkpt lat="52.051583" lon="05.692946"><ele>20.1</ele><time>2021-04-03T15:14:58Z</time><name>PT779</name></trkpt>
<trkpt lat="52.051582" lon="05.692997"><ele>19.9</ele><time>2021-04-03T15:14:59Z</time><name>PT780</name></trkpt>
<trkpt lat="52.051590" lon="05.693047"><ele>20.1</ele><time>2021-04-03T15:15:00Z</time><name>PT781</name></trkpt>
<trkpt lat="52.051592" lon="05.693086"><ele>20.1</ele><time>2021-04-03T15:15:01Z</time><name>PT782</name></trkpt>
<trkpt lat="52.051591" lon="05.693123"><ele>20.1</ele><time>2021-04-03T15:15:02Z</time><name>PT783</name></trkpt>
<trkpt lat="52.051587" lon="05.693165"><ele>20.2</ele><time>2021-04-03T15:15:03Z</time><name>PT784</name></trkpt>
<trkpt lat="52.051594" lon="05.693204"><ele>20.1</ele><time>2021-04-03T15:15:04Z</time><name>PT785</name></trkpt>
<trkpt lat="52.051597" lon="05.693247"><ele>20.1</ele><time>2021-04-03T15:15:05Z</time><name>PT786</name></trkpt>
<trkpt lat="52.051602" lon="05.693288"><ele>19.9</ele><time>2021-04-03T15:15:06Z</time><name>PT787</name></trkpt>
<trkpt lat="52.051613" lon="05.693321"><ele>19.8</ele><time>2021-04-03T15:15:07Z</time><name>PT788</name></trkpt>
<trkpt lat="52.051625" lon="05.693369"><ele>19.9</ele><time>2021-04-03T15:15:08Z</time><name>PT789</name></trkpt>
<trkpt lat="52.051640" lon="05.693420"><ele>19.9</ele><time>2021-04-03T15:15:09Z</time><name>PT790</name></trkpt>
<trkpt lat="52.051651" lon="05.693475"><ele>20.1</ele><time>2021-04-03T15:15:10Z</time><name>PT791</name></trkpt>
<trkpt lat="52.051656" lon="05.693510"><ele>20</ele><time>2021-04-03T15:15:11Z</time><name>PT792</name></trkpt>
<trkpt lat="52.051663" lon="05.693553"><ele>19.9</ele><time>2021-04-03T15:15:12Z</time><name>PT793</name></trkpt>
<trkpt lat="52.051678" lon="05.693608"><ele>19.7</ele><time>2021-04-03T15:15:13Z</time><name>PT794</name></trkpt>
<trkpt lat="52.051697" lon="05.693679"><ele>19.4</ele><time>2021-04-03T15:15:14Z</time><name>PT795</name></trkpt>
<trkpt lat="52.051708" lon="05.693728"><ele>19.4</ele><time>2021-04-03T15:15:15Z</time><name>PT796</name></trkpt>
<trkpt lat="52.051726" lon="05.693782"><ele>19.2</ele><time>2021-04-03T15:15:16Z</time><name>PT797</name></trkpt>
<trkpt lat="52.051739" lon="05.693842"><ele>19.2</ele><time>2021-04-03T15:15:17Z</time><name>PT798</name></trkpt>
<trkpt lat="52.051755" lon="05.693888"><ele>19.2</ele><time>2021-04-03T15:15:18Z</time><name>PT799</name></trkpt>
<trkpt lat="52.051763" lon="05.693929"><ele>19.1</ele><time>2021-04-03T15:15:19Z</time><name>PT800</name></trkpt>
<trkpt lat="52.051777" lon="05.693963"><ele>18.7</ele><time>2021-04-03T15:15:20Z</time><name>PT801</name></trkpt>
<trkpt lat="52.051785" lon="05.693992"><ele>18.7</ele><time>2021-04-03T15:15:21Z</time><name>PT802</name></trkpt>
<trkpt lat="52.051789" lon="05.694043"><ele>18.7</ele><time>2021-04-03T15:15:22Z</time><name>PT803</name></trkpt>
<trkpt lat="52.051802" lon="05.694079"><ele>18.7</ele><time>2021-04-03T15:15:23Z</time><name>PT804</name></trkpt>
<trkpt lat="52.051811" lon="05.694119"><ele>18.7</ele><time>2021-04-03T15:15:24Z</time><name>PT805</name></trkpt>
<trkpt lat="52.051824" lon="05.694176"><ele>18.5</ele><time>2021-04-03T15:15:25Z</time><name>PT806</name></trkpt>
<trkpt lat="52.051837" lon="05.694201"><ele>18.2</ele><time>2021-04-03T15:15:26Z</time><name>PT807</name></trkpt>
<trkpt lat="52.051849" lon="05.694227"><ele>18.1</ele><time>2021-04-03T15:15:27Z</time><name>PT808</name></trkpt>
<trkpt lat="52.051865" lon="05.694247"><ele>18</ele><time>2021-04-03T15:15:28Z</time><name>PT809</name></trkpt>
<trkpt lat="52.051880" lon="05.694284"><ele>17.8</ele><time>2021-04-03T15:15:29Z</time><name>PT810</name></trkpt>
<trkpt lat="52.051896" lon="05.694302"><ele>17.8</ele><time>2021-04-03T15:15:30Z</time><name>PT811</name></trkpt>
<trkpt lat="52.051919" lon="05.694323"><ele>17.8</ele><time>2021-04-03T15:15:31Z</time><name>PT812</name></trkpt>
<trkpt lat="52.051944" lon="05.694342"><ele>17.5</ele><time>2021-04-03T15:15:32Z</time><name>PT813</name></trkpt>
<trkpt lat="52.051966" lon="05.694374"><ele>17.3</ele><time>2021-04-03T15:15:33Z</time><name>PT814</name></trkpt>
<trkpt lat="52.051991" lon="05.694385"><ele>17.2</ele><time>2021-04-03T15:15:34Z</time><name>PT815</name></trkpt>
<trkpt lat="52.052017" lon="05.694400"><ele>16.9</ele><time>2021-04-03T15:15:35Z</time><name>PT816</name></trkpt>
<trkpt lat="52.052035" lon="05.694409"><ele>16.8</ele><time>2021-04-03T15:15:36Z</time><name>PT817</name></trkpt>
<trkpt lat="52.052052" lon="05.694417"><ele>16.6</ele><time>2021-04-03T15:15:37Z</time><name>PT818</name></trkpt>
<trkpt lat="52.052071" lon="05.694435"><ele>16.5</ele><time>2021-04-03T15:15:38Z</time><name>PT819</name></trkpt>
<trkpt lat="52.052099" lon="05.694459"><ele>16.4</ele><time>2021-04-03T15:15:39Z</time><name>PT820</name></trkpt>
<trkpt lat="52.052115" lon="05.694484"><ele>16.4</ele><time>2021-04-03T15:15:40Z</time><name>PT821</name></trkpt>
<trkpt lat="52.052137" lon="05.694495"><ele>16.7</ele><time>2021-04-03T15:15:41Z</time><name>PT822</name></trkpt>
<trkpt lat="52.052155" lon="05.694508"><ele>16.9</ele><time>2021-04-03T15:15:42Z</time><name>PT823</name></trkpt>
<trkpt lat="52.052177" lon="05.694518"><ele>17</ele><time>2021-04-03T15:15:43Z</time><name>PT824</name></trkpt>
<trkpt lat="52.052197" lon="05.694536"><ele>17.2</ele><time>2021-04-03T15:15:44Z</time><name>PT825</name></trkpt>
<trkpt lat="52.052222" lon="05.694532"><ele>17.2</ele><time>2021-04-03T15:15:45Z</time><name>PT826</name></trkpt>
<trkpt lat="52.052243" lon="05.694562"><ele>17.3</ele><time>2021-04-03T15:15:46Z</time><name>PT827</name></trkpt>
<trkpt lat="52.052270" lon="05.694565"><ele>17.2</ele><time>2021-04-03T15:15:47Z</time><name>PT828</name></trkpt>
<trkpt lat="52.052293" lon="05.694574"><ele>17.3</ele><time>2021-04-03T15:15:48Z</time><name>PT829</name></trkpt>
<trkpt lat="52.052316" lon="05.694585"><ele>17.3</ele><time>2021-04-03T15:15:49Z</time><name>PT830</name></trkpt>
<trkpt lat="52.052336" lon="05.694597"><ele>17.3</ele><time>2021-04-03T15:15:50Z</time><name>PT831</name></trkpt>
<trkpt lat="52.052362" lon="05.694602"><ele>17.4</ele><time>2021-04-03T15:15:51Z</time><name>PT832</name></trkpt>
<trkpt lat="52.052386" lon="05.694607"><ele>17.4</ele><time>2021-04-03T15:15:52Z</time><name>PT833</name></trkpt>
<trkpt lat="52.052407" lon="05.694614"><ele>17.4</ele><time>2021-04-03T15:15:53Z</time><name>PT834</name></trkpt>
<trkpt lat="52.052429" lon="05.694618"><ele>17.4</ele><time>2021-04-03T15:15:54Z</time><name>PT835</name></trkpt>
<trkpt lat="52.052450" lon="05.694628"><ele>17.3</ele><time>2021-04-03T15:15:55Z</time><name>PT836</name></trkpt>
<trkpt lat="52.052475" lon="05.694631"><ele>17.3</ele><time>2021-04-03T15:15:56Z</time><name>PT837</name></trkpt>
<trkpt lat="52.052504" lon="05.694625"><ele>17.2</ele><time>2021-04-03T15:15:57Z</time><name>PT838</name></trkpt>
<trkpt lat="52.052529" lon="05.694619"><ele>17.1</ele><time>2021-04-03T15:15:58Z</time><name>PT839</name></trkpt>
<trkpt lat="52.052554" lon="05.694614"><ele>17</ele><time>2021-04-03T15:15:59Z</time><name>PT840</name></trkpt>
<trkpt lat="52.052576" lon="05.694610"><ele>17</ele><time>2021-04-03T15:16:00Z</time><name>PT841</name></trkpt>
<trkpt lat="52.052594" lon="05.694620"><ele>16.9</ele><time>2021-04-03T15:16:01Z</time><name>PT842</name></trkpt>
<trkpt lat="52.052614" lon="05.694635"><ele>17</ele><time>2021-04-03T15:16:02Z</time><name>PT843</name></trkpt>
<trkpt lat="52.052639" lon="05.694639"><ele>17.1</ele><time>2021-04-03T15:16:03Z</time><name>PT844</name></trkpt>
<trkpt lat="52.052661" lon="05.694646"><ele>17.1</ele><time>2021-04-03T15:16:04Z</time><name>PT845</name></trkpt>
<trkpt lat="52.052686" lon="05.694649"><ele>17.1</ele><time>2021-04-03T15:16:05Z</time><name>PT846</name></trkpt>
<trkpt lat="52.052709" lon="05.694653"><ele>16.9</ele><time>2021-04-03T15:16:06Z</time><name>PT847</name></trkpt>
<trkpt lat="52.052732" lon="05.694656"><ele>16.9</ele><time>2021-04-03T15:16:07Z</time><name>PT848</name></trkpt>
<trkpt lat="52.052759" lon="05.694655"><ele>16.8</ele><time>2021-04-03T15:16:08Z</time><name>PT849</name></trkpt>
<trkpt lat="52.052787" lon="05.694654"><ele>16.5</ele><time>2021-04-03T15:16:09Z</time><name>PT850</name></trkpt>
<trkpt lat="52.052813" lon="05.694669"><ele>16.5</ele><time>2021-04-03T15:16:10Z</time><name>PT851</name></trkpt>
<trkpt lat="52.052836" lon="05.694671"><ele>16.5</ele><time>2021-04-03T15:16:11Z</time><name>PT852</name></trkpt>
<trkpt lat="52.052861" lon="05.694680"><ele>16.5</ele><time>2021-04-03T15:16:12Z</time><name>PT853</name></trkpt>
<trkpt lat="52.052889" lon="05.694683"><ele>16.4</ele><time>2021-04-03T15:16:13Z</time><name>PT854</name></trkpt>
<trkpt lat="52.052912" lon="05.694688"><ele>16.4</ele><time>2021-04-03T15:16:14Z</time><name>PT855</name></trkpt>
<trkpt lat="52.052929" lon="05.694687"><ele>16.4</ele><time>2021-04-03T15:16:15Z</time><name>PT856</name></trkpt>
<trkpt lat="52.052957" lon="05.694690"><ele>16.3</ele><time>2021-04-03T15:16:16Z</time><name>PT857</name></trkpt>
<trkpt lat="52.052978" lon="05.694695"><ele>16.2</ele><time>2021-04-03T15:16:17Z</time><name>PT858</name></trkpt>
<trkpt lat="52.052998" lon="05.694696"><ele>16.2</ele><time>2021-04-03T15:16:18Z</time><name>PT859</name></trkpt>
<trkpt lat="52.053020" lon="05.694699"><ele>16.2</ele><time>2021-04-03T15:16:19Z</time><name>PT860</name></trkpt>
<trkpt lat="52.053036" lon="05.694705"><ele>15.9</ele><time>2021-04-03T15:16:20Z</time><name>PT861</name></trkpt>
<trkpt lat="52.053053" lon="05.694701"><ele>15.9</ele><time>2021-04-03T15:16:21Z</time><name>PT862</name></trkpt>
<trkpt lat="52.053063" lon="05.694715"><ele>15.8</ele><time>2021-04-03T15:16:22Z</time><name>PT863</name></trkpt>
<trkpt lat="52.053085" lon="05.694722"><ele>15.8</ele><time>2021-04-03T15:16:23Z</time><name>PT864</name></trkpt>
<trkpt lat="52.053100" lon="05.694725"><ele>15.7</ele><time>2021-04-03T15:16:24Z</time><name>PT865</name></trkpt>
<trkpt lat="52.053123" lon="05.694725"><ele>15.6</ele><time>2021-04-03T15:16:25Z</time><name>PT866</name></trkpt>
<trkpt lat="52.053148" lon="05.694733"><ele>15.5</ele><time>2021-04-03T15:16:26Z</time><name>PT867</name></trkpt>
<trkpt lat="52.053172" lon="05.694747"><ele>15.4</ele><time>2021-04-03T15:16:27Z</time><name>PT868</name></trkpt>
<trkpt lat="52.053196" lon="05.694764"><ele>15.3</ele><time>2021-04-03T15:16:28Z</time><name>PT869</name></trkpt>
<trkpt lat="52.053216" lon="05.694784"><ele>15.4</ele><time>2021-04-03T15:16:29Z</time><name>PT870</name></trkpt>
<trkpt lat="52.053235" lon="05.694804"><ele>15.4</ele><time>2021-04-03T15:16:30Z</time><name>PT871</name></trkpt>
<trkpt lat="52.053262" lon="05.694815"><ele>15.4</ele><time>2021-04-03T15:16:31Z</time><name>PT872</name></trkpt>
<trkpt lat="52.053289" lon="05.694824"><ele>15.6</ele><time>2021-04-03T15:16:32Z</time><name>PT873</name></trkpt>
<trkpt lat="52.053309" lon="05.694833"><ele>15.5</ele><time>2021-04-03T15:16:33Z</time><name>PT874</name></trkpt>
<trkpt lat="52.053335" lon="05.694859"><ele>15.3</ele><time>2021-04-03T15:16:34Z</time><name>PT875</name></trkpt>
<trkpt lat="52.053358" lon="05.694869"><ele>15.1</ele><time>2021-04-03T15:16:35Z</time><name>PT876</name></trkpt>
<trkpt lat="52.053372" lon="05.694878"><ele>43.6</ele><time>2021-04-03T15:16:36Z</time><name>PT877</name></trkpt>
<trkpt lat="52.053390" lon="05.694888"><ele>43.6</ele><time>2021-04-03T15:16:37Z</time><name>PT878</name></trkpt>
<trkpt lat="52.053406" lon="05.694902"><ele>43.4</ele><time>2021-04-03T15:16:38Z</time><name>PT879</name></trkpt>
<trkpt lat="52.053433" lon="05.694915"><ele>43.4</ele><time>2021-04-03T15:16:39Z</time><name>PT880</name></trkpt>
<trkpt lat="52.053447" lon="05.694931"><ele>43.3</ele><time>2021-04-03T15:16:40Z</time><name>PT881</name></trkpt>
<trkpt lat="52.053456" lon="05.694951"><ele>43.2</ele><time>2021-04-03T15:16:41Z</time><name>PT882</name></trkpt>
<trkpt lat="52.053480" lon="05.694967"><ele>43.4</ele><time>2021-04-03T15:16:42Z</time><name>PT883</name></trkpt>
<trkpt lat="52.053509" lon="05.694971"><ele>43.6</ele><time>2021-04-03T15:16:43Z</time><name>PT884</name></trkpt>
<trkpt lat="52.053535" lon="05.694983"><ele>43.7</ele><time>2021-04-03T15:16:44Z</time><name>PT885</name></trkpt>
<trkpt lat="52.053564" lon="05.694988"><ele>43.8</ele><time>2021-04-03T15:16:45Z</time><name>PT886</name></trkpt>
<trkpt lat="52.053585" lon="05.694994"><ele>43.9</ele><time>2021-04-03T15:16:46Z</time><name>PT887</name></trkpt>
<trkpt lat="52.053608" lon="05.695003"><ele>43.9</ele><time>2021-04-03T15:16:47Z</time><name>PT888</name></trkpt>
<trkpt lat="52.053630" lon="05.695016"><ele>44.1</ele><time>2021-04-03T15:16:48Z</time><name>PT889</name></trkpt>
<trkpt lat="52.053648" lon="05.695016"><ele>44.3</ele><time>2021-04-03T15:16:49Z</time><name>PT890</name></trkpt>
<trkpt lat="52.053669" lon="05.695013"><ele>44.3</ele><time>2021-04-03T15:16:50Z</time><name>PT891</name></trkpt>
<trkpt lat="52.053687" lon="05.695012"><ele>44.3</ele><time>2021-04-03T15:16:51Z</time><name>PT892</name></trkpt>
<trkpt lat="52.053703" lon="05.695024"><ele>44.2</ele><time>2021-04-03T15:16:52Z</time><name>PT893</name></trkpt>
<trkpt lat="52.053720" lon="05.695019"><ele>43.9</ele><time>2021-04-03T15:16:53Z</time><name>PT894</name></trkpt>
<trkpt lat="52.053740" lon="05.695028"><ele>43.9</ele><time>2021-04-03T15:16:54Z</time><name>PT895</name></trkpt>
<trkpt lat="52.053766" lon="05.695039"><ele>43.8</ele><time>2021-04-03T15:16:55Z</time><name>PT896</name></trkpt>
<trkpt lat="52.053782" lon="05.695041"><ele>43.8</ele><time>2021-04-03T15:16:56Z</time><name>PT897</name></trkpt>
<trkpt lat="52.053802" lon="05.695041"><ele>43.8</ele><time>2021-04-03T15:16:57Z</time><name>PT898</name></trkpt>
<trkpt lat="52.053821" lon="05.695044"><ele>43.6</ele><time>2021-04-03T15:16:58Z</time><name>PT899</name></trkpt>
<trkpt lat="52.053840" lon="05.695055"><ele>43.4</ele><time>2021-04-03T15:16:59Z</time><name>PT900</name></trkpt>
<trkpt lat="52.053854" lon="05.695051"><ele>43.4</ele><time>2021-04-03T15:17:00Z</time><name>PT901</name></trkpt>
<trkpt lat="52.053869" lon="05.695044"><ele>43.3</ele><time>2021-04-03T15:17:01Z</time><name>PT902</name></trkpt>
<trkpt lat="52.053879" lon="05.695050"><ele>43</ele><time>2021-04-03T15:17:02Z</time><name>PT903</name></trkpt>
<trkpt lat="52.053900" lon="05.695057"><ele>42.9</ele><time>2021-04-03T15:17:03Z</time><name>PT904</name></trkpt>
<trkpt lat="52.053919" lon="05.695064"><ele>43</ele><time>2021-04-03T15:17:04Z</time><name>PT905</name></trkpt>
<trkpt lat="52.053936" lon="05.695074"><ele>43.1</ele><time>2021-04-03T15:17:05Z</time><name>PT906</name></trkpt>
<trkpt lat="52.053952" lon="05.695073"><ele>43.4</ele><time>2021-04-03T15:17:06Z</time><name>PT907</name></trkpt>
<trkpt lat="52.053969" lon="05.695073"><ele>43.6</ele><time>2021-04-03T15:17:07Z</time><name>PT908</name></trkpt>
<trkpt lat="52.053985" lon="05.695082"><ele>43.8</ele><time>2021-04-03T15:17:08Z</time><name>PT909</name></trkpt>
<trkpt lat="52.053991" lon="05.695087"><ele>43.9</ele><time>2021-04-03T15:17:09Z</time><name>PT910</name></trkpt>
<trkpt lat="52.054004" lon="05.695092"><ele>44</ele><time>2021-04-03T15:17:10Z</time><name>PT911</name></trkpt>
<trkpt lat="52.054009" lon="05.695104"><ele>43.9</ele><time>2021-04-03T15:17:11Z</time><name>PT912</name></trkpt>
<trkpt lat="52.054047" lon="05.695107"><ele>44.6</ele><time>2021-04-03T15:17:31Z</time><name>PT913</name></trkpt>
<trkpt lat="52.054070" lon="05.695121"><ele>44.7</ele><time>2021-04-03T15:17:32Z</time><name>PT914</name></trkpt>
<trkpt lat="52.054094" lon="05.695112"><ele>44.7</ele><time>2021-04-03T15:17:33Z</time><name>PT915</name></trkpt>
<trkpt lat="52.054107" lon="05.695111"><ele>44.3</ele><time>2021-04-03T15:17:51Z</time><name>PT916</name></trkpt>
<trkpt lat="52.054120" lon="05.695106"><ele>44.3</ele><time>2021-04-03T15:17:52Z</time><name>PT917</name></trkpt>
<trkpt lat="52.054134" lon="05.695092"><ele>44.1</ele><time>2021-04-03T15:18:12Z</time><name>PT918</name></trkpt>
<trkpt lat="52.054149" lon="05.695077"><ele>44.1</ele><time>2021-04-03T15:18:13Z</time><name>PT919</name></trkpt>
<trkpt lat="52.054162" lon="05.695068"><ele>44.1</ele><time>2021-04-03T15:18:14Z</time><name>PT920</name></trkpt>
<trkpt lat="52.054166" lon="05.695051"><ele>44.1</ele><time>2021-04-03T15:18:15Z</time><name>PT921</name></trkpt>
<trkpt lat="52.054184" lon="05.695033"><ele>44.1</ele><time>2021-04-03T15:18:16Z</time><name>PT922</name></trkpt>
<trkpt lat="52.054192" lon="05.695015"><ele>44</ele><time>2021-04-03T15:18:17Z</time><name>PT923</name></trkpt>
<trkpt lat="52.054209" lon="05.694997"><ele>43.9</ele><time>2021-04-03T15:18:18Z</time><name>PT924</name></trkpt>
<trkpt lat="52.054230" lon="05.694974"><ele>43.8</ele><time>2021-04-03T15:18:19Z</time><name>PT925</name></trkpt>
<trkpt lat="52.054251" lon="05.694957"><ele>43.9</ele><time>2021-04-03T15:18:20Z</time><name>PT926</name></trkpt>
<trkpt lat="52.054264" lon="05.694931"><ele>43.8</ele><time>2021-04-03T15:18:21Z</time><name>PT927</name></trkpt>
<trkpt lat="52.054280" lon="05.694911"><ele>43.8</ele><time>2021-04-03T15:18:22Z</time><name>PT928</name></trkpt>
<trkpt lat="52.054294" lon="05.694891"><ele>43.8</ele><time>2021-04-03T15:18:23Z</time><name>PT929</name></trkpt>
<trkpt lat="52.054305" lon="05.694867"><ele>44.1</ele><time>2021-04-03T15:18:24Z</time><name>PT930</name></trkpt>
<trkpt lat="52.054316" lon="05.694835"><ele>44.3</ele><time>2021-04-03T15:18:25Z</time><name>PT931</name></trkpt>
<trkpt lat="52.054328" lon="05.694804"><ele>44.6</ele><time>2021-04-03T15:18:26Z</time><name>PT932</name></trkpt>
<trkpt lat="52.054342" lon="05.694780"><ele>44.8</ele><time>2021-04-03T15:18:27Z</time><name>PT933</name></trkpt>
<trkpt lat="52.054355" lon="05.694747"><ele>45</ele><time>2021-04-03T15:18:28Z</time><name>PT934</name></trkpt>
<trkpt lat="52.054372" lon="05.694714"><ele>45.2</ele><time>2021-04-03T15:18:29Z</time><name>PT935</name></trkpt>
<trkpt lat="52.054379" lon="05.694682"><ele>45.2</ele><time>2021-04-03T15:18:30Z</time><name>PT936</name></trkpt>
<trkpt lat="52.054393" lon="05.694652"><ele>45.3</ele><time>2021-04-03T15:18:31Z</time><name>PT937</name></trkpt>
<trkpt lat="52.054400" lon="05.694620"><ele>45.3</ele><time>2021-04-03T15:18:32Z</time><name>PT938</name></trkpt>
<trkpt lat="52.054412" lon="05.694596"><ele>45.3</ele><time>2021-04-03T15:18:33Z</time><name>PT939</name></trkpt>
<trkpt lat="52.054423" lon="05.694571"><ele>45.2</ele><time>2021-04-03T15:18:34Z</time><name>PT940</name></trkpt>
<trkpt lat="52.054430" lon="05.694549"><ele>45</ele><time>2021-04-03T15:18:35Z</time><name>PT941</name></trkpt>
<trkpt lat="52.054434" lon="05.694531"><ele>45.2</ele><time>2021-04-03T15:18:36Z</time><name>PT942</name></trkpt>
<trkpt lat="52.054439" lon="05.694510"><ele>45.1</ele><time>2021-04-03T15:18:37Z</time><name>PT943</name></trkpt>
<trkpt lat="52.054452" lon="05.694490"><ele>44.7</ele><time>2021-04-03T15:18:38Z</time><name>PT944</name></trkpt>
<trkpt lat="52.054456" lon="05.694469"><ele>44.6</ele><time>2021-04-03T15:18:39Z</time><name>PT945</name></trkpt>
<trkpt lat="52.054480" lon="05.694442"><ele>44.4</ele><time>2021-04-03T15:18:40Z</time><name>PT946</name></trkpt>
<trkpt lat="52.054500" lon="05.694414"><ele>44.1</ele><time>2021-04-03T15:18:41Z</time><name>PT947</name></trkpt>
<trkpt lat="52.054510" lon="05.694391"><ele>44.1</ele><time>2021-04-03T15:18:42Z</time><name>PT948</name></trkpt>
<trkpt lat="52.054512" lon="05.694368"><ele>44.1</ele><time>2021-04-03T15:18:43Z</time><name>PT949</name></trkpt>
<trkpt lat="52.054526" lon="05.694336"><ele>44.1</ele><time>2021-04-03T15:18:44Z</time><name>PT950</name></trkpt>
<trkpt lat="52.054544" lon="05.694302"><ele>44.3</ele><time>2021-04-03T15:18:45Z</time><name>PT951</name></trkpt>
<trkpt lat="52.054552" lon="05.694267"><ele>44.5</ele><time>2021-04-03T15:18:46Z</time><name>PT952</name></trkpt>
<trkpt lat="52.054562" lon="05.694238"><ele>44.7</ele><time>2021-04-03T15:18:47Z</time><name>PT953</name></trkpt>
<trkpt lat="52.054562" lon="05.694198"><ele>44.8</ele><time>2021-04-03T15:18:48Z</time><name>PT954</name></trkpt>
<trkpt lat="52.054567" lon="05.694163"><ele>45</ele><time>2021-04-03T15:18:49Z</time><name>PT955</name></trkpt>
<trkpt lat="52.054575" lon="05.694133"><ele>44.9</ele><time>2021-04-03T15:18:50Z</time><name>PT956</name></trkpt>
<trkpt lat="52.054578" lon="05.694098"><ele>44.9</ele><time>2021-04-03T15:18:51Z</time><name>PT957</name></trkpt>
<trkpt lat="52.054586" lon="05.694069"><ele>44.9</ele><time>2021-04-03T15:18:52Z</time><name>PT958</name></trkpt>
<trkpt lat="52.054592" lon="05.694028"><ele>44.8</ele><time>2021-04-03T15:18:53Z</time><name>PT959</name></trkpt>
<trkpt lat="52.054597" lon="05.693990"><ele>44.9</ele><time>2021-04-03T15:18:54Z</time><name>PT960</name></trkpt>
<trkpt lat="52.054604" lon="05.693955"><ele>45</ele><time>2021-04-03T15:18:55Z</time><name>PT961</name></trkpt>
<trkpt lat="52.054622" lon="05.693936"><ele>45.1</ele><time>2021-04-03T15:18:56Z</time><name>PT962</name></trkpt>
<trkpt lat="52.054637" lon="05.693922"><ele>45.3</ele><time>2021-04-03T15:18:57Z</time><name>PT963</name></trkpt>
<trkpt lat="52.054658" lon="05.693911"><ele>45.3</ele><time>2021-04-03T15:18:58Z</time><name>PT964</name></trkpt>
<trkpt lat="52.054669" lon="05.693899"><ele>45.4</ele><time>2021-04-03T15:18:59Z</time><name>PT965</name></trkpt>
<trkpt lat="52.054682" lon="05.693886"><ele>45.4</ele><time>2021-04-03T15:19:00Z</time><name>PT966</name></trkpt>
<trkpt lat="52.054695" lon="05.693875"><ele>45.2</ele><time>2021-04-03T15:19:01Z</time><name>PT967</name></trkpt>
<trkpt lat="52.054714" lon="05.693858"><ele>45.2</ele><time>2021-04-03T15:19:02Z</time><name>PT968</name></trkpt>
<trkpt lat="52.054728" lon="05.693853"><ele>45.2</ele><time>2021-04-03T15:19:03Z</time><name>PT969</name></trkpt>
<trkpt lat="52.054743" lon="05.693828"><ele>45.2</ele><time>2021-04-03T15:19:04Z</time><name>PT970</name></trkpt>
<trkpt lat="52.054764" lon="05.693811"><ele>45.2</ele><time>2021-04-03T15:19:05Z</time><name>PT971</name></trkpt>
<trkpt lat="52.054774" lon="05.693793"><ele>45.4</ele><time>2021-04-03T15:19:06Z</time><name>PT972</name></trkpt>
<trkpt lat="52.054798" lon="05.693767"><ele>45.5</ele><time>2021-04-03T15:19:07Z</time><name>PT973</name></trkpt>
<trkpt lat="52.054812" lon="05.693753"><ele>45.7</ele><time>2021-04-03T15:19:08Z</time><name>PT974</name></trkpt>
<trkpt lat="52.054827" lon="05.693727"><ele>45.9</ele><time>2021-04-03T15:19:09Z</time><name>PT975</name></trkpt>
<trkpt lat="52.054847" lon="05.693695"><ele>46</ele><time>2021-04-03T15:19:10Z</time><name>PT976</name></trkpt>
<trkpt lat="52.054862" lon="05.693665"><ele>46</ele><time>2021-04-03T15:19:11Z</time><name>PT977</name></trkpt>
<trkpt lat="52.054875" lon="05.693643"><ele>45.9</ele><time>2021-04-03T15:19:12Z</time><name>PT978</name></trkpt>
<trkpt lat="52.054887" lon="05.693600"><ele>45.8</ele><time>2021-04-03T15:19:13Z</time><name>PT979</name></trkpt>
<trkpt lat="52.054902" lon="05.693579"><ele>45.8</ele><time>2021-04-03T15:19:14Z</time><name>PT980</name></trkpt>
<trkpt lat="52.054920" lon="05.693557"><ele>46</ele><time>2021-04-03T15:19:15Z</time><name>PT981</name></trkpt>
<trkpt lat="52.054932" lon="05.693537"><ele>46.1</ele><time>2021-04-03T15:19:16Z</time><name>PT982</name></trkpt>
<trkpt lat="52.054952" lon="05.693518"><ele>46.2</ele><time>2021-04-03T15:19:17Z</time><name>PT983</name></trkpt>
<trkpt lat="52.054981" lon="05.693488"><ele>46.2</ele><time>2021-04-03T15:19:18Z</time><name>PT984</name></trkpt>
<trkpt lat="52.055001" lon="05.693451"><ele>46.2</ele><time>2021-04-03T15:19:19Z</time><name>PT985</name></trkpt>
<trkpt lat="52.055017" lon="05.693419"><ele>46.1</ele><time>2021-04-03T15:19:20Z</time><name>PT986</name></trkpt>
<trkpt lat="52.055036" lon="05.693408"><ele>46.1</ele><time>2021-04-03T15:19:21Z</time><name>PT987</name></trkpt>
<trkpt lat="52.055058" lon="05.693395"><ele>46.2</ele><time>2021-04-03T15:19:22Z</time><name>PT988</name></trkpt>
<trkpt lat="52.055089" lon="05.693371"><ele>46.1</ele><time>2021-04-03T15:19:23Z</time><name>PT989</name></trkpt>
<trkpt lat="52.055103" lon="05.693345"><ele>46.2</ele><time>2021-04-03T15:19:24Z</time><name>PT990</name></trkpt>
<trkpt lat="52.055117" lon="05.693325"><ele>46.3</ele><time>2021-04-03T15:19:25Z</time><name>PT991</name></trkpt>
<trkpt lat="52.055126" lon="05.693307"><ele>46.5</ele><time>2021-04-03T15:19:26Z</time><name>PT992</name></trkpt>
<trkpt lat="52.055132" lon="05.693287"><ele>46.7</ele><time>2021-04-03T15:19:27Z</time><name>PT993</name></trkpt>
<trkpt lat="52.055134" lon="05.693279"><ele>46.8</ele><time>2021-04-03T15:19:28Z</time><name>PT994</name></trkpt>
<trkpt lat="52.055160" lon="05.693264"><ele>46.9</ele><time>2021-04-03T15:19:29Z</time><name>PT995</name></trkpt>
<trkpt lat="52.055183" lon="05.693243"><ele>46.7</ele><time>2021-04-03T15:19:30Z</time><name>PT996</name></trkpt>
<trkpt lat="52.055185" lon="05.693232"><ele>46.6</ele><time>2021-04-03T15:19:31Z</time><name>PT997</name></trkpt>
<trkpt lat="52.055189" lon="05.693216"><ele>46.6</ele><time>2021-04-03T15:19:32Z</time><name>PT998</name></trkpt>
<trkpt lat="52.055203" lon="05.693199"><ele>47</ele><time>2021-04-03T15:19:44Z</time><name>PT999</name></trkpt>
<trkpt lat="52.055211" lon="05.693164"><ele>47</ele><time>2021-04-03T15:19:45Z</time><name>PT1000</name></trkpt>
<trkpt lat="52.055220" lon="05.693145"><ele>47</ele><time>2021-04-03T15:19:46Z</time><name>PT1001</name></trkpt>
<trkpt lat="52.055222" lon="05.693129"><ele>46.9</ele><time>2021-04-03T15:19:47Z</time><name>PT1002</name></trkpt>
<trkpt lat="52.055231" lon="05.693118"><ele>46.8</ele><time>2021-04-03T15:19:48Z</time><name>PT1003</name></trkpt>
<trkpt lat="52.055240" lon="05.693109"><ele>46.7</ele><time>2021-04-03T15:19:49Z</time><name>PT1004</name></trkpt>
<trkpt lat="52.055250" lon="05.693095"><ele>46.1</ele><time>2021-04-03T15:19:55Z</time><name>PT1005</name></trkpt>
<trkpt lat="52.055264" lon="05.693089"><ele>46</ele><time>2021-04-03T15:19:56Z</time><name>PT1006</name></trkpt>
<trkpt lat="52.055272" lon="05.693080"><ele>46</ele><time>2021-04-03T15:19:57Z</time><name>PT1007</name></trkpt>
<trkpt lat="52.055276" lon="05.693065"><ele>46.1</ele><time>2021-04-03T15:19:58Z</time><name>PT1008</name></trkpt>
<trkpt lat="52.055284" lon="05.693055"><ele>46.2</ele><time>2021-04-03T15:19:59Z</time><name>PT1009</name></trkpt>
<trkpt lat="52.055290" lon="05.693051"><ele>46.1</ele><time>2021-04-03T15:20:00Z</time><name>PT1010</name></trkpt>
<trkpt lat="52.055292" lon="05.693038"><ele>46.5</ele><time>2021-04-03T15:20:08Z</time><name>PT1011</name></trkpt>
<trkpt lat="52.055296" lon="05.693031"><ele>46.4</ele><time>2021-04-03T15:20:09Z</time><name>PT1012</name></trkpt>
<trkpt lat="52.055298" lon="05.693027"><ele>46.4</ele><time>2021-04-03T15:20:10Z</time><name>PT1013</name></trkpt>
<trkpt lat="52.055298" lon="05.693016"><ele>46.4</ele><time>2021-04-03T15:20:11Z</time><name>PT1014</name></trkpt>
<trkpt lat="52.055303" lon="05.692996"><ele>46.5</ele><time>2021-04-03T15:20:19Z</time><name>PT1015</name></trkpt>
<trkpt lat="52.055309" lon="05.692985"><ele>46.4</ele><time>2021-04-03T15:20:20Z</time><name>PT1016</name></trkpt>
<trkpt lat="52.055311" lon="05.692979"><ele>46.6</ele><time>2021-04-03T15:20:21Z</time><name>PT1017</name></trkpt>
<trkpt lat="52.055312" lon="05.692979"><ele>46.6</ele><time>2021-04-03T15:20:32Z</time><name>PT1018</name></trkpt>
<trkpt lat="52.055312" lon="05.692972"><ele>46.5</ele><time>2021-04-03T15:20:33Z</time><name>PT1019</name></trkpt>
<trkpt lat="52.055336" lon="05.692950"><ele>46.3</ele><time>2021-04-03T15:20:36Z</time><name>PT1020</name></trkpt>
<trkpt lat="52.055347" lon="05.692944"><ele>46.1</ele><time>2021-04-03T15:20:37Z</time><name>PT1021</name></trkpt>
<trkpt lat="52.055354" lon="05.692930"><ele>46.6</ele><time>2021-04-03T15:20:46Z</time><name>PT1022</name></trkpt>
<trkpt lat="52.055356" lon="05.692912"><ele>46.5</ele><time>2021-04-03T15:20:47Z</time><name>PT1023</name></trkpt>
<trkpt lat="52.055362" lon="05.692891"><ele>46.5</ele><time>2021-04-03T15:20:48Z</time><name>PT1024</name></trkpt>
<trkpt lat="52.055385" lon="05.692908"><ele>46.5</ele><time>2021-04-03T15:20:49Z</time><name>PT1025</name></trkpt>
<trkpt lat="52.055393" lon="05.692885"><ele>46.5</ele><time>2021-04-03T15:20:50Z</time><name>PT1026</name></trkpt>
<trkpt lat="52.055405" lon="05.692866"><ele>46.6</ele><time>2021-04-03T15:20:51Z</time><name>PT1027</name></trkpt>
<trkpt lat="52.055418" lon="05.692856"><ele>46.6</ele><time>2021-04-03T15:20:52Z</time><name>PT1028</name></trkpt>
<trkpt lat="52.055435" lon="05.692852"><ele>46.6</ele><time>2021-04-03T15:20:53Z</time><name>PT1029</name></trkpt>
<trkpt lat="52.055448" lon="05.692840"><ele>46.1</ele><time>2021-04-03T15:20:54Z</time><name>PT1030</name></trkpt>
<trkpt lat="52.055461" lon="05.692832"><ele>46.1</ele><time>2021-04-03T15:20:55Z</time><name>PT1031</name></trkpt>
<trkpt lat="52.055473" lon="05.692820"><ele>45.7</ele><time>2021-04-03T15:20:56Z</time><name>PT1032</name></trkpt>
<trkpt lat="52.055478" lon="05.692808"><ele>45.3</ele><time>2021-04-03T15:20:57Z</time><name>PT1033</name></trkpt>
<trkpt lat="52.055489" lon="05.692776"><ele>45.4</ele><time>2021-04-03T15:20:58Z</time><name>PT1034</name></trkpt>
<trkpt lat="52.055505" lon="05.692759"><ele>45.2</ele><time>2021-04-03T15:20:59Z</time><name>PT1035</name></trkpt>
<trkpt lat="52.055517" lon="05.692737"><ele>45.2</ele><time>2021-04-03T15:21:00Z</time><name>PT1036</name></trkpt>
<trkpt lat="52.055530" lon="05.692734"><ele>45.3</ele><time>2021-04-03T15:21:01Z</time><name>PT1037</name></trkpt>
<trkpt lat="52.055538" lon="05.692730"><ele>45.9</ele><time>2021-04-03T15:21:02Z</time><name>PT1038</name></trkpt>
<trkpt lat="52.055548" lon="05.692733"><ele>46.1</ele><time>2021-04-03T15:21:03Z</time><name>PT1039</name></trkpt>
<trkpt lat="52.055568" lon="05.692713"><ele>46.3</ele><time>2021-04-03T15:21:04Z</time><name>PT1040</name></trkpt>
<trkpt lat="52.055579" lon="05.692713"><ele>46.6</ele><time>2021-04-03T15:21:05Z</time><name>PT1041</name></trkpt>
<trkpt lat="52.055598" lon="05.692701"><ele>46.6</ele><time>2021-04-03T15:21:06Z</time><name>PT1042</name></trkpt>
<trkpt lat="52.055611" lon="05.692686"><ele>46.7</ele><time>2021-04-03T15:21:07Z</time><name>PT1043</name></trkpt>
<trkpt lat="52.055622" lon="05.692669"><ele>46.7</ele><time>2021-04-03T15:21:08Z</time><name>PT1044</name></trkpt>
<trkpt lat="52.055631" lon="05.692645"><ele>46.7</ele><time>2021-04-03T15:21:09Z</time><name>PT1045</name></trkpt>
<trkpt lat="52.055643" lon="05.692628"><ele>46.6</ele><time>2021-04-03T15:21:10Z</time><name>PT1046</name></trkpt>
<trkpt lat="52.055648" lon="05.692614"><ele>46.6</ele><time>2021-04-03T15:21:11Z</time><name>PT1047</name></trkpt>
<trkpt lat="52.055663" lon="05.692599"><ele>46.6</ele><time>2021-04-03T15:21:12Z</time><name>PT1048</name></trkpt>
<trkpt lat="52.055673" lon="05.692585"><ele>46.6</ele><time>2021-04-03T15:21:13Z</time><name>PT1049</name></trkpt>
<trkpt lat="52.055690" lon="05.692570"><ele>46.7</ele><time>2021-04-03T15:21:14Z</time><name>PT1050</name></trkpt>
<trkpt lat="52.055702" lon="05.692561"><ele>46.5</ele><time>2021-04-03T15:21:15Z</time><name>PT1051</name></trkpt>
<trkpt lat="52.055708" lon="05.692546"><ele>46.5</ele><time>2021-04-03T15:21:16Z</time><name>PT1052</name></trkpt>
<trkpt lat="52.055715" lon="05.692522"><ele>46.4</ele><time>2021-04-03T15:21:17Z</time><name>PT1053</name></trkpt>
<trkpt lat="52.055725" lon="05.692506"><ele>46.2</ele><time>2021-04-03T15:21:18Z</time><name>PT1054</name></trkpt>
<trkpt lat="52.055743" lon="05.692483"><ele>46.3</ele><time>2021-04-03T15:21:19Z</time><name>PT1055</name></trkpt>
<trkpt lat="52.055759" lon="05.692453"><ele>46.2</ele><time>2021-04-03T15:21:20Z</time><name>PT1056</name></trkpt>
<trkpt lat="52.055775" lon="05.692427"><ele>46.2</ele><time>2021-04-03T15:21:21Z</time><name>PT1057</name></trkpt>
<trkpt lat="52.055784" lon="05.692406"><ele>46.4</ele><time>2021-04-03T15:21:22Z</time><name>PT1058</name></trkpt>
<trkpt lat="52.055793" lon="05.692391"><ele>46.4</ele><time>2021-04-03T15:21:23Z</time><name>PT1059</name></trkpt>
<trkpt lat="52.055796" lon="05.692359"><ele>46.6</ele><time>2021-04-03T15:21:24Z</time><name>PT1060</name></trkpt>
<trkpt lat="52.055800" lon="05.692333"><ele>46.6</ele><time>2021-04-03T15:21:25Z</time><name>PT1061</name></trkpt>
<trkpt lat="52.055813" lon="05.692313"><ele>46.6</ele><time>2021-04-03T15:21:26Z</time><name>PT1062</name></trkpt>
<trkpt lat="52.055823" lon="05.692290"><ele>46.6</ele><time>2021-04-03T15:21:27Z</time><name>PT1063</name></trkpt>
<trkpt lat="52.055831" lon="05.692264"><ele>46.6</ele><time>2021-04-03T15:21:28Z</time><name>PT1064</name></trkpt>
<trkpt lat="52.055838" lon="05.692250"><ele>46.7</ele><time>2021-04-03T15:21:29Z</time><name>PT1065</name></trkpt>
<trkpt lat="52.055845" lon="05.692228"><ele>46.9</ele><time>2021-04-03T15:21:30Z</time><name>PT1066</name></trkpt>
<trkpt lat="52.055854" lon="05.692210"><ele>47</ele><time>2021-04-03T15:21:31Z</time><name>PT1067</name></trkpt>
<trkpt lat="52.055861" lon="05.692186"><ele>47.1</ele><time>2021-04-03T15:21:32Z</time><name>PT1068</name></trkpt>
<trkpt lat="52.055870" lon="05.692162"><ele>47.1</ele><time>2021-04-03T15:21:33Z</time><name>PT1069</name></trkpt>
<trkpt lat="52.055881" lon="05.692140"><ele>47</ele><time>2021-04-03T15:21:34Z</time><name>PT1070</name></trkpt>
<trkpt lat="52.055891" lon="05.692113"><ele>47</ele><time>2021-04-03T15:21:35Z</time><name>PT1071</name></trkpt>
<trkpt lat="52.055896" lon="05.692092"><ele>47</ele><time>2021-04-03T15:21:36Z</time><name>PT1072</name></trkpt>
<trkpt lat="52.055898" lon="05.692065"><ele>47</ele><time>2021-04-03T15:21:37Z</time><name>PT1073</name></trkpt>
<trkpt lat="52.055907" lon="05.692048"><ele>47</ele><time>2021-04-03T15:21:38Z</time><name>PT1074</name></trkpt>
<trkpt lat="52.055908" lon="05.692028"><ele>47</ele><time>2021-04-03T15:21:39Z</time><name>PT1075</name></trkpt>
<trkpt lat="52.055914" lon="05.692006"><ele>47.1</ele><time>2021-04-03T15:21:40Z</time><name>PT1076</name></trkpt>
<trkpt lat="52.055919" lon="05.691991"><ele>47.3</ele><time>2021-04-03T15:21:41Z</time><name>PT1077</name></trkpt>
<trkpt lat="52.055924" lon="05.691969"><ele>47.3</ele><time>2021-04-03T15:21:42Z</time><name>PT1078</name></trkpt>
<trkpt lat="52.055923" lon="05.691937"><ele>47.3</ele><time>2021-04-03T15:21:43Z</time><name>PT1079</name></trkpt>
<trkpt lat="52.055920" lon="05.691910"><ele>47.4</ele><time>2021-04-03T15:21:44Z</time><name>PT1080</name></trkpt>
<trkpt lat="52.055924" lon="05.691891"><ele>47.6</ele><time>2021-04-03T15:21:45Z</time><name>PT1081</name></trkpt>
<trkpt lat="52.055931" lon="05.691869"><ele>47.6</ele><time>2021-04-03T15:21:46Z</time><name>PT1082</name></trkpt>
<trkpt lat="52.055938" lon="05.691850"><ele>47.8</ele><time>2021-04-03T15:21:47Z</time><name>PT1083</name></trkpt>
<trkpt lat="52.055947" lon="05.691827"><ele>47.8</ele><time>2021-04-03T15:21:48Z</time><name>PT1084</name></trkpt>
<trkpt lat="52.055955" lon="05.691800"><ele>47.9</ele><time>2021-04-03T15:21:49Z</time><name>PT1085</name></trkpt>
<trkpt lat="52.055959" lon="05.691774"><ele>47.9</ele><time>2021-04-03T15:21:50Z</time><name>PT1086</name></trkpt>
<trkpt lat="52.055961" lon="05.691742"><ele>48.1</ele><time>2021-04-03T15:21:51Z</time><name>PT1087</name></trkpt>
<trkpt lat="52.055966" lon="05.691710"><ele>48.3</ele><time>2021-04-03T15:21:52Z</time><name>PT1088</name></trkpt>
<trkpt lat="52.055964" lon="05.691672"><ele>48.3</ele><time>2021-04-03T15:21:53Z</time><name>PT1089</name></trkpt>
<trkpt lat="52.055967" lon="05.691644"><ele>48.3</ele><time>2021-04-03T15:21:54Z</time><name>PT1090</name></trkpt>
<trkpt lat="52.055968" lon="05.691606"><ele>48.3</ele><time>2021-04-03T15:21:55Z</time><name>PT1091</name></trkpt>
<trkpt lat="52.055969" lon="05.691572"><ele>48.4</ele><time>2021-04-03T15:21:56Z</time><name>PT1092</name></trkpt>
<trkpt lat="52.055972" lon="05.691540"><ele>48.4</ele><time>2021-04-03T15:21:57Z</time><name>PT1093</name></trkpt>
<trkpt lat="52.055977" lon="05.691519"><ele>48.6</ele><time>2021-04-03T15:21:58Z</time><name>PT1094</name></trkpt>
<trkpt lat="52.055985" lon="05.691493"><ele>48.8</ele><time>2021-04-03T15:21:59Z</time><name>PT1095</name></trkpt>
<trkpt lat="52.055989" lon="05.691463"><ele>48.6</ele><time>2021-04-03T15:22:00Z</time><name>PT1096</name></trkpt>
<trkpt lat="52.055991" lon="05.691429"><ele>48.7</ele><time>2021-04-03T15:22:01Z</time><name>PT1097</name></trkpt>
<trkpt lat="52.055990" lon="05.691402"><ele>48.5</ele><time>2021-04-03T15:22:02Z</time><name>PT1098</name></trkpt>
<trkpt lat="52.055994" lon="05.691379"><ele>48.4</ele><time>2021-04-03T15:22:03Z</time><name>PT1099</name></trkpt>
<trkpt lat="52.055992" lon="05.691351"><ele>48.4</ele><time>2021-04-03T15:22:04Z</time><name>PT1100</name></trkpt>
<trkpt lat="52.055992" lon="05.691333"><ele>48.3</ele><time>2021-04-03T15:22:05Z</time><name>PT1101</name></trkpt>
<trkpt lat="52.055995" lon="05.691315"><ele>48.4</ele><time>2021-04-03T15:22:06Z</time><name>PT1102</name></trkpt>
<trkpt lat="52.055989" lon="05.691288"><ele>48.5</ele><time>2021-04-03T15:22:07Z</time><name>PT1103</name></trkpt>
<trkpt lat="52.055985" lon="05.691265"><ele>48.6</ele><time>2021-04-03T15:22:08Z</time><name>PT1104</name></trkpt>
<trkpt lat="52.055983" lon="05.691242"><ele>48.9</ele><time>2021-04-03T15:22:09Z</time><name>PT1105</name></trkpt>
<trkpt lat="52.055974" lon="05.691204"><ele>48.9</ele><time>2021-04-03T15:22:10Z</time><name>PT1106</name></trkpt>
<trkpt lat="52.055965" lon="05.691168"><ele>48.9</ele><time>2021-04-03T15:22:11Z</time><name>PT1107</name></trkpt>
<trkpt lat="52.055963" lon="05.691139"><ele>48.8</ele><time>2021-04-03T15:22:12Z</time><name>PT1108</name></trkpt>
<trkpt lat="52.055958" lon="05.691100"><ele>48.6</ele><time>2021-04-03T15:22:13Z</time><name>PT1109</name></trkpt>
<trkpt lat="52.055952" lon="05.691061"><ele>48.4</ele><time>2021-04-03T15:22:14Z</time><name>PT1110</name></trkpt>
<trkpt lat="52.055943" lon="05.691014"><ele>48.2</ele><time>2021-04-03T15:22:15Z</time><name>PT1111</name></trkpt>
<trkpt lat="52.055937" lon="05.690971"><ele>48.2</ele><time>2021-04-03T15:22:16Z</time><name>PT1112</name></trkpt>
<trkpt lat="52.055934" lon="05.690933"><ele>48.4</ele><time>2021-04-03T15:22:17Z</time><name>PT1113</name></trkpt>
<trkpt lat="52.055931" lon="05.690901"><ele>48.6</ele><time>2021-04-03T15:22:18Z</time><name>PT1114</name></trkpt>
<trkpt lat="52.055925" lon="05.690871"><ele>48.9</ele><time>2021-04-03T15:22:19Z</time><name>PT1115</name></trkpt>
<trkpt lat="52.055925" lon="05.690846"><ele>49.3</ele><time>2021-04-03T15:22:20Z</time><name>PT1116</name></trkpt>
<trkpt lat="52.055923" lon="05.690830"><ele>49.3</ele><time>2021-04-03T15:22:21Z</time><name>PT1117</name></trkpt>
<trkpt lat="52.055924" lon="05.690820"><ele>49.3</ele><time>2021-04-03T15:22:22Z</time><name>PT1118</name></trkpt>
<trkpt lat="52.055923" lon="05.690806"><ele>49.3</ele><time>2021-04-03T15:22:23Z</time><name>PT1119</name></trkpt>
<trkpt lat="52.055917" lon="05.690792"><ele>49.3</ele><time>2021-04-03T15:22:24Z</time><name>PT1120</name></trkpt>
<trkpt lat="52.055911" lon="05.690741"><ele>48.9</ele><time>2021-04-03T15:22:38Z</time><name>PT1121</name></trkpt>
<trkpt lat="52.055919" lon="05.690689"><ele>48.9</ele><time>2021-04-03T15:22:39Z</time><name>PT1122</name></trkpt>
<trkpt lat="52.055917" lon="05.690649"><ele>48.9</ele><time>2021-04-03T15:22:40Z</time><name>PT1123</name></trkpt>
<trkpt lat="52.055915" lon="05.690610"><ele>48.7</ele><time>2021-04-03T15:22:41Z</time><name>PT1124</name></trkpt>
<trkpt lat="52.055911" lon="05.690566"><ele>48.5</ele><time>2021-04-03T15:22:43Z</time><name>PT1125</name></trkpt>
<trkpt lat="52.055910" lon="05.690526"><ele>48.4</ele><time>2021-04-03T15:22:43Z</time><name>PT1126</name></trkpt>
<trkpt lat="52.055907" lon="05.690486"><ele>48.4</ele><time>2021-04-03T15:22:44Z</time><name>PT1127</name></trkpt>
<trkpt lat="52.055901" lon="05.690443"><ele>48.4</ele><time>2021-04-03T15:22:45Z</time><name>PT1128</name></trkpt>
<trkpt lat="52.055899" lon="05.690407"><ele>48.5</ele><time>2021-04-03T15:22:46Z</time><name>PT1129</name></trkpt>
<trkpt lat="52.055894" lon="05.690357"><ele>48.4</ele><time>2021-04-03T15:22:47Z</time><name>PT1130</name></trkpt>
<trkpt lat="52.055887" lon="05.690324"><ele>48.4</ele><time>2021-04-03T15:22:48Z</time><name>PT1131</name></trkpt>
<trkpt lat="52.055883" lon="05.690301"><ele>48.4</ele><time>2021-04-03T15:22:49Z</time><name>PT1132</name></trkpt>
<trkpt lat="52.055889" lon="05.690286"><ele>48.4</ele><time>2021-04-03T15:22:50Z</time><name>PT1133</name></trkpt>
<trkpt lat="52.055887" lon="05.690275"><ele>48.7</ele><time>2021-04-03T15:22:51Z</time><name>PT1134</name></trkpt>
<trkpt lat="52.055886" lon="05.690255"><ele>48.7</ele><time>2021-04-03T15:22:52Z</time><name>PT1135</name></trkpt>
<trkpt lat="52.055878" lon="05.690125"><ele>50</ele><time>2021-04-03T15:27:30Z</time><name>PT1136</name></trkpt>
<trkpt lat="52.055850" lon="05.690090"><ele>49.9</ele><time>2021-04-03T15:27:31Z</time><name>PT1137</name></trkpt>
<trkpt lat="52.055848" lon="05.690058"><ele>49.9</ele><time>2021-04-03T15:27:32Z</time><name>PT1138</name></trkpt>
<trkpt lat="52.055836" lon="05.690028"><ele>50.2</ele><time>2021-04-03T15:27:33Z</time><name>PT1139</name></trkpt>
<trkpt lat="52.055821" lon="05.690004"><ele>50.3</ele><time>2021-04-03T15:27:34Z</time><name>PT1140</name></trkpt>
<trkpt lat="52.055817" lon="05.689976"><ele>50.3</ele><time>2021-04-03T15:27:35Z</time><name>PT1141</name></trkpt>
<trkpt lat="52.055806" lon="05.689940"><ele>50.3</ele><time>2021-04-03T15:27:36Z</time><name>PT1142</name></trkpt>
<trkpt lat="52.055795" lon="05.689911"><ele>50.3</ele><time>2021-04-03T15:27:37Z</time><name>PT1143</name></trkpt>
<trkpt lat="52.055786" lon="05.689878"><ele>50.3</ele><time>2021-04-03T15:27:38Z</time><name>PT1144</name></trkpt>
<trkpt lat="52.055775" lon="05.689841"><ele>50.4</ele><time>2021-04-03T15:27:39Z</time><name>PT1145</name></trkpt>
<trkpt lat="52.055771" lon="05.689813"><ele>50.4</ele><time>2021-04-03T15:27:40Z</time><name>PT1146</name></trkpt>
<trkpt lat="52.055762" lon="05.689777"><ele>50.5</ele><time>2021-04-03T15:27:41Z</time><name>PT1147</name></trkpt>
<trkpt lat="52.055754" lon="05.689745"><ele>50.3</ele><time>2021-04-03T15:27:42Z</time><name>PT1148</name></trkpt>
<trkpt lat="52.055740" lon="05.689707"><ele>50.3</ele><time>2021-04-03T15:27:43Z</time><name>PT1149</name></trkpt>
<trkpt lat="52.055731" lon="05.689669"><ele>50.3</ele><time>2021-04-03T15:27:44Z</time><name>PT1150</name></trkpt>
<trkpt lat="52.055723" lon="05.689647"><ele>50.3</ele><time>2021-04-03T15:27:45Z</time><name>PT1151</name></trkpt>
<trkpt lat="52.055717" lon="05.689639"><ele>50.4</ele><time>2021-04-03T15:27:46Z</time><name>PT1152</name></trkpt>
<trkpt lat="52.055709" lon="05.689624"><ele>50.7</ele><time>2021-04-03T15:27:47Z</time><name>PT1153</name></trkpt>
<trkpt lat="52.055704" lon="05.689607"><ele>50.8</ele><time>2021-04-03T15:27:48Z</time><name>PT1154</name></trkpt>
<trkpt lat="52.055696" lon="05.689591"><ele>50.7</ele><time>2021-04-03T15:27:49Z</time><name>PT1155</name></trkpt>
<trkpt lat="52.055693" lon="05.689572"><ele>50.7</ele><time>2021-04-03T15:27:50Z</time><name>PT1156</name></trkpt>
<trkpt lat="52.055687" lon="05.689559"><ele>50.7</ele><time>2021-04-03T15:27:51Z</time><name>PT1157</name></trkpt>
<trkpt lat="52.055676" lon="05.689541"><ele>50.7</ele><time>2021-04-03T15:27:52Z</time><name>PT1158</name></trkpt>
<trkpt lat="52.055667" lon="05.689527"><ele>50.4</ele><time>2021-04-03T15:27:53Z</time><name>PT1159</name></trkpt>
<trkpt lat="52.055658" lon="05.689509"><ele>50.5</ele><time>2021-04-03T15:27:54Z</time><name>PT1160</name></trkpt>
<trkpt lat="52.055653" lon="05.689503"><ele>50.6</ele><time>2021-04-03T15:27:55Z</time><name>PT1161</name></trkpt>
<trkpt lat="52.055640" lon="05.689490"><ele>50.5</ele><time>2021-04-03T15:27:56Z</time><name>PT1162</name></trkpt>
<trkpt lat="52.055622" lon="05.689456"><ele>50.5</ele><time>2021-04-03T15:27:57Z</time><name>PT1163</name></trkpt>
<trkpt lat="52.055608" lon="05.689436"><ele>50.5</ele><time>2021-04-03T15:27:58Z</time><name>PT1164</name></trkpt>
<trkpt lat="52.055593" lon="05.689418"><ele>50</ele><time>2021-04-03T15:27:59Z</time><name>PT1165</name></trkpt>
<trkpt lat="52.055578" lon="05.689396"><ele>50</ele><time>2021-04-03T15:28:00Z</time><name>PT1166</name></trkpt>
<trkpt lat="52.055560" lon="05.689370"><ele>50</ele><time>2021-04-03T15:28:01Z</time><name>PT1167</name></trkpt>
<trkpt lat="52.055546" lon="05.689350"><ele>50.1</ele><time>2021-04-03T15:28:02Z</time><name>PT1168</name></trkpt>
<trkpt lat="52.055532" lon="05.689330"><ele>50</ele><time>2021-04-03T15:28:03Z</time><name>PT1169</name></trkpt>
<trkpt lat="52.055517" lon="05.689308"><ele>49.8</ele><time>2021-04-03T15:28:04Z</time><name>PT1170</name></trkpt>
<trkpt lat="52.055502" lon="05.689290"><ele>49.7</ele><time>2021-04-03T15:28:05Z</time><name>PT1171</name></trkpt>
<trkpt lat="52.055491" lon="05.689259"><ele>49.8</ele><time>2021-04-03T15:28:06Z</time><name>PT1172</name></trkpt>
<trkpt lat="52.055478" lon="05.689230"><ele>50</ele><time>2021-04-03T15:28:07Z</time><name>PT1173</name></trkpt>
<trkpt lat="52.055463" lon="05.689209"><ele>50.2</ele><time>2021-04-03T15:28:08Z</time><name>PT1174</name></trkpt>
<trkpt lat="52.055448" lon="05.689188"><ele>50.4</ele><time>2021-04-03T15:28:09Z</time><name>PT1175</name></trkpt>
<trkpt lat="52.055431" lon="05.689150"><ele>50.4</ele><time>2021-04-03T15:28:10Z</time><name>PT1176</name></trkpt>
<trkpt lat="52.055419" lon="05.689129"><ele>50.4</ele><time>2021-04-03T15:28:11Z</time><name>PT1177</name></trkpt>
<trkpt lat="52.055407" lon="05.689103"><ele>50.5</ele><time>2021-04-03T15:28:12Z</time><name>PT1178</name></trkpt>
<trkpt lat="52.055391" lon="05.689076"><ele>50.4</ele><time>2021-04-03T15:28:13Z</time><name>PT1179</name></trkpt>
<trkpt lat="52.055370" lon="05.689047"><ele>50.1</ele><time>2021-04-03T15:28:14Z</time><name>PT1180</name></trkpt>
<trkpt lat="52.055352" lon="05.689015"><ele>49.8</ele><time>2021-04-03T15:28:15Z</time><name>PT1181</name></trkpt>
<trkpt lat="52.055333" lon="05.688977"><ele>49.6</ele><time>2021-04-03T15:28:16Z</time><name>PT1182</name></trkpt>
<trkpt lat="52.055314" lon="05.688948"><ele>49.1</ele><time>2021-04-03T15:28:17Z</time><name>PT1183</name></trkpt>
<trkpt lat="52.055290" lon="05.688913"><ele>48.7</ele><time>2021-04-03T15:28:18Z</time><name>PT1184</name></trkpt>
<trkpt lat="52.055273" lon="05.688882"><ele>48.6</ele><time>2021-04-03T15:28:19Z</time><name>PT1185</name></trkpt>
<trkpt lat="52.055255" lon="05.688855"><ele>48.4</ele><time>2021-04-03T15:28:20Z</time><name>PT1186</name></trkpt>
<trkpt lat="52.055236" lon="05.688822"><ele>48.5</ele><time>2021-04-03T15:28:21Z</time><name>PT1187</name></trkpt>
<trkpt lat="52.055215" lon="05.688791"><ele>48.5</ele><time>2021-04-03T15:28:22Z</time><name>PT1188</name></trkpt>
<trkpt lat="52.055198" lon="05.688763"><ele>48.9</ele><time>2021-04-03T15:28:23Z</time><name>PT1189</name></trkpt>
<trkpt lat="52.055179" lon="05.688737"><ele>48.9</ele><time>2021-04-03T15:28:24Z</time><name>PT1190</name></trkpt>
<trkpt lat="52.055159" lon="05.688718"><ele>49</ele><time>2021-04-03T15:28:25Z</time><name>PT1191</name></trkpt>
<trkpt lat="52.055136" lon="05.688688"><ele>49.2</ele><time>2021-04-03T15:28:26Z</time><name>PT1192</name></trkpt>
<trkpt lat="52.055115" lon="05.688661"><ele>48.8</ele><time>2021-04-03T15:28:27Z</time><name>PT1193</name></trkpt>
<trkpt lat="52.055101" lon="05.688648"><ele>48.8</ele><time>2021-04-03T15:28:28Z</time><name>PT1194</name></trkpt>
<trkpt lat="52.055082" lon="05.688619"><ele>48.6</ele><time>2021-04-03T15:28:29Z</time><name>PT1195</name></trkpt>
<trkpt lat="52.055069" lon="05.688596"><ele>48.5</ele><time>2021-04-03T15:28:30Z</time><name>PT1196</name></trkpt>
<trkpt lat="52.055054" lon="05.688576"><ele>48.7</ele><time>2021-04-03T15:28:31Z</time><name>PT1197</name></trkpt>
<trkpt lat="52.055043" lon="05.688570"><ele>48.9</ele><time>2021-04-03T15:28:32Z</time><name>PT1198</name></trkpt>
<trkpt lat="52.055038" lon="05.688555"><ele>48.9</ele><time>2021-04-03T15:28:33Z</time><name>PT1199</name></trkpt>
<trkpt lat="52.055023" lon="05.688523"><ele>48.9</ele><time>2021-04-03T15:28:34Z</time><name>PT1200</name></trkpt>
<trkpt lat="52.055006" lon="05.688498"><ele>48.5</ele><time>2021-04-03T15:28:35Z</time><name>PT1201</name></trkpt>
<trkpt lat="52.054992" lon="05.688480"><ele>48.1</ele><time>2021-04-03T15:28:36Z</time><name>PT1202</name></trkpt>
<trkpt lat="52.054977" lon="05.688458"><ele>48</ele><time>2021-04-03T15:28:37Z</time><name>PT1203</name></trkpt>
<trkpt lat="52.054964" lon="05.688437"><ele>47.5</ele><time>2021-04-03T15:28:38Z</time><name>PT1204</name></trkpt>
<trkpt lat="52.054952" lon="05.688418"><ele>47.1</ele><time>2021-04-03T15:28:39Z</time><name>PT1205</name></trkpt>
<trkpt lat="52.054937" lon="05.688398"><ele>47.3</ele><time>2021-04-03T15:28:40Z</time><name>PT1206</name></trkpt>
<trkpt lat="52.054929" lon="05.688370"><ele>47</ele><time>2021-04-03T15:28:41Z</time><name>PT1207</name></trkpt>
<trkpt lat="52.054915" lon="05.688329"><ele>47.1</ele><time>2021-04-03T15:28:42Z</time><name>PT1208</name></trkpt>
<trkpt lat="52.054903" lon="05.688307"><ele>47.2</ele><time>2021-04-03T15:28:43Z</time><name>PT1209</name></trkpt>
<trkpt lat="52.054892" lon="05.688284"><ele>47.5</ele><time>2021-04-03T15:28:44Z</time><name>PT1210</name></trkpt>
<trkpt lat="52.054879" lon="05.688266"><ele>47.8</ele><time>2021-04-03T15:28:45Z</time><name>PT1211</name></trkpt>
<trkpt lat="52.054873" lon="05.688260"><ele>48</ele><time>2021-04-03T15:28:46Z</time><name>PT1212</name></trkpt>
<trkpt lat="52.054863" lon="05.688226"><ele>47.9</ele><time>2021-04-03T15:28:47Z</time><name>PT1213</name></trkpt>
<trkpt lat="52.054845" lon="05.688183"><ele>47.5</ele><time>2021-04-03T15:28:48Z</time><name>PT1214</name></trkpt>
<trkpt lat="52.054825" lon="05.688137"><ele>47.5</ele><time>2021-04-03T15:28:49Z</time><name>PT1215</name></trkpt>
<trkpt lat="52.054806" lon="05.688091"><ele>47.4</ele><time>2021-04-03T15:28:50Z</time><name>PT1216</name></trkpt>
<trkpt lat="52.054788" lon="05.688048"><ele>47.4</ele><time>2021-04-03T15:28:51Z</time><name>PT1217</name></trkpt>
<trkpt lat="52.054776" lon="05.688013"><ele>47.5</ele><time>2021-04-03T15:28:52Z</time><name>PT1218</name></trkpt>
<trkpt lat="52.054761" lon="05.687966"><ele>47.5</ele><time>2021-04-03T15:28:53Z</time><name>PT1219</name></trkpt>
<trkpt lat="52.054741" lon="05.687906"><ele>47.4</ele><time>2021-04-03T15:28:54Z</time><name>PT1220</name></trkpt>
<trkpt lat="52.054732" lon="05.687873"><ele>47.1</ele><time>2021-04-03T15:28:55Z</time><name>PT1221</name></trkpt>
<trkpt lat="52.054715" lon="05.687833"><ele>46.7</ele><time>2021-04-03T15:28:56Z</time><name>PT1222</name></trkpt>
<trkpt lat="52.054690" lon="05.687784"><ele>46.5</ele><time>2021-04-03T15:28:57Z</time><name>PT1223</name></trkpt>
<trkpt lat="52.054679" lon="05.687760"><ele>46.4</ele><time>2021-04-03T15:28:58Z</time><name>PT1224</name></trkpt>
<trkpt lat="52.054668" lon="05.687718"><ele>46</ele><time>2021-04-03T15:28:59Z</time><name>PT1225</name></trkpt>
<trkpt lat="52.054654" lon="05.687673"><ele>45.9</ele><time>2021-04-03T15:29:00Z</time><name>PT1226</name></trkpt>
<trkpt lat="52.054630" lon="05.687619"><ele>45.9</ele><time>2021-04-03T15:29:01Z</time><name>PT1227</name></trkpt>
<trkpt lat="52.054610" lon="05.687574"><ele>45.6</ele><time>2021-04-03T15:29:02Z</time><name>PT1228</name></trkpt>
<trkpt lat="52.054588" lon="05.687518"><ele>45.5</ele><time>2021-04-03T15:29:03Z</time><name>PT1229</name></trkpt>
<trkpt lat="52.054568" lon="05.687461"><ele>45.4</ele><time>2021-04-03T15:29:04Z</time><name>PT1230</name></trkpt>
<trkpt lat="52.054547" lon="05.687412"><ele>45.4</ele><time>2021-04-03T15:29:05Z</time><name>PT1231</name></trkpt>
<trkpt lat="52.054524" lon="05.687347"><ele>45.6</ele><time>2021-04-03T15:29:06Z</time><name>PT1232</name></trkpt>
<trkpt lat="52.054508" lon="05.687297"><ele>45.7</ele><time>2021-04-03T15:29:07Z</time><name>PT1233</name></trkpt>
<trkpt lat="52.054487" lon="05.687242"><ele>45.7</ele><time>2021-04-03T15:29:08Z</time><name>PT1234</name></trkpt>
<trkpt lat="52.054470" lon="05.687189"><ele>45.7</ele><time>2021-04-03T15:29:09Z</time><name>PT1235</name></trkpt>
<trkpt lat="52.054462" lon="05.687154"><ele>45.8</ele><time>2021-04-03T15:29:10Z</time><name>PT1236</name></trkpt>
<trkpt lat="52.054461" lon="05.687117"><ele>45.5</ele><time>2021-04-03T15:29:11Z</time><name>PT1237</name></trkpt>
<trkpt lat="52.054448" lon="05.687056"><ele>45.7</ele><time>2021-04-03T15:29:12Z</time><name>PT1238</name></trkpt>
<trkpt lat="52.054441" lon="05.687013"><ele>45.5</ele><time>2021-04-03T15:29:13Z</time><name>PT1239</name></trkpt>
<trkpt lat="52.054435" lon="05.686958"><ele>45.2</ele><time>2021-04-03T15:29:14Z</time><name>PT1240</name></trkpt>
<trkpt lat="52.054423" lon="05.686903"><ele>45.2</ele><time>2021-04-03T15:29:15Z</time><name>PT1241</name></trkpt>
<trkpt lat="52.054410" lon="05.686839"><ele>44.9</ele><time>2021-04-03T15:29:16Z</time><name>PT1242</name></trkpt>
<trkpt lat="52.054403" lon="05.686785"><ele>44.8</ele><time>2021-04-03T15:29:17Z</time><name>PT1243</name></trkpt>
<trkpt lat="52.054400" lon="05.686747"><ele>44.7</ele><time>2021-04-03T15:29:18Z</time><name>PT1244</name></trkpt>
<trkpt lat="52.054378" lon="05.686682"><ele>44.7</ele><time>2021-04-03T15:29:19Z</time><name>PT1245</name></trkpt>
<trkpt lat="52.054361" lon="05.686623"><ele>44.7</ele><time>2021-04-03T15:29:20Z</time><name>PT1246</name></trkpt>
<trkpt lat="52.054337" lon="05.686567"><ele>45</ele><time>2021-04-03T15:29:21Z</time><name>PT1247</name></trkpt>
<trkpt lat="52.054328" lon="05.686517"><ele>45</ele><time>2021-04-03T15:29:22Z</time><name>PT1248</name></trkpt>
<trkpt lat="52.054322" lon="05.686463"><ele>45.1</ele><time>2021-04-03T15:29:23Z</time><name>PT1249</name></trkpt>
<trkpt lat="52.054322" lon="05.686428"><ele>45.2</ele><time>2021-04-03T15:29:24Z</time><name>PT1250</name></trkpt>
<trkpt lat="52.054314" lon="05.686371"><ele>45.2</ele><time>2021-04-03T15:29:25Z</time><name>PT1251</name></trkpt>
<trkpt lat="52.054314" lon="05.686332"><ele>45</ele><time>2021-04-03T15:29:26Z</time><name>PT1252</name></trkpt>
<trkpt lat="52.054313" lon="05.686291"><ele>44.9</ele><time>2021-04-03T15:29:27Z</time><name>PT1253</name></trkpt>
<trkpt lat="52.054313" lon="05.686235"><ele>44.7</ele><time>2021-04-03T15:29:28Z</time><name>PT1254</name></trkpt>
<trkpt lat="52.054314" lon="05.686189"><ele>44.4</ele><time>2021-04-03T15:29:29Z</time><name>PT1255</name></trkpt>
<trkpt lat="52.054307" lon="05.686132"><ele>44.3</ele><time>2021-04-03T15:29:30Z</time><name>PT1256</name></trkpt>
<trkpt lat="52.054292" lon="05.686068"><ele>44.3</ele><time>2021-04-03T15:29:31Z</time><name>PT1257</name></trkpt>
<trkpt lat="52.054279" lon="05.686003"><ele>44.2</ele><time>2021-04-03T15:29:32Z</time><name>PT1258</name></trkpt>
<trkpt lat="52.054260" lon="05.685931"><ele>44.2</ele><time>2021-04-03T15:29:33Z</time><name>PT1259</name></trkpt>
<trkpt lat="52.054246" lon="05.685872"><ele>44.2</ele><time>2021-04-03T15:29:34Z</time><name>PT1260</name></trkpt>
<trkpt lat="52.054239" lon="05.685831"><ele>43.9</ele><time>2021-04-03T15:29:35Z</time><name>PT1261</name></trkpt>
<trkpt lat="52.054224" lon="05.685765"><ele>43.9</ele><time>2021-04-03T15:29:36Z</time><name>PT1262</name></trkpt>
<trkpt lat="52.054208" lon="05.685709"><ele>44</ele><time>2021-04-03T15:29:37Z</time><name>PT1263</name></trkpt>
<trkpt lat="52.054191" lon="05.685655"><ele>43.8</ele><time>2021-04-03T15:29:38Z</time><name>PT1264</name></trkpt>
<trkpt lat="52.054172" lon="05.685601"><ele>44</ele><time>2021-04-03T15:29:39Z</time><name>PT1265</name></trkpt>
<trkpt lat="52.054154" lon="05.685553"><ele>43.9</ele><time>2021-04-03T15:29:40Z</time><name>PT1266</name></trkpt>
<trkpt lat="52.054137" lon="05.685507"><ele>43.9</ele><time>2021-04-03T15:29:41Z</time><name>PT1267</name></trkpt>
<trkpt lat="52.054121" lon="05.685457"><ele>44</ele><time>2021-04-03T15:29:42Z</time><name>PT1268</name></trkpt>
<trkpt lat="52.054100" lon="05.685397"><ele>44</ele><time>2021-04-03T15:29:43Z</time><name>PT1269</name></trkpt>
<trkpt lat="52.054081" lon="05.685339"><ele>43.8</ele><time>2021-04-03T15:29:44Z</time><name>PT1270</name></trkpt>
<trkpt lat="52.054067" lon="05.685291"><ele>43.8</ele><time>2021-04-03T15:29:45Z</time><name>PT1271</name></trkpt>
<trkpt lat="52.054046" lon="05.685233"><ele>43.8</ele><time>2021-04-03T15:29:46Z</time><name>PT1272</name></trkpt>
<trkpt lat="52.054029" lon="05.685181"><ele>43.6</ele><time>2021-04-03T15:29:47Z</time><name>PT1273</name></trkpt>
<trkpt lat="52.054021" lon="05.685145"><ele>43.7</ele><time>2021-04-03T15:29:48Z</time><name>PT1274</name></trkpt>
<trkpt lat="52.053997" lon="05.685078"><ele>43.7</ele><time>2021-04-03T15:29:49Z</time><name>PT1275</name></trkpt>
<trkpt lat="52.053981" lon="05.685040"><ele>43.5</ele><time>2021-04-03T15:29:50Z</time><name>PT1276</name></trkpt>
<trkpt lat="52.053968" lon="05.685005"><ele>43.6</ele><time>2021-04-03T15:29:51Z</time><name>PT1277</name></trkpt>
<trkpt lat="52.053951" lon="05.684964"><ele>43.4</ele><time>2021-04-03T15:29:52Z</time><name>PT1278</name></trkpt>
<trkpt lat="52.053939" lon="05.684939"><ele>43.1</ele><time>2021-04-03T15:29:53Z</time><name>PT1279</name></trkpt>
<trkpt lat="52.053925" lon="05.684912"><ele>43.2</ele><time>2021-04-03T15:29:54Z</time><name>PT1280</name></trkpt>
<trkpt lat="52.053912" lon="05.684868"><ele>42.9</ele><time>2021-04-03T15:29:55Z</time><name>PT1281</name></trkpt>
<trkpt lat="52.053895" lon="05.684811"><ele>42.9</ele><time>2021-04-03T15:29:56Z</time><name>PT1282</name></trkpt>
<trkpt lat="52.053884" lon="05.684772"><ele>43.3</ele><time>2021-04-03T15:29:57Z</time><name>PT1283</name></trkpt>
<trkpt lat="52.053872" lon="05.684731"><ele>43</ele><time>2021-04-03T15:29:58Z</time><name>PT1284</name></trkpt>
<trkpt lat="52.053858" lon="05.684677"><ele>42.9</ele><time>2021-04-03T15:29:59Z</time><name>PT1285</name></trkpt>
<trkpt lat="52.053844" lon="05.684620"><ele>42.9</ele><time>2021-04-03T15:30:00Z</time><name>PT1286</name></trkpt>
<trkpt lat="52.053834" lon="05.684579"><ele>42.8</ele><time>2021-04-03T15:30:01Z</time><name>PT1287</name></trkpt>
<trkpt lat="52.053818" lon="05.684529"><ele>42.9</ele><time>2021-04-03T15:30:02Z</time><name>PT1288</name></trkpt>
<trkpt lat="52.053811" lon="05.684500"><ele>43.2</ele><time>2021-04-03T15:30:03Z</time><name>PT1289</name></trkpt>
<trkpt lat="52.053797" lon="05.684455"><ele>43.3</ele><time>2021-04-03T15:30:04Z</time><name>PT1290</name></trkpt>
<trkpt lat="52.053784" lon="05.684408"><ele>43.2</ele><time>2021-04-03T15:30:05Z</time><name>PT1291</name></trkpt>
<trkpt lat="52.053774" lon="05.684362"><ele>43.2</ele><time>2021-04-03T15:30:06Z</time><name>PT1292</name></trkpt>
<trkpt lat="52.053767" lon="05.684323"><ele>43.3</ele><time>2021-04-03T15:30:07Z</time><name>PT1293</name></trkpt>
<trkpt lat="52.053763" lon="05.684288"><ele>43.4</ele><time>2021-04-03T15:30:08Z</time><name>PT1294</name></trkpt>
<trkpt lat="52.053758" lon="05.684257"><ele>43.4</ele><time>2021-04-03T15:30:09Z</time><name>PT1295</name></trkpt>
<trkpt lat="52.053759" lon="05.684230"><ele>43.5</ele><time>2021-04-03T15:30:10Z</time><name>PT1296</name></trkpt>
<trkpt lat="52.053741" lon="05.684157"><ele>43.4</ele><time>2021-04-03T15:30:11Z</time><name>PT1297</name></trkpt>
<trkpt lat="52.053731" lon="05.684110"><ele>43.4</ele><time>2021-04-03T15:30:12Z</time><name>PT1298</name></trkpt>
<trkpt lat="52.053720" lon="05.684061"><ele>43.5</ele><time>2021-04-03T15:30:13Z</time><name>PT1299</name></trkpt>
<trkpt lat="52.053711" lon="05.684009"><ele>43.4</ele><time>2021-04-03T15:30:14Z</time><name>PT1300</name></trkpt>
<trkpt lat="52.053702" lon="05.683966"><ele>43.1</ele><time>2021-04-03T15:30:15Z</time><name>PT1301</name></trkpt>
<trkpt lat="52.053691" lon="05.683912"><ele>43.1</ele><time>2021-04-03T15:30:16Z</time><name>PT1302</name></trkpt>
<trkpt lat="52.053683" lon="05.683869"><ele>42.8</ele><time>2021-04-03T15:30:17Z</time><name>PT1303</name></trkpt>
<trkpt lat="52.053674" lon="05.683829"><ele>42.7</ele><time>2021-04-03T15:30:18Z</time><name>PT1304</name></trkpt>
<trkpt lat="52.053671" lon="05.683794"><ele>42.9</ele><time>2021-04-03T15:30:19Z</time><name>PT1305</name></trkpt>
<trkpt lat="52.053657" lon="05.683746"><ele>42.8</ele><time>2021-04-03T15:30:20Z</time><name>PT1306</name></trkpt>
<trkpt lat="52.053648" lon="05.683704"><ele>42.9</ele><time>2021-04-03T15:30:21Z</time><name>PT1307</name></trkpt>
<trkpt lat="52.053634" lon="05.683661"><ele>42.7</ele><time>2021-04-03T15:30:22Z</time><name>PT1308</name></trkpt>
<trkpt lat="52.053624" lon="05.683617"><ele>42.5</ele><time>2021-04-03T15:30:23Z</time><name>PT1309</name></trkpt>
<trkpt lat="52.053609" lon="05.683581"><ele>42.4</ele><time>2021-04-03T15:30:24Z</time><name>PT1310</name></trkpt>
<trkpt lat="52.053594" lon="05.683559"><ele>42.4</ele><time>2021-04-03T15:30:25Z</time><name>PT1311</name></trkpt>
<trkpt lat="52.053567" lon="05.683534"><ele>42.5</ele><time>2021-04-03T15:30:26Z</time><name>PT1312</name></trkpt>
<trkpt lat="52.053540" lon="05.683503"><ele>42.5</ele><time>2021-04-03T15:30:27Z</time><name>PT1313</name></trkpt>
<trkpt lat="52.053512" lon="05.683466"><ele>42.5</ele><time>2021-04-03T15:30:28Z</time><name>PT1314</name></trkpt>
<trkpt lat="52.053487" lon="05.683447"><ele>42.5</ele><time>2021-04-03T15:30:29Z</time><name>PT1315</name></trkpt>
<trkpt lat="52.053462" lon="05.683425"><ele>42.2</ele><time>2021-04-03T15:30:30Z</time><name>PT1316</name></trkpt>
<trkpt lat="52.053437" lon="05.683400"><ele>42</ele><time>2021-04-03T15:30:31Z</time><name>PT1317</name></trkpt>
<trkpt lat="52.053417" lon="05.683380"><ele>42.3</ele><time>2021-04-03T15:30:32Z</time><name>PT1318</name></trkpt>
<trkpt lat="52.053399" lon="05.683360"><ele>42.3</ele><time>2021-04-03T15:30:33Z</time><name>PT1319</name></trkpt>
<trkpt lat="52.053378" lon="05.683348"><ele>42.5</ele><time>2021-04-03T15:30:34Z</time><name>PT1320</name></trkpt>
<trkpt lat="52.053366" lon="05.683341"><ele>42.7</ele><time>2021-04-03T15:30:35Z</time><name>PT1321</name></trkpt>
<trkpt lat="52.053349" lon="05.683337"><ele>42.6</ele><time>2021-04-03T15:30:36Z</time><name>PT1322</name></trkpt>
<trkpt lat="52.053329" lon="05.683344"><ele>42.7</ele><time>2021-04-03T15:30:37Z</time><name>PT1323</name></trkpt>
<trkpt lat="52.053300" lon="05.683329"><ele>42.5</ele><time>2021-04-03T15:30:38Z</time><name>PT1324</name></trkpt>
<trkpt lat="52.053282" lon="05.683321"><ele>42.5</ele><time>2021-04-03T15:30:39Z</time><name>PT1325</name></trkpt>
<trkpt lat="52.053262" lon="05.683324"><ele>42.5</ele><time>2021-04-03T15:30:40Z</time><name>PT1326</name></trkpt>
<trkpt lat="52.053232" lon="05.683339"><ele>42.5</ele><time>2021-04-03T15:30:41Z</time><name>PT1327</name></trkpt>
<trkpt lat="52.053215" lon="05.683351"><ele>42.5</ele><time>2021-04-03T15:30:42Z</time><name>PT1328</name></trkpt>
<trkpt lat="52.053194" lon="05.683376"><ele>42.4</ele><time>2021-04-03T15:30:43Z</time><name>PT1329</name></trkpt>
<trkpt lat="52.053156" lon="05.683394"><ele>42.4</ele><time>2021-04-03T15:30:44Z</time><name>PT1330</name></trkpt>
<trkpt lat="52.053127" lon="05.683418"><ele>42.3</ele><time>2021-04-03T15:30:45Z</time><name>PT1331</name></trkpt>
<trkpt lat="52.053103" lon="05.683440"><ele>42.3</ele><time>2021-04-03T15:30:46Z</time><name>PT1332</name></trkpt>
<trkpt lat="52.053078" lon="05.683460"><ele>42.3</ele><time>2021-04-03T15:30:47Z</time><name>PT1333</name></trkpt>
<trkpt lat="52.053054" lon="05.683482"><ele>42.1</ele><time>2021-04-03T15:30:48Z</time><name>PT1334</name></trkpt>
<trkpt lat="52.053028" lon="05.683510"><ele>42.2</ele><time>2021-04-03T15:30:49Z</time><name>PT1335</name></trkpt>
<trkpt lat="52.053006" lon="05.683539"><ele>42.1</ele><time>2021-04-03T15:30:50Z</time><name>PT1336</name></trkpt>
<trkpt lat="52.052979" lon="05.683559"><ele>41.9</ele><time>2021-04-03T15:30:51Z</time><name>PT1337</name></trkpt>
<trkpt lat="52.052944" lon="05.683595"><ele>41.9</ele><time>2021-04-03T15:30:52Z</time><name>PT1338</name></trkpt>
<trkpt lat="52.052909" lon="05.683629"><ele>41.7</ele><time>2021-04-03T15:30:53Z</time><name>PT1339</name></trkpt>
<trkpt lat="52.052874" lon="05.683664"><ele>41.4</ele><time>2021-04-03T15:30:54Z</time><name>PT1340</name></trkpt>
<trkpt lat="52.052837" lon="05.683706"><ele>41.4</ele><time>2021-04-03T15:30:55Z</time><name>PT1341</name></trkpt>
<trkpt lat="52.052802" lon="05.683743"><ele>41.1</ele><time>2021-04-03T15:30:56Z</time><name>PT1342</name></trkpt>
<trkpt lat="52.052776" lon="05.683778"><ele>41.1</ele><time>2021-04-03T15:30:57Z</time><name>PT1343</name></trkpt>
<trkpt lat="52.052745" lon="05.683814"><ele>41.1</ele><time>2021-04-03T15:30:58Z</time><name>PT1344</name></trkpt>
<trkpt lat="52.052725" lon="05.683843"><ele>40.9</ele><time>2021-04-03T15:30:59Z</time><name>PT1345</name></trkpt>
<trkpt lat="52.052693" lon="05.683882"><ele>40.6</ele><time>2021-04-03T15:31:00Z</time><name>PT1346</name></trkpt>
<trkpt lat="52.052665" lon="05.683915"><ele>40.6</ele><time>2021-04-03T15:31:01Z</time><name>PT1347</name></trkpt>
<trkpt lat="52.052641" lon="05.683936"><ele>40.4</ele><time>2021-04-03T15:31:02Z</time><name>PT1348</name></trkpt>
<trkpt lat="52.052614" lon="05.683985"><ele>40.6</ele><time>2021-04-03T15:31:03Z</time><name>PT1349</name></trkpt>
<trkpt lat="52.052597" lon="05.684031"><ele>40.7</ele><time>2021-04-03T15:31:04Z</time><name>PT1350</name></trkpt>
<trkpt lat="52.052575" lon="05.684056"><ele>40.7</ele><time>2021-04-03T15:31:05Z</time><name>PT1351</name></trkpt>
<trkpt lat="52.052551" lon="05.684082"><ele>40.7</ele><time>2021-04-03T15:31:06Z</time><name>PT1352</name></trkpt>
<trkpt lat="52.052531" lon="05.684112"><ele>40.8</ele><time>2021-04-03T15:31:07Z</time><name>PT1353</name></trkpt>
<trkpt lat="52.052506" lon="05.684151"><ele>40.7</ele><time>2021-04-03T15:31:08Z</time><name>PT1354</name></trkpt>
<trkpt lat="52.052487" lon="05.684191"><ele>40.9</ele><time>2021-04-03T15:31:09Z</time><name>PT1355</name></trkpt>
<trkpt lat="52.052462" lon="05.684224"><ele>40.7</ele><time>2021-04-03T15:31:10Z</time><name>PT1356</name></trkpt>
<trkpt lat="52.052427" lon="05.684261"><ele>40.8</ele><time>2021-04-03T15:31:11Z</time><name>PT1357</name></trkpt>
<trkpt lat="52.052403" lon="05.684290"><ele>40.6</ele><time>2021-04-03T15:31:12Z</time><name>PT1358</name></trkpt>
<trkpt lat="52.052381" lon="05.684314"><ele>40.6</ele><time>2021-04-03T15:31:13Z</time><name>PT1359</name></trkpt>
<trkpt lat="52.052361" lon="05.684338"><ele>40.6</ele><time>2021-04-03T15:31:14Z</time><name>PT1360</name></trkpt>
<trkpt lat="52.052350" lon="05.684354"><ele>40.6</ele><time>2021-04-03T15:31:15Z</time><name>PT1361</name></trkpt>
<trkpt lat="52.052329" lon="05.684381"><ele>40.7</ele><time>2021-04-03T15:31:16Z</time><name>PT1362</name></trkpt>
<trkpt lat="52.052300" lon="05.684417"><ele>40.6</ele><time>2021-04-03T15:31:17Z</time><name>PT1363</name></trkpt>
<trkpt lat="52.052289" lon="05.684442"><ele>40.5</ele><time>2021-04-03T15:31:18Z</time><name>PT1364</name></trkpt>
<trkpt lat="52.052280" lon="05.684470"><ele>40.6</ele><time>2021-04-03T15:31:19Z</time><name>PT1365</name></trkpt>
<trkpt lat="52.052262" lon="05.684486"><ele>40.7</ele><time>2021-04-03T15:31:20Z</time><name>PT1366</name></trkpt>
<trkpt lat="52.052244" lon="05.684510"><ele>41</ele><time>2021-04-03T15:31:21Z</time><name>PT1367</name></trkpt>
<trkpt lat="52.052225" lon="05.684537"><ele>40.9</ele><time>2021-04-03T15:31:22Z</time><name>PT1368</name></trkpt>
<trkpt lat="52.052198" lon="05.684557"><ele>41.1</ele><time>2021-04-03T15:31:23Z</time><name>PT1369</name></trkpt>
<trkpt lat="52.052179" lon="05.684576"><ele>41.1</ele><time>2021-04-03T15:31:24Z</time><name>PT1370</name></trkpt>
<trkpt lat="52.052149" lon="05.684609"><ele>41.1</ele><time>2021-04-03T15:31:25Z</time><name>PT1371</name></trkpt>
<trkpt lat="52.052128" lon="05.684620"><ele>41</ele><time>2021-04-03T15:31:26Z</time><name>PT1372</name></trkpt>
<trkpt lat="52.052098" lon="05.684658"><ele>41</ele><time>2021-04-03T15:31:27Z</time><name>PT1373</name></trkpt>
<trkpt lat="52.052074" lon="05.684686"><ele>41</ele><time>2021-04-03T15:31:28Z</time><name>PT1374</name></trkpt>
<trkpt lat="52.052056" lon="05.684720"><ele>40.9</ele><time>2021-04-03T15:31:29Z</time><name>PT1375</name></trkpt>
<trkpt lat="52.052038" lon="05.684744"><ele>40.9</ele><time>2021-04-03T15:31:30Z</time><name>PT1376</name></trkpt>
<trkpt lat="52.052015" lon="05.684779"><ele>40.8</ele><time>2021-04-03T15:31:31Z</time><name>PT1377</name></trkpt>
<trkpt lat="52.051990" lon="05.684800"><ele>40.8</ele><time>2021-04-03T15:31:32Z</time><name>PT1378</name></trkpt>
<trkpt lat="52.051964" lon="05.684836"><ele>40.9</ele><time>2021-04-03T15:31:33Z</time><name>PT1379</name></trkpt>
<trkpt lat="52.051946" lon="05.684863"><ele>41</ele><time>2021-04-03T15:31:34Z</time><name>PT1380</name></trkpt>
<trkpt lat="52.051907" lon="05.684899"><ele>41.1</ele><time>2021-04-03T15:31:35Z</time><name>PT1381</name></trkpt>
<trkpt lat="52.051869" lon="05.684935"><ele>41.1</ele><time>2021-04-03T15:31:36Z</time><name>PT1382</name></trkpt>
<trkpt lat="52.051843" lon="05.684966"><ele>41.1</ele><time>2021-04-03T15:31:37Z</time><name>PT1383</name></trkpt>
<trkpt lat="52.051811" lon="05.685005"><ele>41.1</ele><time>2021-04-03T15:31:38Z</time><name>PT1384</name></trkpt>
<trkpt lat="52.051774" lon="05.685044"><ele>40.9</ele><time>2021-04-03T15:31:39Z</time><name>PT1385</name></trkpt>
<trkpt lat="52.051753" lon="05.685079"><ele>40.9</ele><time>2021-04-03T15:31:40Z</time><name>PT1386</name></trkpt>
<trkpt lat="52.051727" lon="05.685111"><ele>40.8</ele><time>2021-04-03T15:31:41Z</time><name>PT1387</name></trkpt>
<trkpt lat="52.051708" lon="05.685141"><ele>40.9</ele><time>2021-04-03T15:31:42Z</time><name>PT1388</name></trkpt>
<trkpt lat="52.051682" lon="05.685160"><ele>41.1</ele><time>2021-04-03T15:31:43Z</time><name>PT1389</name></trkpt>
<trkpt lat="52.051655" lon="05.685194"><ele>41.2</ele><time>2021-04-03T15:31:44Z</time><name>PT1390</name></trkpt>
<trkpt lat="52.051630" lon="05.685209"><ele>41.2</ele><time>2021-04-03T15:31:45Z</time><name>PT1391</name></trkpt>
<trkpt lat="52.051603" lon="05.685234"><ele>41.1</ele><time>2021-04-03T15:31:46Z</time><name>PT1392</name></trkpt>
<trkpt lat="52.051574" lon="05.685261"><ele>40.8</ele><time>2021-04-03T15:31:47Z</time><name>PT1393</name></trkpt>
<trkpt lat="52.051550" lon="05.685281"><ele>40.7</ele><time>2021-04-03T15:31:48Z</time><name>PT1394</name></trkpt>
<trkpt lat="52.051522" lon="05.685306"><ele>40.6</ele><time>2021-04-03T15:31:49Z</time><name>PT1395</name></trkpt>
<trkpt lat="52.051484" lon="05.685330"><ele>40.5</ele><time>2021-04-03T15:31:50Z</time><name>PT1396</name></trkpt>
<trkpt lat="52.051449" lon="05.685340"><ele>40.4</ele><time>2021-04-03T15:31:51Z</time><name>PT1397</name></trkpt>
<trkpt lat="52.051412" lon="05.685355"><ele>40.4</ele><time>2021-04-03T15:31:52Z</time><name>PT1398</name></trkpt>
<trkpt lat="52.051373" lon="05.685378"><ele>40.2</ele><time>2021-04-03T15:31:53Z</time><name>PT1399</name></trkpt>
<trkpt lat="52.051346" lon="05.685387"><ele>40.3</ele><time>2021-04-03T15:31:54Z</time><name>PT1400</name></trkpt>
<trkpt lat="52.051318" lon="05.685405"><ele>40.2</ele><time>2021-04-03T15:31:55Z</time><name>PT1401</name></trkpt>
<trkpt lat="52.051278" lon="05.685437"><ele>40.2</ele><time>2021-04-03T15:31:56Z</time><name>PT1402</name></trkpt>
<trkpt lat="52.051243" lon="05.685454"><ele>40.2</ele><time>2021-04-03T15:31:57Z</time><name>PT1403</name></trkpt>
<trkpt lat="52.051206" lon="05.685477"><ele>40.2</ele><time>2021-04-03T15:31:58Z</time><name>PT1404</name></trkpt>
<trkpt lat="52.051174" lon="05.685497"><ele>40.2</ele><time>2021-04-03T15:31:59Z</time><name>PT1405</name></trkpt>
<trkpt lat="52.051154" lon="05.685507"><ele>40.2</ele><time>2021-04-03T15:32:00Z</time><name>PT1406</name></trkpt>
<trkpt lat="52.051130" lon="05.685523"><ele>40.3</ele><time>2021-04-03T15:32:01Z</time><name>PT1407</name></trkpt>
<trkpt lat="52.051107" lon="05.685548"><ele>40.5</ele><time>2021-04-03T15:32:02Z</time><name>PT1408</name></trkpt>
<trkpt lat="52.051085" lon="05.685568"><ele>40.4</ele><time>2021-04-03T15:32:03Z</time><name>PT1409</name></trkpt>
<trkpt lat="52.051067" lon="05.685599"><ele>40.4</ele><time>2021-04-03T15:32:04Z</time><name>PT1410</name></trkpt>
<trkpt lat="52.051048" lon="05.685620"><ele>40.4</ele><time>2021-04-03T15:32:05Z</time><name>PT1411</name></trkpt>
<trkpt lat="52.051029" lon="05.685638"><ele>40.3</ele><time>2021-04-03T15:32:06Z</time><name>PT1412</name></trkpt>
<trkpt lat="52.051012" lon="05.685655"><ele>40.3</ele><time>2021-04-03T15:32:07Z</time><name>PT1413</name></trkpt>
<trkpt lat="52.050984" lon="05.685677"><ele>40.4</ele><time>2021-04-03T15:32:08Z</time><name>PT1414</name></trkpt>
<trkpt lat="52.050960" lon="05.685695"><ele>40.3</ele><time>2021-04-03T15:32:09Z</time><name>PT1415</name></trkpt>
<trkpt lat="52.050940" lon="05.685701"><ele>40.4</ele><time>2021-04-03T15:32:10Z</time><name>PT1416</name></trkpt>
<trkpt lat="52.050929" lon="05.685732"><ele>40.6</ele><time>2021-04-03T15:32:11Z</time><name>PT1417</name></trkpt>
<trkpt lat="52.050913" lon="05.685763"><ele>40.6</ele><time>2021-04-03T15:32:12Z</time><name>PT1418</name></trkpt>
<trkpt lat="52.050892" lon="05.685784"><ele>40.6</ele><time>2021-04-03T15:32:13Z</time><name>PT1419</name></trkpt>
<trkpt lat="52.050875" lon="05.685803"><ele>40.6</ele><time>2021-04-03T15:32:14Z</time><name>PT1420</name></trkpt>
<trkpt lat="52.050862" lon="05.685812"><ele>40.5</ele><time>2021-04-03T15:32:15Z</time><name>PT1421</name></trkpt>
<trkpt lat="52.050844" lon="05.685827"><ele>40.5</ele><time>2021-04-03T15:32:16Z</time><name>PT1422</name></trkpt>
<trkpt lat="52.050823" lon="05.685833"><ele>40.4</ele><time>2021-04-03T15:32:17Z</time><name>PT1423</name></trkpt>
<trkpt lat="52.050805" lon="05.685839"><ele>40.4</ele><time>2021-04-03T15:32:18Z</time><name>PT1424</name></trkpt>
<trkpt lat="52.050788" lon="05.685842"><ele>40.4</ele><time>2021-04-03T15:32:19Z</time><name>PT1425</name></trkpt>
<trkpt lat="52.050767" lon="05.685852"><ele>40.5</ele><time>2021-04-03T15:32:20Z</time><name>PT1426</name></trkpt>
<trkpt lat="52.050749" lon="05.685864"><ele>40.5</ele><time>2021-04-03T15:32:22Z</time><name>PT1427</name></trkpt>
<trkpt lat="52.050730" lon="05.685879"><ele>40.6</ele><time>2021-04-03T15:32:22Z</time><name>PT1428</name></trkpt>
<trkpt lat="52.050712" lon="05.685894"><ele>40.6</ele><time>2021-04-03T15:32:23Z</time><name>PT1429</name></trkpt>
<trkpt lat="52.050699" lon="05.685900"><ele>40.5</ele><time>2021-04-03T15:32:24Z</time><name>PT1430</name></trkpt>
<trkpt lat="52.050682" lon="05.685917"><ele>40.5</ele><time>2021-04-03T15:32:25Z</time><name>PT1431</name></trkpt>
<trkpt lat="52.050667" lon="05.685931"><ele>40.4</ele><time>2021-04-03T15:32:26Z</time><name>PT1432</name></trkpt>
<trkpt lat="52.050648" lon="05.685953"><ele>40.5</ele><time>2021-04-03T15:32:27Z</time><name>PT1433</name></trkpt>
<trkpt lat="52.050627" lon="05.685978"><ele>40.4</ele><time>2021-04-03T15:32:28Z</time><name>PT1434</name></trkpt>
<trkpt lat="52.050605" lon="05.686003"><ele>40.4</ele><time>2021-04-03T15:32:29Z</time><name>PT1435</name></trkpt>
<trkpt lat="52.050580" lon="05.686034"><ele>40.5</ele><time>2021-04-03T15:32:30Z</time><name>PT1436</name></trkpt>
<trkpt lat="52.050564" lon="05.686057"><ele>40.4</ele><time>2021-04-03T15:32:31Z</time><name>PT1437</name></trkpt>
<trkpt lat="52.050544" lon="05.686086"><ele>40.4</ele><time>2021-04-03T15:32:32Z</time><name>PT1438</name></trkpt>
<trkpt lat="52.050524" lon="05.686114"><ele>40.5</ele><time>2021-04-03T15:32:33Z</time><name>PT1439</name></trkpt>
<trkpt lat="52.050505" lon="05.686137"><ele>40.5</ele><time>2021-04-03T15:32:34Z</time><name>PT1440</name></trkpt>
<trkpt lat="52.050487" lon="05.686161"><ele>40.4</ele><time>2021-04-03T15:32:35Z</time><name>PT1441</name></trkpt>
<trkpt lat="52.050473" lon="05.686173"><ele>40.3</ele><time>2021-04-03T15:32:36Z</time><name>PT1442</name></trkpt>
<trkpt lat="52.050462" lon="05.686180"><ele>40.4</ele><time>2021-04-03T15:32:37Z</time><name>PT1443</name></trkpt>
<trkpt lat="52.050445" lon="05.686207"><ele>40.5</ele><time>2021-04-03T15:32:38Z</time><name>PT1444</name></trkpt>
<trkpt lat="52.050438" lon="05.686221"><ele>40.4</ele><time>2021-04-03T15:32:39Z</time><name>PT1445</name></trkpt>
<trkpt lat="52.050416" lon="05.686238"><ele>40.4</ele><time>2021-04-03T15:32:40Z</time><name>PT1446</name></trkpt>
<trkpt lat="52.050388" lon="05.686252"><ele>40.4</ele><time>2021-04-03T15:32:41Z</time><name>PT1447</name></trkpt>
<trkpt lat="52.050363" lon="05.686253"><ele>40.5</ele><time>2021-04-03T15:32:42Z</time><name>PT1448</name></trkpt>
<trkpt lat="52.050340" lon="05.686258"><ele>40.6</ele><time>2021-04-03T15:32:43Z</time><name>PT1449</name></trkpt>
<trkpt lat="52.050315" lon="05.686255"><ele>40.8</ele><time>2021-04-03T15:32:44Z</time><name>PT1450</name></trkpt>
<trkpt lat="52.050291" lon="05.686259"><ele>40.9</ele><time>2021-04-03T15:32:45Z</time><name>PT1451</name></trkpt>
<trkpt lat="52.050250" lon="05.686264"><ele>40.9</ele><time>2021-04-03T15:32:46Z</time><name>PT1452</name></trkpt>
<trkpt lat="52.050226" lon="05.686250"><ele>41</ele><time>2021-04-03T15:32:47Z</time><name>PT1453</name></trkpt>
<trkpt lat="52.050191" lon="05.686245"><ele>41</ele><time>2021-04-03T15:32:48Z</time><name>PT1454</name></trkpt>
<trkpt lat="52.050164" lon="05.686245"><ele>40.9</ele><time>2021-04-03T15:32:49Z</time><name>PT1455</name></trkpt>
<trkpt lat="52.050130" lon="05.686243"><ele>40.8</ele><time>2021-04-03T15:32:50Z</time><name>PT1456</name></trkpt>
<trkpt lat="52.050104" lon="05.686233"><ele>40.7</ele><time>2021-04-03T15:32:51Z</time><name>PT1457</name></trkpt>
<trkpt lat="52.050081" lon="05.686219"><ele>40.6</ele><time>2021-04-03T15:32:52Z</time><name>PT1458</name></trkpt>
<trkpt lat="52.050061" lon="05.686204"><ele>40.5</ele><time>2021-04-03T15:32:53Z</time><name>PT1459</name></trkpt>
<trkpt lat="52.050038" lon="05.686187"><ele>40.4</ele><time>2021-04-03T15:32:54Z</time><name>PT1460</name></trkpt>
<trkpt lat="52.050021" lon="05.686180"><ele>40.2</ele><time>2021-04-03T15:32:55Z</time><name>PT1461</name></trkpt>
<trkpt lat="52.050003" lon="05.686164"><ele>40.2</ele><time>2021-04-03T15:32:56Z</time><name>PT1462</name></trkpt>
<trkpt lat="52.049986" lon="05.686145"><ele>40.2</ele><time>2021-04-03T15:32:57Z</time><name>PT1463</name></trkpt>
<trkpt lat="52.049963" lon="05.686127"><ele>40.2</ele><time>2021-04-03T15:32:58Z</time><name>PT1464</name></trkpt>
<trkpt lat="52.049945" lon="05.686117"><ele>40.3</ele><time>2021-04-03T15:32:59Z</time><name>PT1465</name></trkpt>
<trkpt lat="52.049930" lon="05.686103"><ele>40.6</ele><time>2021-04-03T15:33:00Z</time><name>PT1466</name></trkpt>
<trkpt lat="52.049916" lon="05.686082"><ele>40.6</ele><time>2021-04-03T15:33:01Z</time><name>PT1467</name></trkpt>
<trkpt lat="52.049902" lon="05.686068"><ele>40.9</ele><time>2021-04-03T15:33:02Z</time><name>PT1468</name></trkpt>
<trkpt lat="52.049890" lon="05.686053"><ele>40.9</ele><time>2021-04-03T15:33:03Z</time><name>PT1469</name></trkpt>
<trkpt lat="52.049881" lon="05.686037"><ele>40.9</ele><time>2021-04-03T15:33:04Z</time><name>PT1470</name></trkpt>
<trkpt lat="52.049868" lon="05.686019"><ele>40.7</ele><time>2021-04-03T15:33:05Z</time><name>PT1471</name></trkpt>
<trkpt lat="52.049846" lon="05.685998"><ele>40.6</ele><time>2021-04-03T15:33:06Z</time><name>PT1472</name></trkpt>
<trkpt lat="52.049831" lon="05.685985"><ele>40.7</ele><time>2021-04-03T15:33:07Z</time><name>PT1473</name></trkpt>
<trkpt lat="52.049817" lon="05.685960"><ele>40.9</ele><time>2021-04-03T15:33:08Z</time><name>PT1474</name></trkpt>
<trkpt lat="52.049800" lon="05.685945"><ele>40.9</ele><time>2021-04-03T15:33:09Z</time><name>PT1475</name></trkpt>
<trkpt lat="52.049782" lon="05.685933"><ele>41.1</ele><time>2021-04-03T15:33:10Z</time><name>PT1476</name></trkpt>
<trkpt lat="52.049770" lon="05.685914"><ele>41.1</ele><time>2021-04-03T15:33:11Z</time><name>PT1477</name></trkpt>
<trkpt lat="52.049749" lon="05.685887"><ele>41</ele><time>2021-04-03T15:33:12Z</time><name>PT1478</name></trkpt>
<trkpt lat="52.049732" lon="05.685859"><ele>41</ele><time>2021-04-03T15:33:13Z</time><name>PT1479</name></trkpt>
<trkpt lat="52.049721" lon="05.685838"><ele>41</ele><time>2021-04-03T15:33:14Z</time><name>PT1480</name></trkpt>
<trkpt lat="52.049712" lon="05.685830"><ele>41.1</ele><time>2021-04-03T15:33:15Z</time><name>PT1481</name></trkpt>
<trkpt lat="52.049698" lon="05.685807"><ele>41.1</ele><time>2021-04-03T15:33:16Z</time><name>PT1482</name></trkpt>
<trkpt lat="52.049683" lon="05.685776"><ele>41.1</ele><time>2021-04-03T15:33:17Z</time><name>PT1483</name></trkpt>
<trkpt lat="52.049666" lon="05.685750"><ele>41.2</ele><time>2021-04-03T15:33:18Z</time><name>PT1484</name></trkpt>
<trkpt lat="52.049650" lon="05.685721"><ele>41.1</ele><time>2021-04-03T15:33:19Z</time><name>PT1485</name></trkpt>
<trkpt lat="52.049640" lon="05.685708"><ele>41.2</ele><time>2021-04-03T15:33:20Z</time><name>PT1486</name></trkpt>
<trkpt lat="52.049635" lon="05.685695"><ele>41.4</ele><time>2021-04-03T15:33:21Z</time><name>PT1487</name></trkpt>
<trkpt lat="52.049634" lon="05.685684"><ele>41.3</ele><time>2021-04-03T15:33:22Z</time><name>PT1488</name></trkpt>
<trkpt lat="52.049624" lon="05.685666"><ele>41.2</ele><time>2021-04-03T15:33:23Z</time><name>PT1489</name></trkpt>
<trkpt lat="52.049619" lon="05.685659"><ele>41.4</ele><time>2021-04-03T15:33:24Z</time><name>PT1490</name></trkpt>
<trkpt lat="52.049607" lon="05.685635"><ele>41.2</ele><time>2021-04-03T15:33:25Z</time><name>PT1491</name></trkpt>
<trkpt lat="52.049595" lon="05.685618"><ele>41.2</ele><time>2021-04-03T15:33:26Z</time><name>PT1492</name></trkpt>
<trkpt lat="52.049579" lon="05.685608"><ele>41.2</ele><time>2021-04-03T15:33:27Z</time><name>PT1493</name></trkpt>
<trkpt lat="52.049569" lon="05.685591"><ele>41.3</ele><time>2021-04-03T15:33:28Z</time><name>PT1494</name></trkpt>
<trkpt lat="52.049559" lon="05.685576"><ele>41.2</ele><time>2021-04-03T15:33:29Z</time><name>PT1495</name></trkpt>
<trkpt lat="52.049551" lon="05.685566"><ele>41.2</ele><time>2021-04-03T15:33:30Z</time><name>PT1496</name></trkpt>
<trkpt lat="52.049548" lon="05.685561"><ele>41.4</ele><time>2021-04-03T15:33:33Z</time><name>PT1497</name></trkpt>
<trkpt lat="52.049528" lon="05.685530"><ele>41.3</ele><time>2021-04-03T15:33:34Z</time><name>PT1498</name></trkpt>
<trkpt lat="52.049516" lon="05.685516"><ele>41.5</ele><time>2021-04-03T15:33:35Z</time><name>PT1499</name></trkpt>
<trkpt lat="52.049500" lon="05.685501"><ele>41.4</ele><time>2021-04-03T15:33:36Z</time><name>PT1500</name></trkpt>
<trkpt lat="52.049486" lon="05.685491"><ele>41.4</ele><time>2021-04-03T15:33:37Z</time><name>PT1501</name></trkpt>
<trkpt lat="52.049473" lon="05.685477"><ele>41.4</ele><time>2021-04-03T15:33:38Z</time><name>PT1502</name></trkpt>
<trkpt lat="52.049467" lon="05.685461"><ele>41.4</ele><time>2021-04-03T15:33:39Z</time><name>PT1503</name></trkpt>
<trkpt lat="52.049459" lon="05.685441"><ele>41.4</ele><time>2021-04-03T15:33:40Z</time><name>PT1504</name></trkpt>
<trkpt lat="52.049449" lon="05.685420"><ele>41.4</ele><time>2021-04-03T15:33:41Z</time><name>PT1505</name></trkpt>
<trkpt lat="52.049441" lon="05.685398"><ele>41.3</ele><time>2021-04-03T15:33:42Z</time><name>PT1506</name></trkpt>
<trkpt lat="52.049429" lon="05.685385"><ele>41.2</ele><time>2021-04-03T15:33:43Z</time><name>PT1507</name></trkpt>
<trkpt lat="52.049417" lon="05.685373"><ele>41.1</ele><time>2021-04-03T15:33:44Z</time><name>PT1508</name></trkpt>
<trkpt lat="52.049404" lon="05.685356"><ele>41.4</ele><time>2021-04-03T15:33:45Z</time><name>PT1509</name></trkpt>
<trkpt lat="52.049395" lon="05.685342"><ele>41.3</ele><time>2021-04-03T15:33:46Z</time><name>PT1510</name></trkpt>
<trkpt lat="52.049384" lon="05.685322"><ele>41.5</ele><time>2021-04-03T15:33:47Z</time><name>PT1511</name></trkpt>
<trkpt lat="52.049373" lon="05.685304"><ele>41.5</ele><time>2021-04-03T15:33:48Z</time><name>PT1512</name></trkpt>
<trkpt lat="52.049363" lon="05.685293"><ele>41.6</ele><time>2021-04-03T15:33:49Z</time><name>PT1513</name></trkpt>
<trkpt lat="52.049352" lon="05.685279"><ele>41.5</ele><time>2021-04-03T15:33:50Z</time><name>PT1514</name></trkpt>
<trkpt lat="52.049337" lon="05.685261"><ele>41.6</ele><time>2021-04-03T15:33:51Z</time><name>PT1515</name></trkpt>
<trkpt lat="52.049324" lon="05.685239"><ele>41.7</ele><time>2021-04-03T15:33:52Z</time><name>PT1516</name></trkpt>
<trkpt lat="52.049315" lon="05.685226"><ele>41.6</ele><time>2021-04-03T15:33:53Z</time><name>PT1517</name></trkpt>
<trkpt lat="52.049300" lon="05.685208"><ele>41.8</ele><time>2021-04-03T15:33:54Z</time><name>PT1518</name></trkpt>
<trkpt lat="52.049283" lon="05.685186"><ele>41.7</ele><time>2021-04-03T15:33:55Z</time><name>PT1519</name></trkpt>
<trkpt lat="52.049266" lon="05.685154"><ele>41.5</ele><time>2021-04-03T15:33:56Z</time><name>PT1520</name></trkpt>
<trkpt lat="52.049253" lon="05.685122"><ele>41.5</ele><time>2021-04-03T15:33:57Z</time><name>PT1521</name></trkpt>
<trkpt lat="52.049240" lon="05.685089"><ele>41.6</ele><time>2021-04-03T15:33:58Z</time><name>PT1522</name></trkpt>
<trkpt lat="52.049224" lon="05.685055"><ele>41.5</ele><time>2021-04-03T15:33:59Z</time><name>PT1523</name></trkpt>
<trkpt lat="52.049204" lon="05.685028"><ele>41.5</ele><time>2021-04-03T15:34:00Z</time><name>PT1524</name></trkpt>
<trkpt lat="52.049192" lon="05.685005"><ele>41.5</ele><time>2021-04-03T15:34:01Z</time><name>PT1525</name></trkpt>
<trkpt lat="52.049179" lon="05.684981"><ele>41.4</ele><time>2021-04-03T15:34:02Z</time><name>PT1526</name></trkpt>
<trkpt lat="52.049161" lon="05.684962"><ele>41.4</ele><time>2021-04-03T15:34:04Z</time><name>PT1527</name></trkpt>
<trkpt lat="52.049144" lon="05.684941"><ele>41.3</ele><time>2021-04-03T15:34:04Z</time><name>PT1528</name></trkpt>
<trkpt lat="52.049128" lon="05.684920"><ele>41.5</ele><time>2021-04-03T15:34:05Z</time><name>PT1529</name></trkpt>
<trkpt lat="52.049110" lon="05.684887"><ele>41.6</ele><time>2021-04-03T15:34:06Z</time><name>PT1530</name></trkpt>
<trkpt lat="52.049093" lon="05.684863"><ele>41.7</ele><time>2021-04-03T15:34:07Z</time><name>PT1531</name></trkpt>
<trkpt lat="52.049080" lon="05.684841"><ele>41.6</ele><time>2021-04-03T15:34:08Z</time><name>PT1532</name></trkpt>
<trkpt lat="52.049065" lon="05.684820"><ele>41.7</ele><time>2021-04-03T15:34:10Z</time><name>PT1533</name></trkpt>
<trkpt lat="52.049053" lon="05.684798"><ele>41.7</ele><time>2021-04-03T15:34:10Z</time><name>PT1534</name></trkpt>
<trkpt lat="52.049041" lon="05.684780"><ele>41.7</ele><time>2021-04-03T15:34:11Z</time><name>PT1535</name></trkpt>
<trkpt lat="52.049032" lon="05.684762"><ele>41.7</ele><time>2021-04-03T15:34:12Z</time><name>PT1536</name></trkpt>
<trkpt lat="52.049015" lon="05.684740"><ele>41.9</ele><time>2021-04-03T15:34:13Z</time><name>PT1537</name></trkpt>
<trkpt lat="52.049002" lon="05.684730"><ele>42</ele><time>2021-04-03T15:34:14Z</time><name>PT1538</name></trkpt>
<trkpt lat="52.048989" lon="05.684708"><ele>42</ele><time>2021-04-03T15:34:15Z</time><name>PT1539</name></trkpt>
<trkpt lat="52.048972" lon="05.684687"><ele>41.9</ele><time>2021-04-03T15:34:16Z</time><name>PT1540</name></trkpt>
<trkpt lat="52.048952" lon="05.684661"><ele>42</ele><time>2021-04-03T15:34:17Z</time><name>PT1541</name></trkpt>
<trkpt lat="52.048933" lon="05.684638"><ele>41.7</ele><time>2021-04-03T15:34:18Z</time><name>PT1542</name></trkpt>
<trkpt lat="52.048914" lon="05.684621"><ele>41.6</ele><time>2021-04-03T15:34:19Z</time><name>PT1543</name></trkpt>
<trkpt lat="52.048896" lon="05.684603"><ele>41.5</ele><time>2021-04-03T15:34:20Z</time><name>PT1544</name></trkpt>
<trkpt lat="52.048875" lon="05.684594"><ele>41.4</ele><time>2021-04-03T15:34:21Z</time><name>PT1545</name></trkpt>
<trkpt lat="52.048855" lon="05.684585"><ele>41.6</ele><time>2021-04-03T15:34:22Z</time><name>PT1546</name></trkpt>
<trkpt lat="52.048838" lon="05.684578"><ele>41.7</ele><time>2021-04-03T15:34:23Z</time><name>PT1547</name></trkpt>
<trkpt lat="52.048824" lon="05.684586"><ele>41.6</ele><time>2021-04-03T15:34:24Z</time><name>PT1548</name></trkpt>
<trkpt lat="52.048812" lon="05.684589"><ele>41.6</ele><time>2021-04-03T15:34:25Z</time><name>PT1549</name></trkpt>
<trkpt lat="52.048799" lon="05.684600"><ele>41.9</ele><time>2021-04-03T15:34:26Z</time><name>PT1550</name></trkpt>
<trkpt lat="52.048790" lon="05.684611"><ele>42</ele><time>2021-04-03T15:34:27Z</time><name>PT1551</name></trkpt>
<trkpt lat="52.048778" lon="05.684619"><ele>42</ele><time>2021-04-03T15:34:28Z</time><name>PT1552</name></trkpt>
<trkpt lat="52.048771" lon="05.684629"><ele>42.4</ele><time>2021-04-03T15:34:29Z</time><name>PT1553</name></trkpt>
<trkpt lat="52.048752" lon="05.684636"><ele>42.3</ele><time>2021-04-03T15:34:30Z</time><name>PT1554</name></trkpt>
<trkpt lat="52.048735" lon="05.684648"><ele>42.2</ele><time>2021-04-03T15:34:31Z</time><name>PT1555</name></trkpt>
<trkpt lat="52.048721" lon="05.684662"><ele>42</ele><time>2021-04-03T15:34:32Z</time><name>PT1556</name></trkpt>
<trkpt lat="52.048707" lon="05.684676"><ele>41.9</ele><time>2021-04-03T15:34:33Z</time><name>PT1557</name></trkpt>
<trkpt lat="52.048688" lon="05.684689"><ele>41.9</ele><time>2021-04-03T15:34:34Z</time><name>PT1558</name></trkpt>
<trkpt lat="52.048671" lon="05.684707"><ele>42</ele><time>2021-04-03T15:34:35Z</time><name>PT1559</name></trkpt>
<trkpt lat="52.048647" lon="05.684717"><ele>42</ele><time>2021-04-03T15:34:36Z</time><name>PT1560</name></trkpt>
<trkpt lat="52.048623" lon="05.684727"><ele>42</ele><time>2021-04-03T15:34:37Z</time><name>PT1561</name></trkpt>
<trkpt lat="52.048605" lon="05.684738"><ele>42.2</ele><time>2021-04-03T15:34:38Z</time><name>PT1562</name></trkpt>
<trkpt lat="52.048584" lon="05.684747"><ele>42.2</ele><time>2021-04-03T15:34:39Z</time><name>PT1563</name></trkpt>
<trkpt lat="52.048555" lon="05.684748"><ele>42.2</ele><time>2021-04-03T15:34:40Z</time><name>PT1564</name></trkpt>
<trkpt lat="52.048526" lon="05.684746"><ele>42.4</ele><time>2021-04-03T15:34:41Z</time><name>PT1565</name></trkpt>
<trkpt lat="52.048509" lon="05.684752"><ele>42.3</ele><time>2021-04-03T15:34:42Z</time><name>PT1566</name></trkpt>
<trkpt lat="52.048487" lon="05.684761"><ele>42.4</ele><time>2021-04-03T15:34:43Z</time><name>PT1567</name></trkpt>
<trkpt lat="52.048476" lon="05.684766"><ele>42.5</ele><time>2021-04-03T15:34:44Z</time><name>PT1568</name></trkpt>
<trkpt lat="52.048452" lon="05.684774"><ele>42.5</ele><time>2021-04-03T15:34:45Z</time><name>PT1569</name></trkpt>
<trkpt lat="52.048431" lon="05.684772"><ele>42.5</ele><time>2021-04-03T15:34:46Z</time><name>PT1570</name></trkpt>
<trkpt lat="52.048411" lon="05.684769"><ele>42.6</ele><time>2021-04-03T15:34:47Z</time><name>PT1571</name></trkpt>
<trkpt lat="52.048394" lon="05.684777"><ele>42.5</ele><time>2021-04-03T15:34:48Z</time><name>PT1572</name></trkpt>
<trkpt lat="52.048371" lon="05.684783"><ele>42.5</ele><time>2021-04-03T15:34:49Z</time><name>PT1573</name></trkpt>
<trkpt lat="52.048356" lon="05.684793"><ele>42.5</ele><time>2021-04-03T15:34:50Z</time><name>PT1574</name></trkpt>
<trkpt lat="52.048333" lon="05.684794"><ele>42.7</ele><time>2021-04-03T15:34:51Z</time><name>PT1575</name></trkpt>
<trkpt lat="52.048317" lon="05.684791"><ele>42.7</ele><time>2021-04-03T15:34:52Z</time><name>PT1576</name></trkpt>
<trkpt lat="52.048297" lon="05.684791"><ele>42.7</ele><time>2021-04-03T15:34:53Z</time><name>PT1577</name></trkpt>
<trkpt lat="52.048282" lon="05.684798"><ele>42.8</ele><time>2021-04-03T15:34:54Z</time><name>PT1578</name></trkpt>
<trkpt lat="52.048263" lon="05.684806"><ele>42.9</ele><time>2021-04-03T15:34:55Z</time><name>PT1579</name></trkpt>
<trkpt lat="52.048246" lon="05.684813"><ele>42.8</ele><time>2021-04-03T15:34:56Z</time><name>PT1580</name></trkpt>
<trkpt lat="52.048229" lon="05.684814"><ele>42.7</ele><time>2021-04-03T15:34:57Z</time><name>PT1581</name></trkpt>
<trkpt lat="52.048212" lon="05.684820"><ele>42.7</ele><time>2021-04-03T15:34:58Z</time><name>PT1582</name></trkpt>
<trkpt lat="52.048194" lon="05.684824"><ele>42.6</ele><time>2021-04-03T15:34:59Z</time><name>PT1583</name></trkpt>
<trkpt lat="52.048168" lon="05.684826"><ele>42.6</ele><time>2021-04-03T15:35:00Z</time><name>PT1584</name></trkpt>
<trkpt lat="52.048147" lon="05.684810"><ele>42.6</ele><time>2021-04-03T15:35:01Z</time><name>PT1585</name></trkpt>
<trkpt lat="52.048123" lon="05.684806"><ele>42.6</ele><time>2021-04-03T15:35:02Z</time><name>PT1586</name></trkpt>
<trkpt lat="52.048098" lon="05.684812"><ele>42.7</ele><time>2021-04-03T15:35:03Z</time><name>PT1587</name></trkpt>
<trkpt lat="52.048072" lon="05.684821"><ele>42.7</ele><time>2021-04-03T15:35:04Z</time><name>PT1588</name></trkpt>
<trkpt lat="52.048050" lon="05.684829"><ele>42.5</ele><time>2021-04-03T15:35:05Z</time><name>PT1589</name></trkpt>
<trkpt lat="52.048022" lon="05.684828"><ele>42.6</ele><time>2021-04-03T15:35:06Z</time><name>PT1590</name></trkpt>
<trkpt lat="52.047999" lon="05.684821"><ele>42.6</ele><time>2021-04-03T15:35:07Z</time><name>PT1591</name></trkpt>
<trkpt lat="52.047973" lon="05.684808"><ele>42.7</ele><time>2021-04-03T15:35:08Z</time><name>PT1592</name></trkpt>
<trkpt lat="52.047949" lon="05.684798"><ele>42.7</ele><time>2021-04-03T15:35:09Z</time><name>PT1593</name></trkpt>
<trkpt lat="52.047926" lon="05.684794"><ele>42.8</ele><time>2021-04-03T15:35:10Z</time><name>PT1594</name></trkpt>
<trkpt lat="52.047896" lon="05.684783"><ele>42.9</ele><time>2021-04-03T15:35:11Z</time><name>PT1595</name></trkpt>
<trkpt lat="52.047865" lon="05.684774"><ele>42.9</ele><time>2021-04-03T15:35:12Z</time><name>PT1596</name></trkpt>
<trkpt lat="52.047838" lon="05.684766"><ele>43</ele><time>2021-04-03T15:35:13Z</time><name>PT1597</name></trkpt>
<trkpt lat="52.047812" lon="05.684750"><ele>43.2</ele><time>2021-04-03T15:35:14Z</time><name>PT1598</name></trkpt>
<trkpt lat="52.047791" lon="05.684738"><ele>43.3</ele><time>2021-04-03T15:35:15Z</time><name>PT1599</name></trkpt>
<trkpt lat="52.047763" lon="05.684728"><ele>43.4</ele><time>2021-04-03T15:35:16Z</time><name>PT1600</name></trkpt>
<trkpt lat="52.047739" lon="05.684723"><ele>43.4</ele><time>2021-04-03T15:35:17Z</time><name>PT1601</name></trkpt>
<trkpt lat="52.047709" lon="05.684719"><ele>43.4</ele><time>2021-04-03T15:35:18Z</time><name>PT1602</name></trkpt>
<trkpt lat="52.047685" lon="05.684715"><ele>43.4</ele><time>2021-04-03T15:35:19Z</time><name>PT1603</name></trkpt>
<trkpt lat="52.047665" lon="05.684705"><ele>43.6</ele><time>2021-04-03T15:35:20Z</time><name>PT1604</name></trkpt>
<trkpt lat="52.047647" lon="05.684700"><ele>43.8</ele><time>2021-04-03T15:35:21Z</time><name>PT1605</name></trkpt>
<trkpt lat="52.047622" lon="05.684689"><ele>43.8</ele><time>2021-04-03T15:35:22Z</time><name>PT1606</name></trkpt>
<trkpt lat="52.047599" lon="05.684690"><ele>44</ele><time>2021-04-03T15:35:23Z</time><name>PT1607</name></trkpt>
<trkpt lat="52.047584" lon="05.684694"><ele>44.3</ele><time>2021-04-03T15:35:24Z</time><name>PT1608</name></trkpt>
<trkpt lat="52.047572" lon="05.684698"><ele>44.5</ele><time>2021-04-03T15:35:25Z</time><name>PT1609</name></trkpt>
<trkpt lat="52.047550" lon="05.684703"><ele>44.6</ele><time>2021-04-03T15:35:26Z</time><name>PT1610</name></trkpt>
<trkpt lat="52.047525" lon="05.684692"><ele>44.7</ele><time>2021-04-03T15:35:27Z</time><name>PT1611</name></trkpt>
<trkpt lat="52.047497" lon="05.684684"><ele>44.7</ele><time>2021-04-03T15:35:28Z</time><name>PT1612</name></trkpt>
<trkpt lat="52.047481" lon="05.684679"><ele>44.7</ele><time>2021-04-03T15:35:29Z</time><name>PT1613</name></trkpt>
<trkpt lat="52.047465" lon="05.684676"><ele>44.7</ele><time>2021-04-03T15:35:30Z</time><name>PT1614</name></trkpt>
<trkpt lat="52.047447" lon="05.684682"><ele>44.9</ele><time>2021-04-03T15:35:31Z</time><name>PT1615</name></trkpt>
<trkpt lat="52.047429" lon="05.684686"><ele>45</ele><time>2021-04-03T15:35:32Z</time><name>PT1616</name></trkpt>
<trkpt lat="52.047415" lon="05.684696"><ele>45</ele><time>2021-04-03T15:35:33Z</time><name>PT1617</name></trkpt>
<trkpt lat="52.047396" lon="05.684704"><ele>45.2</ele><time>2021-04-03T15:35:34Z</time><name>PT1618</name></trkpt>
<trkpt lat="52.047374" lon="05.684702"><ele>45.2</ele><time>2021-04-03T15:35:35Z</time><name>PT1619</name></trkpt>
<trkpt lat="52.047354" lon="05.684698"><ele>45.2</ele><time>2021-04-03T15:35:36Z</time><name>PT1620</name></trkpt>
<trkpt lat="52.047335" lon="05.684694"><ele>45.3</ele><time>2021-04-03T15:35:37Z</time><name>PT1621</name></trkpt>
<trkpt lat="52.047313" lon="05.684689"><ele>45.4</ele><time>2021-04-03T15:35:38Z</time><name>PT1622</name></trkpt>
<trkpt lat="52.047288" lon="05.684685"><ele>45.6</ele><time>2021-04-03T15:35:39Z</time><name>PT1623</name></trkpt>
<trkpt lat="52.047267" lon="05.684686"><ele>45.7</ele><time>2021-04-03T15:35:40Z</time><name>PT1624</name></trkpt>
<trkpt lat="52.047249" lon="05.684689"><ele>45.8</ele><time>2021-04-03T15:35:41Z</time><name>PT1625</name></trkpt>
<trkpt lat="52.047231" lon="05.684688"><ele>45.7</ele><time>2021-04-03T15:35:42Z</time><name>PT1626</name></trkpt>
<trkpt lat="52.047217" lon="05.684683"><ele>45.7</ele><time>2021-04-03T15:35:43Z</time><name>PT1627</name></trkpt>
<trkpt lat="52.047197" lon="05.684681"><ele>45.7</ele><time>2021-04-03T15:35:44Z</time><name>PT1628</name></trkpt>
<trkpt lat="52.047179" lon="05.684682"><ele>45.4</ele><time>2021-04-03T15:35:45Z</time><name>PT1629</name></trkpt>
<trkpt lat="52.047160" lon="05.684682"><ele>45.5</ele><time>2021-04-03T15:35:46Z</time><name>PT1630</name></trkpt>
<trkpt lat="52.047138" lon="05.684682"><ele>45.7</ele><time>2021-04-03T15:35:47Z</time><name>PT1631</name></trkpt>
<trkpt lat="52.047121" lon="05.684685"><ele>45.7</ele><time>2021-04-03T15:35:48Z</time><name>PT1632</name></trkpt>
<trkpt lat="52.047108" lon="05.684684"><ele>45.8</ele><time>2021-04-03T15:35:49Z</time><name>PT1633</name></trkpt>
<trkpt lat="52.047092" lon="05.684678"><ele>45.8</ele><time>2021-04-03T15:35:50Z</time><name>PT1634</name></trkpt>
<trkpt lat="52.047073" lon="05.684674"><ele>46</ele><time>2021-04-03T15:35:51Z</time><name>PT1635</name></trkpt>
<trkpt lat="52.047054" lon="05.684671"><ele>45.9</ele><time>2021-04-03T15:35:52Z</time><name>PT1636</name></trkpt>
<trkpt lat="52.047037" lon="05.684669"><ele>46</ele><time>2021-04-03T15:35:53Z</time><name>PT1637</name></trkpt>
<trkpt lat="52.047018" lon="05.684661"><ele>46.1</ele><time>2021-04-03T15:35:54Z</time><name>PT1638</name></trkpt>
<trkpt lat="52.047003" lon="05.684661"><ele>46.1</ele><time>2021-04-03T15:35:55Z</time><name>PT1639</name></trkpt>
<trkpt lat="52.046988" lon="05.684660"><ele>46.2</ele><time>2021-04-03T15:35:56Z</time><name>PT1640</name></trkpt>
<trkpt lat="52.046976" lon="05.684656"><ele>46.2</ele><time>2021-04-03T15:35:57Z</time><name>PT1641</name></trkpt>
<trkpt lat="52.046960" lon="05.684647"><ele>46.1</ele><time>2021-04-03T15:35:58Z</time><name>PT1642</name></trkpt>
<trkpt lat="52.046949" lon="05.684646"><ele>46.1</ele><time>2021-04-03T15:35:59Z</time><name>PT1643</name></trkpt>
<trkpt lat="52.046938" lon="05.684645"><ele>46.1</ele><time>2021-04-03T15:36:00Z</time><name>PT1644</name></trkpt>
<trkpt lat="52.046925" lon="05.684649"><ele>46.1</ele><time>2021-04-03T15:36:01Z</time><name>PT1645</name></trkpt>
<trkpt lat="52.046911" lon="05.684650"><ele>46.1</ele><time>2021-04-03T15:36:02Z</time><name>PT1646</name></trkpt>
<trkpt lat="52.046892" lon="05.684651"><ele>46.1</ele><time>2021-04-03T15:36:03Z</time><name>PT1647</name></trkpt>
<trkpt lat="52.046878" lon="05.684656"><ele>46.1</ele><time>2021-04-03T15:36:04Z</time><name>PT1648</name></trkpt>
<trkpt lat="52.046860" lon="05.684660"><ele>46.1</ele><time>2021-04-03T15:36:05Z</time><name>PT1649</name></trkpt>
<trkpt lat="52.046846" lon="05.684669"><ele>46.1</ele><time>2021-04-03T15:36:06Z</time><name>PT1650</name></trkpt>
<trkpt lat="52.046829" lon="05.684680"><ele>46.1</ele><time>2021-04-03T15:36:07Z</time><name>PT1651</name></trkpt>
<trkpt lat="52.046811" lon="05.684676"><ele>46.5</ele><time>2021-04-03T15:36:08Z</time><name>PT1652</name></trkpt>
<trkpt lat="52.046792" lon="05.684676"><ele>46.6</ele><time>2021-04-03T15:36:09Z</time><name>PT1653</name></trkpt>
<trkpt lat="52.046781" lon="05.684675"><ele>46.8</ele><time>2021-04-03T15:36:10Z</time><name>PT1654</name></trkpt>
<trkpt lat="52.046760" lon="05.684684"><ele>46.8</ele><time>2021-04-03T15:36:11Z</time><name>PT1655</name></trkpt>
<trkpt lat="52.046739" lon="05.684695"><ele>47</ele><time>2021-04-03T15:36:12Z</time><name>PT1656</name></trkpt>
<trkpt lat="52.046722" lon="05.684694"><ele>46.8</ele><time>2021-04-03T15:36:13Z</time><name>PT1657</name></trkpt>
<trkpt lat="52.046704" lon="05.684701"><ele>46.8</ele><time>2021-04-03T15:36:14Z</time><name>PT1658</name></trkpt>
<trkpt lat="52.046688" lon="05.684712"><ele>46.8</ele><time>2021-04-03T15:36:15Z</time><name>PT1659</name></trkpt>
<trkpt lat="52.046666" lon="05.684718"><ele>46.9</ele><time>2021-04-03T15:36:16Z</time><name>PT1660</name></trkpt>
<trkpt lat="52.046645" lon="05.684731"><ele>46.9</ele><time>2021-04-03T15:36:17Z</time><name>PT1661</name></trkpt>
<trkpt lat="52.046635" lon="05.684746"><ele>46.8</ele><time>2021-04-03T15:36:18Z</time><name>PT1662</name></trkpt>
<trkpt lat="52.046624" lon="05.684759"><ele>47</ele><time>2021-04-03T15:36:19Z</time><name>PT1663</name></trkpt>
<trkpt lat="52.046610" lon="05.684763"><ele>47.1</ele><time>2021-04-03T15:36:20Z</time><name>PT1664</name></trkpt>
<trkpt lat="52.046599" lon="05.684774"><ele>47.2</ele><time>2021-04-03T15:36:21Z</time><name>PT1665</name></trkpt>
<trkpt lat="52.046585" lon="05.684781"><ele>47.3</ele><time>2021-04-03T15:36:22Z</time><name>PT1666</name></trkpt>
<trkpt lat="52.046578" lon="05.684796"><ele>47.4</ele><time>2021-04-03T15:36:23Z</time><name>PT1667</name></trkpt>
<trkpt lat="52.046571" lon="05.684811"><ele>47.4</ele><time>2021-04-03T15:36:24Z</time><name>PT1668</name></trkpt>
<trkpt lat="52.046560" lon="05.684831"><ele>47.3</ele><time>2021-04-03T15:36:25Z</time><name>PT1669</name></trkpt>
<trkpt lat="52.046547" lon="05.684842"><ele>47.5</ele><time>2021-04-03T15:36:26Z</time><name>PT1670</name></trkpt>
<trkpt lat="52.046527" lon="05.684855"><ele>47.5</ele><time>2021-04-03T15:36:27Z</time><name>PT1671</name></trkpt>
<trkpt lat="52.046512" lon="05.684870"><ele>47.6</ele><time>2021-04-03T15:36:28Z</time><name>PT1672</name></trkpt>
<trkpt lat="52.046496" lon="05.684880"><ele>47.7</ele><time>2021-04-03T15:36:29Z</time><name>PT1673</name></trkpt>
<trkpt lat="52.046479" lon="05.684886"><ele>47.7</ele><time>2021-04-03T15:36:30Z</time><name>PT1674</name></trkpt>
<trkpt lat="52.046456" lon="05.684883"><ele>47.8</ele><time>2021-04-03T15:36:31Z</time><name>PT1675</name></trkpt>
<trkpt lat="52.046431" lon="05.684888"><ele>48</ele><time>2021-04-03T15:36:32Z</time><name>PT1676</name></trkpt>
<trkpt lat="52.046404" lon="05.684893"><ele>48.1</ele><time>2021-04-03T15:36:34Z</time><name>PT1677</name></trkpt>
<trkpt lat="52.046365" lon="05.684908"><ele>48.1</ele><time>2021-04-03T15:36:34Z</time><name>PT1678</name></trkpt>
<trkpt lat="52.046325" lon="05.684915"><ele>48.2</ele><time>2021-04-03T15:36:35Z</time><name>PT1679</name></trkpt>
<trkpt lat="52.046304" lon="05.684916"><ele>48.2</ele><time>2021-04-03T15:36:36Z</time><name>PT1680</name></trkpt>
<trkpt lat="52.046282" lon="05.684917"><ele>48.3</ele><time>2021-04-03T15:36:37Z</time><name>PT1681</name></trkpt>
<trkpt lat="52.046265" lon="05.684917"><ele>48.4</ele><time>2021-04-03T15:36:38Z</time><name>PT1682</name></trkpt>
<trkpt lat="52.046250" lon="05.684924"><ele>48.4</ele><time>2021-04-03T15:36:39Z</time><name>PT1683</name></trkpt>
<trkpt lat="52.046238" lon="05.684924"><ele>48.4</ele><time>2021-04-03T15:36:40Z</time><name>PT1684</name></trkpt>
<trkpt lat="52.046220" lon="05.684929"><ele>48.3</ele><time>2021-04-03T15:36:41Z</time><name>PT1685</name></trkpt>
<trkpt lat="52.046203" lon="05.684938"><ele>48.1</ele><time>2021-04-03T15:36:42Z</time><name>PT1686</name></trkpt>
<trkpt lat="52.046183" lon="05.684959"><ele>48.2</ele><time>2021-04-03T15:36:43Z</time><name>PT1687</name></trkpt>
<trkpt lat="52.046165" lon="05.684969"><ele>48.2</ele><time>2021-04-03T15:36:44Z</time><name>PT1688</name></trkpt>
<trkpt lat="52.046149" lon="05.684975"><ele>48.4</ele><time>2021-04-03T15:36:45Z</time><name>PT1689</name></trkpt>
<trkpt lat="52.046134" lon="05.684984"><ele>48.4</ele><time>2021-04-03T15:36:46Z</time><name>PT1690</name></trkpt>
<trkpt lat="52.046119" lon="05.685002"><ele>48.5</ele><time>2021-04-03T15:36:47Z</time><name>PT1691</name></trkpt>
<trkpt lat="52.046104" lon="05.685017"><ele>48.4</ele><time>2021-04-03T15:36:49Z</time><name>PT1692</name></trkpt>
<trkpt lat="52.046090" lon="05.685033"><ele>48.4</ele><time>2021-04-03T15:36:49Z</time><name>PT1693</name></trkpt>
<trkpt lat="52.046075" lon="05.685047"><ele>48.4</ele><time>2021-04-03T15:36:50Z</time><name>PT1694</name></trkpt>
<trkpt lat="52.046056" lon="05.685074"><ele>48.4</ele><time>2021-04-03T15:36:51Z</time><name>PT1695</name></trkpt>
<trkpt lat="52.046042" lon="05.685081"><ele>48.4</ele><time>2021-04-03T15:36:52Z</time><name>PT1696</name></trkpt>
<trkpt lat="52.046022" lon="05.685093"><ele>48.5</ele><time>2021-04-03T15:36:53Z</time><name>PT1697</name></trkpt>
<trkpt lat="52.046005" lon="05.685108"><ele>48.8</ele><time>2021-04-03T15:36:54Z</time><name>PT1698</name></trkpt>
<trkpt lat="52.045987" lon="05.685121"><ele>48.8</ele><time>2021-04-03T15:36:55Z</time><name>PT1699</name></trkpt>
<trkpt lat="52.045973" lon="05.685130"><ele>48.8</ele><time>2021-04-03T15:36:56Z</time><name>PT1700</name></trkpt>
<trkpt lat="52.045960" lon="05.685134"><ele>48.9</ele><time>2021-04-03T15:36:57Z</time><name>PT1701</name></trkpt>
<trkpt lat="52.045944" lon="05.685145"><ele>49</ele><time>2021-04-03T15:36:58Z</time><name>PT1702</name></trkpt>
<trkpt lat="52.045920" lon="05.685150"><ele>49</ele><time>2021-04-03T15:36:59Z</time><name>PT1703</name></trkpt>
<trkpt lat="52.045907" lon="05.685149"><ele>49</ele><time>2021-04-03T15:37:00Z</time><name>PT1704</name></trkpt>
<trkpt lat="52.045899" lon="05.685157"><ele>49</ele><time>2021-04-03T15:37:01Z</time><name>PT1705</name></trkpt>
<trkpt lat="52.045886" lon="05.685162"><ele>49.1</ele><time>2021-04-03T15:37:02Z</time><name>PT1706</name></trkpt>
<trkpt lat="52.045873" lon="05.685167"><ele>49</ele><time>2021-04-03T15:37:03Z</time><name>PT1707</name></trkpt>
<trkpt lat="52.045865" lon="05.685170"><ele>48.9</ele><time>2021-04-03T15:37:04Z</time><name>PT1708</name></trkpt>
<trkpt lat="52.045858" lon="05.685178"><ele>48.9</ele><time>2021-04-03T15:37:05Z</time><name>PT1709</name></trkpt>
<trkpt lat="52.045845" lon="05.685188"><ele>48.9</ele><time>2021-04-03T15:37:06Z</time><name>PT1710</name></trkpt>
<trkpt lat="52.045836" lon="05.685188"><ele>48.9</ele><time>2021-04-03T15:37:07Z</time><name>PT1711</name></trkpt>
<trkpt lat="52.045824" lon="05.685193"><ele>48.9</ele><time>2021-04-03T15:37:08Z</time><name>PT1712</name></trkpt>
<trkpt lat="52.045809" lon="05.685202"><ele>48.9</ele><time>2021-04-03T15:37:09Z</time><name>PT1713</name></trkpt>
<trkpt lat="52.045796" lon="05.685209"><ele>48.9</ele><time>2021-04-03T15:37:10Z</time><name>PT1714</name></trkpt>
<trkpt lat="52.045787" lon="05.685223"><ele>48.6</ele><time>2021-04-03T15:37:11Z</time><name>PT1715</name></trkpt>
<trkpt lat="52.045775" lon="05.685233"><ele>48.5</ele><time>2021-04-03T15:37:12Z</time><name>PT1716</name></trkpt>
<trkpt lat="52.045769" lon="05.685242"><ele>48.4</ele><time>2021-04-03T15:37:13Z</time><name>PT1717</name></trkpt>
<trkpt lat="52.045761" lon="05.685249"><ele>48.4</ele><time>2021-04-03T15:37:14Z</time><name>PT1718</name></trkpt>
<trkpt lat="52.045751" lon="05.685264"><ele>48.5</ele><time>2021-04-03T15:37:15Z</time><name>PT1719</name></trkpt>
<trkpt lat="52.045741" lon="05.685272"><ele>48.6</ele><time>2021-04-03T15:37:16Z</time><name>PT1720</name></trkpt>
<trkpt lat="52.045730" lon="05.685276"><ele>48.7</ele><time>2021-04-03T15:37:17Z</time><name>PT1721</name></trkpt>
<trkpt lat="52.045716" lon="05.685291"><ele>48.9</ele><time>2021-04-03T15:37:18Z</time><name>PT1722</name></trkpt>
<trkpt lat="52.045700" lon="05.685308"><ele>48.9</ele><time>2021-04-03T15:37:19Z</time><name>PT1723</name></trkpt>
<trkpt lat="52.045683" lon="05.685318"><ele>49.1</ele><time>2021-04-03T15:37:20Z</time><name>PT1724</name></trkpt>
<trkpt lat="52.045669" lon="05.685325"><ele>49.3</ele><time>2021-04-03T15:37:21Z</time><name>PT1725</name></trkpt>
<trkpt lat="52.045651" lon="05.685333"><ele>49.4</ele><time>2021-04-03T15:37:22Z</time><name>PT1726</name></trkpt>
<trkpt lat="52.045637" lon="05.685349"><ele>49.3</ele><time>2021-04-03T15:37:23Z</time><name>PT1727</name></trkpt>
<trkpt lat="52.045613" lon="05.685366"><ele>49.5</ele><time>2021-04-03T15:37:24Z</time><name>PT1728</name></trkpt>
<trkpt lat="52.045592" lon="05.685378"><ele>49.5</ele><time>2021-04-03T15:37:25Z</time><name>PT1729</name></trkpt>
<trkpt lat="52.045579" lon="05.685389"><ele>49.6</ele><time>2021-04-03T15:37:26Z</time><name>PT1730</name></trkpt>
<trkpt lat="52.045565" lon="05.685396"><ele>49.8</ele><time>2021-04-03T15:37:27Z</time><name>PT1731</name></trkpt>
<trkpt lat="52.045554" lon="05.685406"><ele>49.8</ele><time>2021-04-03T15:37:28Z</time><name>PT1732</name></trkpt>
<trkpt lat="52.045543" lon="05.685413"><ele>49.9</ele><time>2021-04-03T15:37:29Z</time><name>PT1733</name></trkpt>
<trkpt lat="52.045529" lon="05.685425"><ele>50</ele><time>2021-04-03T15:37:30Z</time><name>PT1734</name></trkpt>
<trkpt lat="52.045520" lon="05.685442"><ele>49.9</ele><time>2021-04-03T15:37:31Z</time><name>PT1735</name></trkpt>
<trkpt lat="52.045513" lon="05.685466"><ele>49.6</ele><time>2021-04-03T15:37:32Z</time><name>PT1736</name></trkpt>
<trkpt lat="52.045501" lon="05.685486"><ele>49.3</ele><time>2021-04-03T15:37:33Z</time><name>PT1737</name></trkpt>
<trkpt lat="52.045506" lon="05.685507"><ele>49.3</ele><time>2021-04-03T15:37:34Z</time><name>PT1738</name></trkpt>
<trkpt lat="52.045505" lon="05.685525"><ele>49.1</ele><time>2021-04-03T15:37:35Z</time><name>PT1739</name></trkpt>
<trkpt lat="52.045499" lon="05.685550"><ele>49.2</ele><time>2021-04-03T15:37:36Z</time><name>PT1740</name></trkpt>
<trkpt lat="52.045500" lon="05.685571"><ele>49.3</ele><time>2021-04-03T15:37:37Z</time><name>PT1741</name></trkpt>
<trkpt lat="52.045503" lon="05.685590"><ele>49.3</ele><time>2021-04-03T15:37:38Z</time><name>PT1742</name></trkpt>
<trkpt lat="52.045508" lon="05.685601"><ele>49.3</ele><time>2021-04-03T15:37:39Z</time><name>PT1743</name></trkpt>
<trkpt lat="52.045507" lon="05.685613"><ele>49.5</ele><time>2021-04-03T15:37:40Z</time><name>PT1744</name></trkpt>
<trkpt lat="52.045506" lon="05.685630"><ele>49.4</ele><time>2021-04-03T15:37:41Z</time><name>PT1745</name></trkpt>
<trkpt lat="52.045501" lon="05.685653"><ele>49.3</ele><time>2021-04-03T15:37:42Z</time><name>PT1746</name></trkpt>
<trkpt lat="52.045499" lon="05.685678"><ele>49.4</ele><time>2021-04-03T15:37:43Z</time><name>PT1747</name></trkpt>
<trkpt lat="52.045493" lon="05.685698"><ele>49.5</ele><time>2021-04-03T15:37:44Z</time><name>PT1748</name></trkpt>
<trkpt lat="52.045495" lon="05.685709"><ele>49.5</ele><time>2021-04-03T15:37:45Z</time><name>PT1749</name></trkpt>
<trkpt lat="52.045488" lon="05.685726"><ele>49.6</ele><time>2021-04-03T15:37:46Z</time><name>PT1750</name></trkpt>
<trkpt lat="52.045469" lon="05.685747"><ele>49.6</ele><time>2021-04-03T15:37:47Z</time><name>PT1751</name></trkpt>
<trkpt lat="52.045451" lon="05.685775"><ele>49.8</ele><time>2021-04-03T15:37:48Z</time><name>PT1752</name></trkpt>
<trkpt lat="52.045435" lon="05.685792"><ele>49.8</ele><time>2021-04-03T15:37:49Z</time><name>PT1753</name></trkpt>
<trkpt lat="52.045421" lon="05.685813"><ele>49.9</ele><time>2021-04-03T15:37:50Z</time><name>PT1754</name></trkpt>
<trkpt lat="52.045407" lon="05.685839"><ele>49.9</ele><time>2021-04-03T15:37:51Z</time><name>PT1755</name></trkpt>
<trkpt lat="52.045398" lon="05.685870"><ele>49.9</ele><time>2021-04-03T15:37:52Z</time><name>PT1756</name></trkpt>
<trkpt lat="52.045388" lon="05.685893"><ele>49.9</ele><time>2021-04-03T15:37:53Z</time><name>PT1757</name></trkpt>
<trkpt lat="52.045386" lon="05.685912"><ele>49.8</ele><time>2021-04-03T15:37:54Z</time><name>PT1758</name></trkpt>
<trkpt lat="52.045373" lon="05.685934"><ele>49.8</ele><time>2021-04-03T15:37:55Z</time><name>PT1759</name></trkpt>
<trkpt lat="52.045360" lon="05.685956"><ele>49.8</ele><time>2021-04-03T15:37:56Z</time><name>PT1760</name></trkpt>
<trkpt lat="52.045350" lon="05.685987"><ele>49.6</ele><time>2021-04-03T15:37:57Z</time><name>PT1761</name></trkpt>
<trkpt lat="52.045352" lon="05.686016"><ele>49.5</ele><time>2021-04-03T15:37:58Z</time><name>PT1762</name></trkpt>
<trkpt lat="52.045335" lon="05.686042"><ele>49.6</ele><time>2021-04-03T15:37:59Z</time><name>PT1763</name></trkpt>
<trkpt lat="52.045331" lon="05.686090"><ele>49.7</ele><time>2021-04-03T15:38:00Z</time><name>PT1764</name></trkpt>
<trkpt lat="52.045319" lon="05.686128"><ele>49.5</ele><time>2021-04-03T15:38:01Z</time><name>PT1765</name></trkpt>
<trkpt lat="52.045301" lon="05.686162"><ele>49.5</ele><time>2021-04-03T15:38:02Z</time><name>PT1766</name></trkpt>
<trkpt lat="52.045287" lon="05.686211"><ele>49.4</ele><time>2021-04-03T15:38:03Z</time><name>PT1767</name></trkpt>
<trkpt lat="52.045277" lon="05.686239"><ele>49.6</ele><time>2021-04-03T15:38:04Z</time><name>PT1768</name></trkpt>
<trkpt lat="52.045269" lon="05.686257"><ele>49.5</ele><time>2021-04-03T15:38:05Z</time><name>PT1769</name></trkpt>
<trkpt lat="52.045261" lon="05.686287"><ele>49.6</ele><time>2021-04-03T15:38:06Z</time><name>PT1770</name></trkpt>
<trkpt lat="52.045245" lon="05.686324"><ele>49.6</ele><time>2021-04-03T15:38:07Z</time><name>PT1771</name></trkpt>
<trkpt lat="52.045228" lon="05.686374"><ele>49.7</ele><time>2021-04-03T15:38:08Z</time><name>PT1772</name></trkpt>
<trkpt lat="52.045212" lon="05.686414"><ele>49.7</ele><time>2021-04-03T15:38:09Z</time><name>PT1773</name></trkpt>
<trkpt lat="52.045203" lon="05.686441"><ele>49.6</ele><time>2021-04-03T15:38:10Z</time><name>PT1774</name></trkpt>
<trkpt lat="52.045194" lon="05.686480"><ele>49.5</ele><time>2021-04-03T15:38:11Z</time><name>PT1775</name></trkpt>
<trkpt lat="52.045181" lon="05.686512"><ele>49.6</ele><time>2021-04-03T15:38:12Z</time><name>PT1776</name></trkpt>
<trkpt lat="52.045154" lon="05.686547"><ele>49.8</ele><time>2021-04-03T15:38:13Z</time><name>PT1777</name></trkpt>
<trkpt lat="52.045137" lon="05.686589"><ele>49.8</ele><time>2021-04-03T15:38:14Z</time><name>PT1778</name></trkpt>
<trkpt lat="52.045137" lon="05.686624"><ele>49.9</ele><time>2021-04-03T15:38:15Z</time><name>PT1779</name></trkpt>
<trkpt lat="52.045115" lon="05.686663"><ele>50.1</ele><time>2021-04-03T15:38:16Z</time><name>PT1780</name></trkpt>
<trkpt lat="52.045099" lon="05.686704"><ele>50.1</ele><time>2021-04-03T15:38:17Z</time><name>PT1781</name></trkpt>
<trkpt lat="52.045081" lon="05.686746"><ele>50</ele><time>2021-04-03T15:38:18Z</time><name>PT1782</name></trkpt>
<trkpt lat="52.045058" lon="05.686784"><ele>50.2</ele><time>2021-04-03T15:38:19Z</time><name>PT1783</name></trkpt>
<trkpt lat="52.045046" lon="05.686822"><ele>50.3</ele><time>2021-04-03T15:38:20Z</time><name>PT1784</name></trkpt>
<trkpt lat="52.045043" lon="05.686854"><ele>50.5</ele><time>2021-04-03T15:38:21Z</time><name>PT1785</name></trkpt>
<trkpt lat="52.045028" lon="05.686883"><ele>50.4</ele><time>2021-04-03T15:38:22Z</time><name>PT1786</name></trkpt>
<trkpt lat="52.045018" lon="05.686916"><ele>50.6</ele><time>2021-04-03T15:38:23Z</time><name>PT1787</name></trkpt>
<trkpt lat="52.045006" lon="05.686944"><ele>50.6</ele><time>2021-04-03T15:38:24Z</time><name>PT1788</name></trkpt>
<trkpt lat="52.044988" lon="05.686967"><ele>50.6</ele><time>2021-04-03T15:38:25Z</time><name>PT1789</name></trkpt>
<trkpt lat="52.044985" lon="05.686980"><ele>50.6</ele><time>2021-04-03T15:38:26Z</time><name>PT1790</name></trkpt>
<trkpt lat="52.044975" lon="05.687013"><ele>50.7</ele><time>2021-04-03T15:38:27Z</time><name>PT1791</name></trkpt>
<trkpt lat="52.044963" lon="05.687051"><ele>50.6</ele><time>2021-04-03T15:38:28Z</time><name>PT1792</name></trkpt>
<trkpt lat="52.044949" lon="05.687084"><ele>50.6</ele><time>2021-04-03T15:38:29Z</time><name>PT1793</name></trkpt>
<trkpt lat="52.044928" lon="05.687096"><ele>50.5</ele><time>2021-04-03T15:38:30Z</time><name>PT1794</name></trkpt>
<trkpt lat="52.044911" lon="05.687115"><ele>50.7</ele><time>2021-04-03T15:38:31Z</time><name>PT1795</name></trkpt>
<trkpt lat="52.044894" lon="05.687145"><ele>50.6</ele><time>2021-04-03T15:38:32Z</time><name>PT1796</name></trkpt>
<trkpt lat="52.044882" lon="05.687171"><ele>50.7</ele><time>2021-04-03T15:38:33Z</time><name>PT1797</name></trkpt>
<trkpt lat="52.044869" lon="05.687196"><ele>50.7</ele><time>2021-04-03T15:38:34Z</time><name>PT1798</name></trkpt>
<trkpt lat="52.044854" lon="05.687214"><ele>50.7</ele><time>2021-04-03T15:38:35Z</time><name>PT1799</name></trkpt>
<trkpt lat="52.044848" lon="05.687250"><ele>50.8</ele><time>2021-04-03T15:38:36Z</time><name>PT1800</name></trkpt>
<trkpt lat="52.044841" lon="05.687282"><ele>50.9</ele><time>2021-04-03T15:38:37Z</time><name>PT1801</name></trkpt>
<trkpt lat="52.044822" lon="05.687314"><ele>50.8</ele><time>2021-04-03T15:38:38Z</time><name>PT1802</name></trkpt>
<trkpt lat="52.044781" lon="05.687344"><ele>50.9</ele><time>2021-04-03T15:38:39Z</time><name>PT1803</name></trkpt>
<trkpt lat="52.044752" lon="05.687384"><ele>50.9</ele><time>2021-04-03T15:38:40Z</time><name>PT1804</name></trkpt>
<trkpt lat="52.044729" lon="05.687416"><ele>50.8</ele><time>2021-04-03T15:38:41Z</time><name>PT1805</name></trkpt>
<trkpt lat="52.044700" lon="05.687455"><ele>50.7</ele><time>2021-04-03T15:38:42Z</time><name>PT1806</name></trkpt>
<trkpt lat="52.044680" lon="05.687498"><ele>50.7</ele><time>2021-04-03T15:38:43Z</time><name>PT1807</name></trkpt>
<trkpt lat="52.044666" lon="05.687546"><ele>50.7</ele><time>2021-04-03T15:38:44Z</time><name>PT1808</name></trkpt>
<trkpt lat="52.044647" lon="05.687595"><ele>50.6</ele><time>2021-04-03T15:38:45Z</time><name>PT1809</name></trkpt>
<trkpt lat="52.044634" lon="05.687632"><ele>50.6</ele><time>2021-04-03T15:38:46Z</time><name>PT1810</name></trkpt>
<trkpt lat="52.044624" lon="05.687665"><ele>50.3</ele><time>2021-04-03T15:38:47Z</time><name>PT1811</name></trkpt>
<trkpt lat="52.044616" lon="05.687684"><ele>50.3</ele><time>2021-04-03T15:38:48Z</time><name>PT1812</name></trkpt>
<trkpt lat="52.044601" lon="05.687714"><ele>50.3</ele><time>2021-04-03T15:38:49Z</time><name>PT1813</name></trkpt>
<trkpt lat="52.044600" lon="05.687762"><ele>50.5</ele><time>2021-04-03T15:38:50Z</time><name>PT1814</name></trkpt>
<trkpt lat="52.044598" lon="05.687794"><ele>50.6</ele><time>2021-04-03T15:38:51Z</time><name>PT1815</name></trkpt>
<trkpt lat="52.044597" lon="05.687830"><ele>50.7</ele><time>2021-04-03T15:38:52Z</time><name>PT1816</name></trkpt>
<trkpt lat="52.044601" lon="05.687849"><ele>50.9</ele><time>2021-04-03T15:38:53Z</time><name>PT1817</name></trkpt>
<trkpt lat="52.044603" lon="05.687877"><ele>50.7</ele><time>2021-04-03T15:38:54Z</time><name>PT1818</name></trkpt>
<trkpt lat="52.044611" lon="05.687907"><ele>50.7</ele><time>2021-04-03T15:38:55Z</time><name>PT1819</name></trkpt>
<trkpt lat="52.044614" lon="05.687949"><ele>50.7</ele><time>2021-04-03T15:38:56Z</time><name>PT1820</name></trkpt>
<trkpt lat="52.044620" lon="05.687979"><ele>50.7</ele><time>2021-04-03T15:38:57Z</time><name>PT1821</name></trkpt>
<trkpt lat="52.044626" lon="05.688035"><ele>50.6</ele><time>2021-04-03T15:38:58Z</time><name>PT1822</name></trkpt>
<trkpt lat="52.044631" lon="05.688072"><ele>50.7</ele><time>2021-04-03T15:38:59Z</time><name>PT1823</name></trkpt>
<trkpt lat="52.044640" lon="05.688117"><ele>50.5</ele><time>2021-04-03T15:39:00Z</time><name>PT1824</name></trkpt>
<trkpt lat="52.044644" lon="05.688158"><ele>50.5</ele><time>2021-04-03T15:39:01Z</time><name>PT1825</name></trkpt>
<trkpt lat="52.044646" lon="05.688192"><ele>50.5</ele><time>2021-04-03T15:39:02Z</time><name>PT1826</name></trkpt>
<trkpt lat="52.044647" lon="05.688224"><ele>50.6</ele><time>2021-04-03T15:39:03Z</time><name>PT1827</name></trkpt>
<trkpt lat="52.044650" lon="05.688254"><ele>50.5</ele><time>2021-04-03T15:39:04Z</time><name>PT1828</name></trkpt>
<trkpt lat="52.044652" lon="05.688273"><ele>50.4</ele><time>2021-04-03T15:39:05Z</time><name>PT1829</name></trkpt>
<trkpt lat="52.044654" lon="05.688279"><ele>50.7</ele><time>2021-04-03T15:39:06Z</time><name>PT1830</name></trkpt>
<trkpt lat="52.044649" lon="05.688304"><ele>50.7</ele><time>2021-04-03T15:39:07Z</time><name>PT1831</name></trkpt>
<trkpt lat="52.044659" lon="05.688335"><ele>50.6</ele><time>2021-04-03T15:39:08Z</time><name>PT1832</name></trkpt>
<trkpt lat="52.044663" lon="05.688358"><ele>50.7</ele><time>2021-04-03T15:39:09Z</time><name>PT1833</name></trkpt>
<trkpt lat="52.044667" lon="05.688381"><ele>50.6</ele><time>2021-04-03T15:39:10Z</time><name>PT1834</name></trkpt>
<trkpt lat="52.044690" lon="05.688410"><ele>50.4</ele><time>2021-04-03T15:39:12Z</time><name>PT1835</name></trkpt>
<trkpt lat="52.044703" lon="05.688453"><ele>50.5</ele><time>2021-04-03T15:39:13Z</time><name>PT1836</name></trkpt>
<trkpt lat="52.044717" lon="05.688507"><ele>50.4</ele><time>2021-04-03T15:39:14Z</time><name>PT1837</name></trkpt>
<trkpt lat="52.044725" lon="05.688546"><ele>50.3</ele><time>2021-04-03T15:39:15Z</time><name>PT1838</name></trkpt>
<trkpt lat="52.044731" lon="05.688588"><ele>50.3</ele><time>2021-04-03T15:39:16Z</time><name>PT1839</name></trkpt>
<trkpt lat="52.044734" lon="05.688636"><ele>50.2</ele><time>2021-04-03T15:39:17Z</time><name>PT1840</name></trkpt>
<trkpt lat="52.044729" lon="05.688693"><ele>50.2</ele><time>2021-04-03T15:39:18Z</time><name>PT1841</name></trkpt>
<trkpt lat="52.044727" lon="05.688764"><ele>50.1</ele><time>2021-04-03T15:39:19Z</time><name>PT1842</name></trkpt>
<trkpt lat="52.044722" lon="05.688805"><ele>50.3</ele><time>2021-04-03T15:39:20Z</time><name>PT1843</name></trkpt>
<trkpt lat="52.044719" lon="05.688842"><ele>50.3</ele><time>2021-04-03T15:39:21Z</time><name>PT1844</name></trkpt>
<trkpt lat="52.044718" lon="05.688885"><ele>50.3</ele><time>2021-04-03T15:39:22Z</time><name>PT1845</name></trkpt>
<trkpt lat="52.044723" lon="05.688936"><ele>50.2</ele><time>2021-04-03T15:39:23Z</time><name>PT1846</name></trkpt>
<trkpt lat="52.044719" lon="05.688990"><ele>50.2</ele><time>2021-04-03T15:39:24Z</time><name>PT1847</name></trkpt>
<trkpt lat="52.044710" lon="05.689033"><ele>50.1</ele><time>2021-04-03T15:39:25Z</time><name>PT1848</name></trkpt>
<trkpt lat="52.044702" lon="05.689087"><ele>50.2</ele><time>2021-04-03T15:39:26Z</time><name>PT1849</name></trkpt>
<trkpt lat="52.044698" lon="05.689119"><ele>50.3</ele><time>2021-04-03T15:39:27Z</time><name>PT1850</name></trkpt>
<trkpt lat="52.044697" lon="05.689151"><ele>50.5</ele><time>2021-04-03T15:39:28Z</time><name>PT1851</name></trkpt>
<trkpt lat="52.044699" lon="05.689179"><ele>50.6</ele><time>2021-04-03T15:39:29Z</time><name>PT1852</name></trkpt>
<trkpt lat="52.044693" lon="05.689198"><ele>50.7</ele><time>2021-04-03T15:39:30Z</time><name>PT1853</name></trkpt>
<trkpt lat="52.044687" lon="05.689219"><ele>50.7</ele><time>2021-04-03T15:39:31Z</time><name>PT1854</name></trkpt>
<trkpt lat="52.044685" lon="05.689251"><ele>50.8</ele><time>2021-04-03T15:39:32Z</time><name>PT1855</name></trkpt>
<trkpt lat="52.044673" lon="05.689279"><ele>51</ele><time>2021-04-03T15:39:33Z</time><name>PT1856</name></trkpt>
<trkpt lat="52.044671" lon="05.689308"><ele>51.2</ele><time>2021-04-03T15:39:34Z</time><name>PT1857</name></trkpt>
<trkpt lat="52.044665" lon="05.689329"><ele>51.2</ele><time>2021-04-03T15:39:35Z</time><name>PT1858</name></trkpt>
<trkpt lat="52.044665" lon="05.689361"><ele>51.2</ele><time>2021-04-03T15:39:36Z</time><name>PT1859</name></trkpt>
<trkpt lat="52.044664" lon="05.689386"><ele>51.2</ele><time>2021-04-03T15:39:37Z</time><name>PT1860</name></trkpt>
<trkpt lat="52.044656" lon="05.689412"><ele>51.2</ele><time>2021-04-03T15:39:38Z</time><name>PT1861</name></trkpt>
<trkpt lat="52.044654" lon="05.689431"><ele>51.4</ele><time>2021-04-03T15:39:39Z</time><name>PT1862</name></trkpt>
<trkpt lat="52.044657" lon="05.689465"><ele>51.3</ele><time>2021-04-03T15:39:41Z</time><name>PT1863</name></trkpt>
<trkpt lat="52.044650" lon="05.689504"><ele>51.5</ele><time>2021-04-03T15:39:42Z</time><name>PT1864</name></trkpt>
<trkpt lat="52.044642" lon="05.689539"><ele>51.6</ele><time>2021-04-03T15:39:43Z</time><name>PT1865</name></trkpt>
<trkpt lat="52.044627" lon="05.689563"><ele>51.6</ele><time>2021-04-03T15:39:44Z</time><name>PT1866</name></trkpt>
<trkpt lat="52.044618" lon="05.689597"><ele>51.6</ele><time>2021-04-03T15:39:45Z</time><name>PT1867</name></trkpt>
<trkpt lat="52.044616" lon="05.689615"><ele>51.6</ele><time>2021-04-03T15:39:46Z</time><name>PT1868</name></trkpt>
<trkpt lat="52.044608" lon="05.689631"><ele>51.7</ele><time>2021-04-03T15:39:47Z</time><name>PT1869</name></trkpt>
<trkpt lat="52.044598" lon="05.689671"><ele>51.9</ele><time>2021-04-03T15:39:48Z</time><name>PT1870</name></trkpt>
<trkpt lat="52.044579" lon="05.689695"><ele>52</ele><time>2021-04-03T15:39:49Z</time><name>PT1871</name></trkpt>
<trkpt lat="52.044570" lon="05.689720"><ele>52.2</ele><time>2021-04-03T15:39:50Z</time><name>PT1872</name></trkpt>
<trkpt lat="52.044554" lon="05.689741"><ele>52.3</ele><time>2021-04-03T15:39:51Z</time><name>PT1873</name></trkpt>
<trkpt lat="52.044529" lon="05.689773"><ele>52.2</ele><time>2021-04-03T15:39:52Z</time><name>PT1874</name></trkpt>
<trkpt lat="52.044506" lon="05.689806"><ele>52.1</ele><time>2021-04-03T15:39:53Z</time><name>PT1875</name></trkpt>
<trkpt lat="52.044485" lon="05.689832"><ele>52.1</ele><time>2021-04-03T15:39:54Z</time><name>PT1876</name></trkpt>
<trkpt lat="52.044473" lon="05.689848"><ele>52</ele><time>2021-04-03T15:39:55Z</time><name>PT1877</name></trkpt>
<trkpt lat="52.044457" lon="05.689874"><ele>52</ele><time>2021-04-03T15:39:56Z</time><name>PT1878</name></trkpt>
<trkpt lat="52.044439" lon="05.689900"><ele>52.1</ele><time>2021-04-03T15:39:57Z</time><name>PT1879</name></trkpt>
<trkpt lat="52.044430" lon="05.689927"><ele>52.2</ele><time>2021-04-03T15:39:58Z</time><name>PT1880</name></trkpt>
<trkpt lat="52.044419" lon="05.689952"><ele>52.5</ele><time>2021-04-03T15:39:59Z</time><name>PT1881</name></trkpt>
<trkpt lat="52.044411" lon="05.689982"><ele>52.6</ele><time>2021-04-03T15:40:00Z</time><name>PT1882</name></trkpt>
<trkpt lat="52.044405" lon="05.690020"><ele>52.6</ele><time>2021-04-03T15:40:01Z</time><name>PT1883</name></trkpt>
<trkpt lat="52.044397" lon="05.690048"><ele>52.6</ele><time>2021-04-03T15:40:02Z</time><name>PT1884</name></trkpt>
<trkpt lat="52.044391" lon="05.690067"><ele>52.6</ele><time>2021-04-03T15:40:03Z</time><name>PT1885</name></trkpt>
<trkpt lat="52.044391" lon="05.690094"><ele>52.7</ele><time>2021-04-03T15:40:04Z</time><name>PT1886</name></trkpt>
<trkpt lat="52.044385" lon="05.690110"><ele>52.8</ele><time>2021-04-03T15:40:05Z</time><name>PT1887</name></trkpt>
<trkpt lat="52.044381" lon="05.690124"><ele>52.9</ele><time>2021-04-03T15:40:06Z</time><name>PT1888</name></trkpt>
<trkpt lat="52.044383" lon="05.690148"><ele>53</ele><time>2021-04-03T15:40:07Z</time><name>PT1889</name></trkpt>
<trkpt lat="52.044381" lon="05.690178"><ele>52.9</ele><time>2021-04-03T15:40:08Z</time><name>PT1890</name></trkpt>
<trkpt lat="52.044377" lon="05.690218"><ele>53</ele><time>2021-04-03T15:40:09Z</time><name>PT1891</name></trkpt>
<trkpt lat="52.044379" lon="05.690238"><ele>52.9</ele><time>2021-04-03T15:40:10Z</time><name>PT1892</name></trkpt>
<trkpt lat="52.044382" lon="05.690241"><ele>53</ele><time>2021-04-03T15:40:11Z</time><name>PT1893</name></trkpt>
<trkpt lat="52.044381" lon="05.690246"><ele>53</ele><time>2021-04-03T15:40:12Z</time><name>PT1894</name></trkpt>
<trkpt lat="52.044381" lon="05.690265"><ele>53.1</ele><time>2021-04-03T15:40:13Z</time><name>PT1895</name></trkpt>
<trkpt lat="52.044381" lon="05.690288"><ele>53.1</ele><time>2021-04-03T15:40:14Z</time><name>PT1896</name></trkpt>
<trkpt lat="52.044377" lon="05.690304"><ele>53.3</ele><time>2021-04-03T15:40:15Z</time><name>PT1897</name></trkpt>
<trkpt lat="52.044377" lon="05.690314"><ele>53.4</ele><time>2021-04-03T15:40:16Z</time><name>PT1898</name></trkpt>
<trkpt lat="52.044381" lon="05.690335"><ele>53.5</ele><time>2021-04-03T15:40:17Z</time><name>PT1899</name></trkpt>
<trkpt lat="52.044385" lon="05.690366"><ele>53.5</ele><time>2021-04-03T15:40:18Z</time><name>PT1900</name></trkpt>
<trkpt lat="52.044388" lon="05.690393"><ele>53.5</ele><time>2021-04-03T15:40:19Z</time><name>PT1901</name></trkpt>
<trkpt lat="52.044393" lon="05.690414"><ele>53.6</ele><time>2021-04-03T15:40:20Z</time><name>PT1902</name></trkpt>
<trkpt lat="52.044393" lon="05.690429"><ele>53.7</ele><time>2021-04-03T15:40:21Z</time><name>PT1903</name></trkpt>
<trkpt lat="52.044397" lon="05.690452"><ele>53.6</ele><time>2021-04-03T15:40:22Z</time><name>PT1904</name></trkpt>
<trkpt lat="52.044402" lon="05.690480"><ele>53.6</ele><time>2021-04-03T15:40:23Z</time><name>PT1905</name></trkpt>
<trkpt lat="52.044406" lon="05.690504"><ele>53.7</ele><time>2021-04-03T15:40:24Z</time><name>PT1906</name></trkpt>
<trkpt lat="52.044410" lon="05.690527"><ele>53.8</ele><time>2021-04-03T15:40:25Z</time><name>PT1907</name></trkpt>
<trkpt lat="52.044410" lon="05.690557"><ele>53.7</ele><time>2021-04-03T15:40:26Z</time><name>PT1908</name></trkpt>
<trkpt lat="52.044406" lon="05.690592"><ele>53.8</ele><time>2021-04-03T15:40:27Z</time><name>PT1909</name></trkpt>
<trkpt lat="52.044407" lon="05.690618"><ele>53.8</ele><time>2021-04-03T15:40:28Z</time><name>PT1910</name></trkpt>
<trkpt lat="52.044408" lon="05.690637"><ele>53.8</ele><time>2021-04-03T15:40:29Z</time><name>PT1911</name></trkpt>
<trkpt lat="52.044402" lon="05.690644"><ele>53.8</ele><time>2021-04-03T15:40:30Z</time><name>PT1912</name></trkpt>
<trkpt lat="52.044395" lon="05.690656"><ele>53.8</ele><time>2021-04-03T15:40:31Z</time><name>PT1913</name></trkpt>
<trkpt lat="52.044383" lon="05.690690"><ele>53.8</ele><time>2021-04-03T15:40:32Z</time><name>PT1914</name></trkpt>
<trkpt lat="52.044373" lon="05.690730"><ele>53.7</ele><time>2021-04-03T15:40:33Z</time><name>PT1915</name></trkpt>
<trkpt lat="52.044358" lon="05.690778"><ele>53.7</ele><time>2021-04-03T15:40:34Z</time><name>PT1916</name></trkpt>
<trkpt lat="52.044355" lon="05.690798"><ele>53.5</ele><time>2021-04-03T15:40:35Z</time><name>PT1917</name></trkpt>
<trkpt lat="52.044357" lon="05.690807"><ele>53.6</ele><time>2021-04-03T15:40:36Z</time><name>PT1918</name></trkpt>
<trkpt lat="52.044367" lon="05.690823"><ele>53.9</ele><time>2021-04-03T15:40:39Z</time><name>PT1919</name></trkpt>
<trkpt lat="52.044364" lon="05.690829"><ele>53.9</ele><time>2021-04-03T15:40:40Z</time><name>PT1920</name></trkpt>
<trkpt lat="52.044370" lon="05.690839"><ele>53.9</ele><time>2021-04-03T15:40:41Z</time><name>PT1921</name></trkpt>
<trkpt lat="52.044358" lon="05.690839"><ele>53.9</ele><time>2021-04-03T15:40:42Z</time><name>PT1922</name></trkpt>
<trkpt lat="52.044345" lon="05.690850"><ele>53.9</ele><time>2021-04-03T15:40:43Z</time><name>PT1923</name></trkpt>
<trkpt lat="52.044338" lon="05.690850"><ele>53.9</ele><time>2021-04-03T15:40:44Z</time><name>PT1924</name></trkpt>
<trkpt lat="52.044326" lon="05.690845"><ele>53.8</ele><time>2021-04-03T15:40:45Z</time><name>PT1925</name></trkpt>
<trkpt lat="52.044312" lon="05.690857"><ele>53.7</ele><time>2021-04-03T15:40:46Z</time><name>PT1926</name></trkpt>
<trkpt lat="52.044301" lon="05.690845"><ele>53.6</ele><time>2021-04-03T15:40:47Z</time><name>PT1927</name></trkpt>
<trkpt lat="52.044289" lon="05.690835"><ele>53.7</ele><time>2021-04-03T15:40:48Z</time><name>PT1928</name></trkpt>
<trkpt lat="52.044281" lon="05.690831"><ele>53.7</ele><time>2021-04-03T15:40:49Z</time><name>PT1929</name></trkpt>
<trkpt lat="52.044262" lon="05.690833"><ele>53.8</ele><time>2021-04-03T15:40:50Z</time><name>PT1930</name></trkpt>
<trkpt lat="52.044249" lon="05.690827"><ele>53.9</ele><time>2021-04-03T15:40:51Z</time><name>PT1931</name></trkpt>
<trkpt lat="52.044233" lon="05.690827"><ele>54</ele><time>2021-04-03T15:40:52Z</time><name>PT1932</name></trkpt>
<trkpt lat="52.044225" lon="05.690813"><ele>54</ele><time>2021-04-03T15:40:53Z</time><name>PT1933</name></trkpt>
<trkpt lat="52.044208" lon="05.690821"><ele>54</ele><time>2021-04-03T15:40:54Z</time><name>PT1934</name></trkpt>
<trkpt lat="52.044192" lon="05.690814"><ele>54.1</ele><time>2021-04-03T15:40:55Z</time><name>PT1935</name></trkpt>
<trkpt lat="52.044179" lon="05.690813"><ele>54.2</ele><time>2021-04-03T15:40:56Z</time><name>PT1936</name></trkpt>
<trkpt lat="52.044163" lon="05.690806"><ele>54.2</ele><time>2021-04-03T15:40:57Z</time><name>PT1937</name></trkpt>
<trkpt lat="52.044139" lon="05.690808"><ele>54.3</ele><time>2021-04-03T15:40:58Z</time><name>PT1938</name></trkpt>
<trkpt lat="52.044122" lon="05.690805"><ele>54.4</ele><time>2021-04-03T15:40:59Z</time><name>PT1939</name></trkpt>
<trkpt lat="52.044108" lon="05.690778"><ele>54.4</ele><time>2021-04-03T15:41:00Z</time><name>PT1940</name></trkpt>
<trkpt lat="52.044088" lon="05.690765"><ele>54.4</ele><time>2021-04-03T15:41:01Z</time><name>PT1941</name></trkpt>
<trkpt lat="52.044071" lon="05.690772"><ele>54.3</ele><time>2021-04-03T15:41:02Z</time><name>PT1942</name></trkpt>
<trkpt lat="52.044050" lon="05.690792"><ele>54.1</ele><time>2021-04-03T15:41:03Z</time><name>PT1943</name></trkpt>
<trkpt lat="52.044032" lon="05.690782"><ele>54.3</ele><time>2021-04-03T15:41:04Z</time><name>PT1944</name></trkpt>
<trkpt lat="52.044017" lon="05.690774"><ele>54.5</ele><time>2021-04-03T15:41:05Z</time><name>PT1945</name></trkpt>
<trkpt lat="52.044000" lon="05.690760"><ele>54.7</ele><time>2021-04-03T15:41:06Z</time><name>PT1946</name></trkpt>
<trkpt lat="52.043987" lon="05.690749"><ele>54.8</ele><time>2021-04-03T15:41:07Z</time><name>PT1947</name></trkpt>
<trkpt lat="52.043974" lon="05.690734"><ele>55</ele><time>2021-04-03T15:41:08Z</time><name>PT1948</name></trkpt>
<trkpt lat="52.043952" lon="05.690727"><ele>54.9</ele><time>2021-04-03T15:41:09Z</time><name>PT1949</name></trkpt>
<trkpt lat="52.043926" lon="05.690715"><ele>54.8</ele><time>2021-04-03T15:41:10Z</time><name>PT1950</name></trkpt>
<trkpt lat="52.043900" lon="05.690702"><ele>54.8</ele><time>2021-04-03T15:41:11Z</time><name>PT1951</name></trkpt>
<trkpt lat="52.043874" lon="05.690695"><ele>54.7</ele><time>2021-04-03T15:41:12Z</time><name>PT1952</name></trkpt>
<trkpt lat="52.043848" lon="05.690679"><ele>54.5</ele><time>2021-04-03T15:41:13Z</time><name>PT1953</name></trkpt>
<trkpt lat="52.043827" lon="05.690669"><ele>54.4</ele><time>2021-04-03T15:41:14Z</time><name>PT1954</name></trkpt>
<trkpt lat="52.043801" lon="05.690666"><ele>54.6</ele><time>2021-04-03T15:41:15Z</time><name>PT1955</name></trkpt>
<trkpt lat="52.043784" lon="05.690656"><ele>54.6</ele><time>2021-04-03T15:41:16Z</time><name>PT1956</name></trkpt>
<trkpt lat="52.043777" lon="05.690642"><ele>54.6</ele><time>2021-04-03T15:41:17Z</time><name>PT1957</name></trkpt>
<trkpt lat="52.043765" lon="05.690630"><ele>54.7</ele><time>2021-04-03T15:41:18Z</time><name>PT1958</name></trkpt>
<trkpt lat="52.043748" lon="05.690616"><ele>54.8</ele><time>2021-04-03T15:41:19Z</time><name>PT1959</name></trkpt>
<trkpt lat="52.043726" lon="05.690615"><ele>54.8</ele><time>2021-04-03T15:41:20Z</time><name>PT1960</name></trkpt>
<trkpt lat="52.043708" lon="05.690614"><ele>54.9</ele><time>2021-04-03T15:41:21Z</time><name>PT1961</name></trkpt>
<trkpt lat="52.043693" lon="05.690609"><ele>55</ele><time>2021-04-03T15:41:22Z</time><name>PT1962</name></trkpt>
<trkpt lat="52.043673" lon="05.690619"><ele>55.3</ele><time>2021-04-03T15:41:23Z</time><name>PT1963</name></trkpt>
<trkpt lat="52.043658" lon="05.690626"><ele>55.3</ele><time>2021-04-03T15:41:24Z</time><name>PT1964</name></trkpt>
<trkpt lat="52.043650" lon="05.690635"><ele>55.3</ele><time>2021-04-03T15:41:25Z</time><name>PT1965</name></trkpt>
<trkpt lat="52.043640" lon="05.690646"><ele>55.3</ele><time>2021-04-03T15:41:26Z</time><name>PT1966</name></trkpt>
<trkpt lat="52.043632" lon="05.690660"><ele>55.4</ele><time>2021-04-03T15:41:27Z</time><name>PT1967</name></trkpt>
<trkpt lat="52.043634" lon="05.690673"><ele>55.4</ele><time>2021-04-03T15:41:28Z</time><name>PT1968</name></trkpt>
<trkpt lat="52.043624" lon="05.690677"><ele>55.6</ele><time>2021-04-03T15:41:29Z</time><name>PT1969</name></trkpt>
<trkpt lat="52.043609" lon="05.690687"><ele>55.7</ele><time>2021-04-03T15:41:30Z</time><name>PT1970</name></trkpt>
<trkpt lat="52.043594" lon="05.690702"><ele>55.6</ele><time>2021-04-03T15:41:31Z</time><name>PT1971</name></trkpt>
<trkpt lat="52.043584" lon="05.690710"><ele>55.6</ele><time>2021-04-03T15:41:32Z</time><name>PT1972</name></trkpt>
<trkpt lat="52.043579" lon="05.690711"><ele>55.6</ele><time>2021-04-03T15:41:33Z</time><name>PT1973</name></trkpt>
<trkpt lat="52.043571" lon="05.690714"><ele>55.5</ele><time>2021-04-03T15:41:34Z</time><name>PT1974</name></trkpt>
<trkpt lat="52.043567" lon="05.690719"><ele>55.5</ele><time>2021-04-03T15:41:35Z</time><name>PT1975</name></trkpt>
<trkpt lat="52.043561" lon="05.690732"><ele>55.6</ele><time>2021-04-03T15:41:37Z</time><name>PT1976</name></trkpt>
<trkpt lat="52.043553" lon="05.690742"><ele>55.7</ele><time>2021-04-03T15:41:37Z</time><name>PT1977</name></trkpt>
<trkpt lat="52.043542" lon="05.690759"><ele>55.6</ele><time>2021-04-03T15:41:38Z</time><name>PT1978</name></trkpt>
<trkpt lat="52.043542" lon="05.690771"><ele>55.6</ele><time>2021-04-03T15:41:39Z</time><name>PT1979</name></trkpt>
<trkpt lat="52.043540" lon="05.690784"><ele>55.6</ele><time>2021-04-03T15:41:40Z</time><name>PT1980</name></trkpt>
<trkpt lat="52.043542" lon="05.690793"><ele>55.6</ele><time>2021-04-03T15:41:41Z</time><name>PT1981</name></trkpt>
<trkpt lat="52.043545" lon="05.690815"><ele>55.7</ele><time>2021-04-03T15:41:42Z</time><name>PT1982</name></trkpt>
<trkpt lat="52.043541" lon="05.690838"><ele>55.7</ele><time>2021-04-03T15:41:43Z</time><name>PT1983</name></trkpt>
<trkpt lat="52.043537" lon="05.690863"><ele>55.8</ele><time>2021-04-03T15:41:44Z</time><name>PT1984</name></trkpt>
<trkpt lat="52.043532" lon="05.690872"><ele>56</ele><time>2021-04-03T15:41:45Z</time><name>PT1985</name></trkpt>
<trkpt lat="52.043528" lon="05.690897"><ele>55.9</ele><time>2021-04-03T15:41:46Z</time><name>PT1986</name></trkpt>
<trkpt lat="52.043523" lon="05.690925"><ele>56.1</ele><time>2021-04-03T15:41:47Z</time><name>PT1987</name></trkpt>
<trkpt lat="52.043515" lon="05.690948"><ele>56.2</ele><time>2021-04-03T15:41:48Z</time><name>PT1988</name></trkpt>
<trkpt lat="52.043511" lon="05.690976"><ele>56.2</ele><time>2021-04-03T15:41:49Z</time><name>PT1989</name></trkpt>
<trkpt lat="52.043506" lon="05.690998"><ele>56.5</ele><time>2021-04-03T15:41:50Z</time><name>PT1990</name></trkpt>
<trkpt lat="52.043504" lon="05.691037"><ele>56.6</ele><time>2021-04-03T15:41:51Z</time><name>PT1991</name></trkpt>
<trkpt lat="52.043498" lon="05.691073"><ele>56.7</ele><time>2021-04-03T15:41:52Z</time><name>PT1992</name></trkpt>
<trkpt lat="52.043496" lon="05.691104"><ele>56.6</ele><time>2021-04-03T15:41:53Z</time><name>PT1993</name></trkpt>
<trkpt lat="52.043496" lon="05.691130"><ele>56.7</ele><time>2021-04-03T15:41:54Z</time><name>PT1994</name></trkpt>
<trkpt lat="52.043495" lon="05.691158"><ele>56.5</ele><time>2021-04-03T15:41:55Z</time><name>PT1995</name></trkpt>
<trkpt lat="52.043496" lon="05.691189"><ele>56.7</ele><time>2021-04-03T15:41:56Z</time><name>PT1996</name></trkpt>
<trkpt lat="52.043493" lon="05.691216"><ele>56.8</ele><time>2021-04-03T15:41:57Z</time><name>PT1997</name></trkpt>
<trkpt lat="52.043485" lon="05.691246"><ele>56.8</ele><time>2021-04-03T15:41:58Z</time><name>PT1998</name></trkpt>
<trkpt lat="52.043483" lon="05.691281"><ele>56.9</ele><time>2021-04-03T15:41:59Z</time><name>PT1999</name></trkpt>
<trkpt lat="52.043479" lon="05.691308"><ele>57.1</ele><time>2021-04-03T15:42:00Z</time><name>PT2000</name></trkpt>
<trkpt lat="52.043472" lon="05.691340"><ele>57</ele><time>2021-04-03T15:42:01Z</time><name>PT2001</name></trkpt>
<trkpt lat="52.043470" lon="05.691364"><ele>56.9</ele><time>2021-04-03T15:42:02Z</time><name>PT2002</name></trkpt>
<trkpt lat="52.043465" lon="05.691379"><ele>57</ele><time>2021-04-03T15:42:03Z</time><name>PT2003</name></trkpt>
<trkpt lat="52.043462" lon="05.691415"><ele>57</ele><time>2021-04-03T15:42:04Z</time><name>PT2004</name></trkpt>
<trkpt lat="52.043463" lon="05.691449"><ele>56.9</ele><time>2021-04-03T15:42:05Z</time><name>PT2005</name></trkpt>
<trkpt lat="52.043469" lon="05.691480"><ele>57</ele><time>2021-04-03T15:42:06Z</time><name>PT2006</name></trkpt>
<trkpt lat="52.043467" lon="05.691516"><ele>56.9</ele><time>2021-04-03T15:42:07Z</time><name>PT2007</name></trkpt>
<trkpt lat="52.043467" lon="05.691547"><ele>56.8</ele><time>2021-04-03T15:42:08Z</time><name>PT2008</name></trkpt>
<trkpt lat="52.043464" lon="05.691580"><ele>56.9</ele><time>2021-04-03T15:42:09Z</time><name>PT2009</name></trkpt>
<trkpt lat="52.043465" lon="05.691614"><ele>57</ele><time>2021-04-03T15:42:10Z</time><name>PT2010</name></trkpt>
<trkpt lat="52.043460" lon="05.691645"><ele>57.1</ele><time>2021-04-03T15:42:11Z</time><name>PT2011</name></trkpt>
<trkpt lat="52.043458" lon="05.691673"><ele>57.3</ele><time>2021-04-03T15:42:12Z</time><name>PT2012</name></trkpt>
<trkpt lat="52.043453" lon="05.691697"><ele>57.3</ele><time>2021-04-03T15:42:13Z</time><name>PT2013</name></trkpt>
<trkpt lat="52.043455" lon="05.691728"><ele>57.3</ele><time>2021-04-03T15:42:14Z</time><name>PT2014</name></trkpt>
<trkpt lat="52.043450" lon="05.691759"><ele>57.3</ele><time>2021-04-03T15:42:15Z</time><name>PT2015</name></trkpt>
<trkpt lat="52.043449" lon="05.691803"><ele>57.4</ele><time>2021-04-03T15:42:16Z</time><name>PT2016</name></trkpt>
<trkpt lat="52.043441" lon="05.691835"><ele>57.5</ele><time>2021-04-03T15:42:17Z</time><name>PT2017</name></trkpt>
<trkpt lat="52.043433" lon="05.691865"><ele>57.7</ele><time>2021-04-03T15:42:18Z</time><name>PT2018</name></trkpt>
<trkpt lat="52.043435" lon="05.691894"><ele>57.8</ele><time>2021-04-03T15:42:19Z</time><name>PT2019</name></trkpt>
<trkpt lat="52.043437" lon="05.691908"><ele>57.8</ele><time>2021-04-03T15:42:20Z</time><name>PT2020</name></trkpt>
<trkpt lat="52.043434" lon="05.691937"><ele>57.9</ele><time>2021-04-03T15:42:21Z</time><name>PT2021</name></trkpt>
<trkpt lat="52.043436" lon="05.691963"><ele>57.8</ele><time>2021-04-03T15:42:22Z</time><name>PT2022</name></trkpt>
<trkpt lat="52.043441" lon="05.691983"><ele>58</ele><time>2021-04-03T15:42:23Z</time><name>PT2023</name></trkpt>
<trkpt lat="52.043443" lon="05.692017"><ele>58.1</ele><time>2021-04-03T15:42:24Z</time><name>PT2024</name></trkpt>
<trkpt lat="52.043438" lon="05.692042"><ele>58</ele><time>2021-04-03T15:42:25Z</time><name>PT2025</name></trkpt>
<trkpt lat="52.043440" lon="05.692056"><ele>58</ele><time>2021-04-03T15:42:26Z</time><name>PT2026</name></trkpt>
<trkpt lat="52.043431" lon="05.692083"><ele>58</ele><time>2021-04-03T15:42:27Z</time><name>PT2027</name></trkpt>
<trkpt lat="52.043434" lon="05.692115"><ele>58</ele><time>2021-04-03T15:42:28Z</time><name>PT2028</name></trkpt>
<trkpt lat="52.043433" lon="05.692138"><ele>58.1</ele><time>2021-04-03T15:42:29Z</time><name>PT2029</name></trkpt>
<trkpt lat="52.043426" lon="05.692165"><ele>58.2</ele><time>2021-04-03T15:42:30Z</time><name>PT2030</name></trkpt>
<trkpt lat="52.043427" lon="05.692196"><ele>58.1</ele><time>2021-04-03T15:42:31Z</time><name>PT2031</name></trkpt>
<trkpt lat="52.043428" lon="05.692241"><ele>58.1</ele><time>2021-04-03T15:42:32Z</time><name>PT2032</name></trkpt>
<trkpt lat="52.043424" lon="05.692276"><ele>58.1</ele><time>2021-04-03T15:42:33Z</time><name>PT2033</name></trkpt>
<trkpt lat="52.043428" lon="05.692299"><ele>58.1</ele><time>2021-04-03T15:42:34Z</time><name>PT2034</name></trkpt>
<trkpt lat="52.043424" lon="05.692330"><ele>58.2</ele><time>2021-04-03T15:42:35Z</time><name>PT2035</name></trkpt>
<trkpt lat="52.043422" lon="05.692359"><ele>58.6</ele><time>2021-04-03T15:42:36Z</time><name>PT2036</name></trkpt>
<trkpt lat="52.043420" lon="05.692406"><ele>58.6</ele><time>2021-04-03T15:42:37Z</time><name>PT2037</name></trkpt>
<trkpt lat="52.043411" lon="05.692452"><ele>58.6</ele><time>2021-04-03T15:42:38Z</time><name>PT2038</name></trkpt>
<trkpt lat="52.043407" lon="05.692478"><ele>58.6</ele><time>2021-04-03T15:42:39Z</time><name>PT2039</name></trkpt>
<trkpt lat="52.043402" lon="05.692496"><ele>58.6</ele><time>2021-04-03T15:42:40Z</time><name>PT2040</name></trkpt>
<trkpt lat="52.043407" lon="05.692521"><ele>58.5</ele><time>2021-04-03T15:42:41Z</time><name>PT2041</name></trkpt>
<trkpt lat="52.043403" lon="05.692543"><ele>58.6</ele><time>2021-04-03T15:42:42Z</time><name>PT2042</name></trkpt>
<trkpt lat="52.043413" lon="05.692575"><ele>58.6</ele><time>2021-04-03T15:42:43Z</time><name>PT2043</name></trkpt>
<trkpt lat="52.043407" lon="05.692607"><ele>58.7</ele><time>2021-04-03T15:42:44Z</time><name>PT2044</name></trkpt>
<trkpt lat="52.043406" lon="05.692636"><ele>58.6</ele><time>2021-04-03T15:42:45Z</time><name>PT2045</name></trkpt>
<trkpt lat="52.043403" lon="05.692660"><ele>58.5</ele><time>2021-04-03T15:42:46Z</time><name>PT2046</name></trkpt>
<trkpt lat="52.043412" lon="05.692688"><ele>58.4</ele><time>2021-04-03T15:42:47Z</time><name>PT2047</name></trkpt>
<trkpt lat="52.043409" lon="05.692717"><ele>58.4</ele><time>2021-04-03T15:42:48Z</time><name>PT2048</name></trkpt>
<trkpt lat="52.043406" lon="05.692753"><ele>58.5</ele><time>2021-04-03T15:42:49Z</time><name>PT2049</name></trkpt>
<trkpt lat="52.043399" lon="05.692782"><ele>58.6</ele><time>2021-04-03T15:42:50Z</time><name>PT2050</name></trkpt>
<trkpt lat="52.043390" lon="05.692810"><ele>58.9</ele><time>2021-04-03T15:42:51Z</time><name>PT2051</name></trkpt>
<trkpt lat="52.043387" lon="05.692839"><ele>58.9</ele><time>2021-04-03T15:42:52Z</time><name>PT2052</name></trkpt>
<trkpt lat="52.043385" lon="05.692867"><ele>59.1</ele><time>2021-04-03T15:42:53Z</time><name>PT2053</name></trkpt>
<trkpt lat="52.043377" lon="05.692896"><ele>59.4</ele><time>2021-04-03T15:42:54Z</time><name>PT2054</name></trkpt>
<trkpt lat="52.043371" lon="05.692928"><ele>59.5</ele><time>2021-04-03T15:42:55Z</time><name>PT2055</name></trkpt>
<trkpt lat="52.043366" lon="05.692961"><ele>59.7</ele><time>2021-04-03T15:42:56Z</time><name>PT2056</name></trkpt>
<trkpt lat="52.043367" lon="05.692972"><ele>59.9</ele><time>2021-04-03T15:42:57Z</time><name>PT2057</name></trkpt>
<trkpt lat="52.043370" lon="05.692991"><ele>59.9</ele><time>2021-04-03T15:42:58Z</time><name>PT2058</name></trkpt>
<trkpt lat="52.043371" lon="05.693005"><ele>59.7</ele><time>2021-04-03T15:42:59Z</time><name>PT2059</name></trkpt>
<trkpt lat="52.043369" lon="05.693047"><ele>59.7</ele><time>2021-04-03T15:43:00Z</time><name>PT2060</name></trkpt>
<trkpt lat="52.043363" lon="05.693091"><ele>59.6</ele><time>2021-04-03T15:43:01Z</time><name>PT2061</name></trkpt>
<trkpt lat="52.043359" lon="05.693116"><ele>59.5</ele><time>2021-04-03T15:43:02Z</time><name>PT2062</name></trkpt>
<trkpt lat="52.043357" lon="05.693147"><ele>59.6</ele><time>2021-04-03T15:43:03Z</time><name>PT2063</name></trkpt>
<trkpt lat="52.043355" lon="05.693169"><ele>59.8</ele><time>2021-04-03T15:43:04Z</time><name>PT2064</name></trkpt></trkseg></trk></gpx>